<?xml version="1.0" encoding="UTF-8" standalone="no" ?>
<gpx xmlns="http://www.topografix.com/GPX/1/1" xmlns:xsi="http://www.w3.org/2001/XMLSchema-instance" xsi:schemaLocation="http://www.topografix.com/GPX/1/1 http://www.topografix.com/GPX/1/1/gpx.xsd" version="1.1" creator="VisuGPX - https://www.visugpx.com">
  <metadata>
    <name>RANDO VOREY MONT COURANT 26 KM</name>
    <desc><![CDATA[RANDO VOREY MONT COURANT 27 KM.DEPART ARRIVEE GARE DE VOREY.SUC DE CENEUIL.CHALIGNAC.VIAYE LES MOINES.CHAPELLE CHASSALEUIL. MONT COURANT.LABROC.]]></desc>
  </metadata>
  <trk>
    <name><![CDATA[07-NOV-23 16:55:22]]></name>
    <extensions>
      <line xmlns="http://www.topografix.com/GPX/gpx_style/0/2">
        <color>0000FF</color>
        <width>4</width>
      </line>
    </extensions>
    <trkseg>
      <trkpt lat="45.18323" lon="3.91094">
        <ele>530.79</ele>
        <time>2023-11-07T08:09:52Z</time>
      </trkpt>
      <trkpt lat="45.18322" lon="3.91091">
        <ele>530.79</ele>
        <time>2023-11-07T08:10:10Z</time>
      </trkpt>
      <trkpt lat="45.18324" lon="3.91091">
        <ele>530.3</ele>
        <time>2023-11-07T08:10:34Z</time>
      </trkpt>
      <trkpt lat="45.18324" lon="3.91092">
        <ele>531.27</ele>
        <time>2023-11-07T08:11:04Z</time>
      </trkpt>
      <trkpt lat="45.18324" lon="3.91092">
        <ele>531.75</ele>
        <time>2023-11-07T08:11:26Z</time>
      </trkpt>
      <trkpt lat="45.18324" lon="3.91092">
        <ele>531.75</ele>
        <time>2023-11-07T08:11:49Z</time>
      </trkpt>
      <trkpt lat="45.18324" lon="3.91093">
        <ele>532.71</ele>
        <time>2023-11-07T08:12:13Z</time>
      </trkpt>
      <trkpt lat="45.18323" lon="3.91093">
        <ele>534.15</ele>
        <time>2023-11-07T08:12:26Z</time>
      </trkpt>
      <trkpt lat="45.18336" lon="3.91086">
        <ele>534.63</ele>
        <time>2023-11-07T08:12:41Z</time>
      </trkpt>
      <trkpt lat="45.18349" lon="3.9108">
        <ele>534.63</ele>
        <time>2023-11-07T08:12:53Z</time>
      </trkpt>
      <trkpt lat="45.18351" lon="3.91062">
        <ele>536.55</ele>
        <time>2023-11-07T08:13:09Z</time>
      </trkpt>
      <trkpt lat="45.18336" lon="3.91059">
        <ele>535.59</ele>
        <time>2023-11-07T08:13:26Z</time>
      </trkpt>
      <trkpt lat="45.18327" lon="3.91063">
        <ele>535.59</ele>
        <time>2023-11-07T08:13:34Z</time>
      </trkpt>
      <trkpt lat="45.18319" lon="3.91065">
        <ele>535.11</ele>
        <time>2023-11-07T08:13:50Z</time>
      </trkpt>
      <trkpt lat="45.18294" lon="3.91069">
        <ele>535.11</ele>
        <time>2023-11-07T08:14:10Z</time>
      </trkpt>
      <trkpt lat="45.18268" lon="3.91077">
        <ele>536.55</ele>
        <time>2023-11-07T08:14:29Z</time>
      </trkpt>
      <trkpt lat="45.18245" lon="3.91081">
        <ele>538.48</ele>
        <time>2023-11-07T08:14:47Z</time>
      </trkpt>
      <trkpt lat="45.18219" lon="3.91089">
        <ele>539.44</ele>
        <time>2023-11-07T08:15:07Z</time>
      </trkpt>
      <trkpt lat="45.18195" lon="3.91098">
        <ele>539.92</ele>
        <time>2023-11-07T08:15:27Z</time>
      </trkpt>
      <trkpt lat="45.18176" lon="3.91108">
        <ele>539.92</ele>
        <time>2023-11-07T08:15:44Z</time>
      </trkpt>
      <trkpt lat="45.18154" lon="3.91111">
        <ele>540.88</ele>
        <time>2023-11-07T08:16:03Z</time>
      </trkpt>
      <trkpt lat="45.18145" lon="3.91117">
        <ele>541.36</ele>
        <time>2023-11-07T08:16:11Z</time>
      </trkpt>
      <trkpt lat="45.18142" lon="3.91124">
        <ele>540.88</ele>
        <time>2023-11-07T08:16:16Z</time>
      </trkpt>
      <trkpt lat="45.18136" lon="3.91153">
        <ele>539.44</ele>
        <time>2023-11-07T08:16:34Z</time>
      </trkpt>
      <trkpt lat="45.18133" lon="3.91172">
        <ele>538.96</ele>
        <time>2023-11-07T08:16:46Z</time>
      </trkpt>
      <trkpt lat="45.18127" lon="3.91201">
        <ele>536.55</ele>
        <time>2023-11-07T08:17:05Z</time>
      </trkpt>
      <trkpt lat="45.18119" lon="3.91235">
        <ele>534.15</ele>
        <time>2023-11-07T08:17:24Z</time>
      </trkpt>
      <trkpt lat="45.18112" lon="3.91263">
        <ele>531.75</ele>
        <time>2023-11-07T08:17:40Z</time>
      </trkpt>
      <trkpt lat="45.18105" lon="3.91292">
        <ele>527.9</ele>
        <time>2023-11-07T08:17:58Z</time>
      </trkpt>
      <trkpt lat="45.18096" lon="3.91318">
        <ele>529.82</ele>
        <time>2023-11-07T08:18:13Z</time>
      </trkpt>
      <trkpt lat="45.18083" lon="3.91347">
        <ele>528.86</ele>
        <time>2023-11-07T08:18:33Z</time>
      </trkpt>
      <trkpt lat="45.18073" lon="3.91374">
        <ele>530.3</ele>
        <time>2023-11-07T08:18:51Z</time>
      </trkpt>
      <trkpt lat="45.18064" lon="3.91401">
        <ele>531.27</ele>
        <time>2023-11-07T08:19:08Z</time>
      </trkpt>
      <trkpt lat="45.18054" lon="3.91429">
        <ele>531.27</ele>
        <time>2023-11-07T08:19:24Z</time>
      </trkpt>
      <trkpt lat="45.18051" lon="3.91451">
        <ele>531.27</ele>
        <time>2023-11-07T08:19:36Z</time>
      </trkpt>
      <trkpt lat="45.18049" lon="3.91464">
        <ele>531.27</ele>
        <time>2023-11-07T08:19:43Z</time>
      </trkpt>
      <trkpt lat="45.18046" lon="3.91493">
        <ele>531.75</ele>
        <time>2023-11-07T08:19:58Z</time>
      </trkpt>
      <trkpt lat="45.1804" lon="3.91523">
        <ele>531.27</ele>
        <time>2023-11-07T08:20:14Z</time>
      </trkpt>
      <trkpt lat="45.18035" lon="3.91549">
        <ele>531.27</ele>
        <time>2023-11-07T08:20:29Z</time>
      </trkpt>
      <trkpt lat="45.18028" lon="3.91573">
        <ele>531.27</ele>
        <time>2023-11-07T08:20:45Z</time>
      </trkpt>
      <trkpt lat="45.18016" lon="3.91594">
        <ele>530.79</ele>
        <time>2023-11-07T08:20:57Z</time>
      </trkpt>
      <trkpt lat="45.18005" lon="3.91618">
        <ele>530.79</ele>
        <time>2023-11-07T08:21:13Z</time>
      </trkpt>
      <trkpt lat="45.18003" lon="3.91625">
        <ele>530.3</ele>
        <time>2023-11-07T08:21:17Z</time>
      </trkpt>
      <trkpt lat="45.17993" lon="3.91661">
        <ele>529.82</ele>
        <time>2023-11-07T08:21:34Z</time>
      </trkpt>
      <trkpt lat="45.17982" lon="3.91691">
        <ele>529.82</ele>
        <time>2023-11-07T08:21:50Z</time>
      </trkpt>
      <trkpt lat="45.17975" lon="3.91712">
        <ele>529.34</ele>
        <time>2023-11-07T08:22:01Z</time>
      </trkpt>
      <trkpt lat="45.17956" lon="3.91733">
        <ele>529.82</ele>
        <time>2023-11-07T08:22:18Z</time>
      </trkpt>
      <trkpt lat="45.17933" lon="3.9175">
        <ele>529.82</ele>
        <time>2023-11-07T08:22:37Z</time>
      </trkpt>
      <trkpt lat="45.17909" lon="3.91774">
        <ele>531.27</ele>
        <time>2023-11-07T08:22:57Z</time>
      </trkpt>
      <trkpt lat="45.17889" lon="3.91785">
        <ele>532.71</ele>
        <time>2023-11-07T08:23:15Z</time>
      </trkpt>
      <trkpt lat="45.17885" lon="3.91801">
        <ele>530.79</ele>
        <time>2023-11-07T08:23:31Z</time>
      </trkpt>
      <trkpt lat="45.17886" lon="3.91809">
        <ele>529.82</ele>
        <time>2023-11-07T08:23:36Z</time>
      </trkpt>
      <trkpt lat="45.17879" lon="3.91825">
        <ele>527.9</ele>
        <time>2023-11-07T08:23:52Z</time>
      </trkpt>
      <trkpt lat="45.17877" lon="3.9183">
        <ele>527.9</ele>
        <time>2023-11-07T08:24:11Z</time>
      </trkpt>
      <trkpt lat="45.17873" lon="3.9183">
        <ele>528.38</ele>
        <time>2023-11-07T08:24:24Z</time>
      </trkpt>
      <trkpt lat="45.17864" lon="3.91832">
        <ele>529.34</ele>
        <time>2023-11-07T08:24:32Z</time>
      </trkpt>
      <trkpt lat="45.17837" lon="3.91839">
        <ele>533.19</ele>
        <time>2023-11-07T08:24:51Z</time>
      </trkpt>
      <trkpt lat="45.17817" lon="3.91822">
        <ele>534.15</ele>
        <time>2023-11-07T08:25:08Z</time>
      </trkpt>
      <trkpt lat="45.17797" lon="3.91807">
        <ele>534.15</ele>
        <time>2023-11-07T08:25:25Z</time>
      </trkpt>
      <trkpt lat="45.17779" lon="3.9178">
        <ele>536.55</ele>
        <time>2023-11-07T08:25:44Z</time>
      </trkpt>
      <trkpt lat="45.17765" lon="3.91755">
        <ele>537.51</ele>
        <time>2023-11-07T08:26:00Z</time>
      </trkpt>
      <trkpt lat="45.1775" lon="3.9173">
        <ele>539.92</ele>
        <time>2023-11-07T08:26:17Z</time>
      </trkpt>
      <trkpt lat="45.17743" lon="3.91719">
        <ele>539.92</ele>
        <time>2023-11-07T08:26:34Z</time>
      </trkpt>
      <trkpt lat="45.17739" lon="3.91727">
        <ele>540.4</ele>
        <time>2023-11-07T08:26:57Z</time>
      </trkpt>
      <trkpt lat="45.17741" lon="3.91749">
        <ele>540.4</ele>
        <time>2023-11-07T08:27:16Z</time>
      </trkpt>
      <trkpt lat="45.17743" lon="3.91755">
        <ele>540.4</ele>
        <time>2023-11-07T08:27:19Z</time>
      </trkpt>
      <trkpt lat="45.17742" lon="3.91789">
        <ele>541.36</ele>
        <time>2023-11-07T08:27:38Z</time>
      </trkpt>
      <trkpt lat="45.17722" lon="3.91802">
        <ele>550.97</ele>
        <time>2023-11-07T08:27:52Z</time>
      </trkpt>
      <trkpt lat="45.17699" lon="3.91798">
        <ele>556.26</ele>
        <time>2023-11-07T08:28:09Z</time>
      </trkpt>
      <trkpt lat="45.17679" lon="3.91799">
        <ele>558.66</ele>
        <time>2023-11-07T08:28:25Z</time>
      </trkpt>
      <trkpt lat="45.1766" lon="3.91788">
        <ele>562.99</ele>
        <time>2023-11-07T08:28:42Z</time>
      </trkpt>
      <trkpt lat="45.17642" lon="3.91781">
        <ele>563.95</ele>
        <time>2023-11-07T08:28:59Z</time>
      </trkpt>
      <trkpt lat="45.17626" lon="3.91774">
        <ele>567.32</ele>
        <time>2023-11-07T08:29:14Z</time>
      </trkpt>
      <trkpt lat="45.17612" lon="3.91766">
        <ele>569.24</ele>
        <time>2023-11-07T08:29:29Z</time>
      </trkpt>
      <trkpt lat="45.17598" lon="3.91764">
        <ele>572.12</ele>
        <time>2023-11-07T08:29:42Z</time>
      </trkpt>
      <trkpt lat="45.17582" lon="3.91757">
        <ele>574.53</ele>
        <time>2023-11-07T08:29:55Z</time>
      </trkpt>
      <trkpt lat="45.1756" lon="3.91743">
        <ele>578.37</ele>
        <time>2023-11-07T08:30:14Z</time>
      </trkpt>
      <trkpt lat="45.17535" lon="3.91734">
        <ele>581.73</ele>
        <time>2023-11-07T08:30:33Z</time>
      </trkpt>
      <trkpt lat="45.17511" lon="3.91725">
        <ele>583.66</ele>
        <time>2023-11-07T08:30:50Z</time>
      </trkpt>
      <trkpt lat="45.17489" lon="3.9172">
        <ele>586.54</ele>
        <time>2023-11-07T08:31:08Z</time>
      </trkpt>
      <trkpt lat="45.17468" lon="3.91724">
        <ele>589.91</ele>
        <time>2023-11-07T08:31:25Z</time>
      </trkpt>
      <trkpt lat="45.17447" lon="3.9173">
        <ele>591.83</ele>
        <time>2023-11-07T08:31:42Z</time>
      </trkpt>
      <trkpt lat="45.17426" lon="3.91736">
        <ele>593.75</ele>
        <time>2023-11-07T08:31:59Z</time>
      </trkpt>
      <trkpt lat="45.17416" lon="3.91739">
        <ele>595.19</ele>
        <time>2023-11-07T08:32:08Z</time>
      </trkpt>
      <trkpt lat="45.17396" lon="3.91744">
        <ele>595.19</ele>
        <time>2023-11-07T08:32:29Z</time>
      </trkpt>
      <trkpt lat="45.17383" lon="3.91749">
        <ele>593.75</ele>
        <time>2023-11-07T08:32:43Z</time>
      </trkpt>
      <trkpt lat="45.17364" lon="3.91745">
        <ele>593.75</ele>
        <time>2023-11-07T08:33:00Z</time>
      </trkpt>
      <trkpt lat="45.17347" lon="3.91739">
        <ele>594.23</ele>
        <time>2023-11-07T08:33:16Z</time>
      </trkpt>
      <trkpt lat="45.17334" lon="3.91735">
        <ele>594.71</ele>
        <time>2023-11-07T08:33:31Z</time>
      </trkpt>
      <trkpt lat="45.17322" lon="3.91731">
        <ele>594.71</ele>
        <time>2023-11-07T08:33:48Z</time>
      </trkpt>
      <trkpt lat="45.17312" lon="3.91729">
        <ele>595.67</ele>
        <time>2023-11-07T08:34:02Z</time>
      </trkpt>
      <trkpt lat="45.17298" lon="3.9173">
        <ele>596.64</ele>
        <time>2023-11-07T08:34:19Z</time>
      </trkpt>
      <trkpt lat="45.17282" lon="3.91728">
        <ele>596.64</ele>
        <time>2023-11-07T08:34:36Z</time>
      </trkpt>
      <trkpt lat="45.17269" lon="3.91724">
        <ele>598.08</ele>
        <time>2023-11-07T08:34:52Z</time>
      </trkpt>
      <trkpt lat="45.17257" lon="3.91719">
        <ele>600.48</ele>
        <time>2023-11-07T08:35:09Z</time>
      </trkpt>
      <trkpt lat="45.17253" lon="3.91715">
        <ele>601.44</ele>
        <time>2023-11-07T08:35:14Z</time>
      </trkpt>
      <trkpt lat="45.17252" lon="3.91697">
        <ele>603.36</ele>
        <time>2023-11-07T08:35:29Z</time>
      </trkpt>
      <trkpt lat="45.17248" lon="3.9168">
        <ele>605.29</ele>
        <time>2023-11-07T08:35:43Z</time>
      </trkpt>
      <trkpt lat="45.17245" lon="3.91675">
        <ele>605.29</ele>
        <time>2023-11-07T08:35:47Z</time>
      </trkpt>
      <trkpt lat="45.17236" lon="3.91662">
        <ele>606.73</ele>
        <time>2023-11-07T08:36:01Z</time>
      </trkpt>
      <trkpt lat="45.17228" lon="3.91648">
        <ele>607.69</ele>
        <time>2023-11-07T08:36:17Z</time>
      </trkpt>
      <trkpt lat="45.17218" lon="3.91627">
        <ele>609.13</ele>
        <time>2023-11-07T08:36:33Z</time>
      </trkpt>
      <trkpt lat="45.17209" lon="3.91616">
        <ele>612.02</ele>
        <time>2023-11-07T08:36:46Z</time>
      </trkpt>
      <trkpt lat="45.17196" lon="3.91611">
        <ele>616.82</ele>
        <time>2023-11-07T08:37:00Z</time>
      </trkpt>
      <trkpt lat="45.17193" lon="3.9161">
        <ele>618.26</ele>
        <time>2023-11-07T08:37:02Z</time>
      </trkpt>
      <trkpt lat="45.1718" lon="3.91609">
        <ele>622.11</ele>
        <time>2023-11-07T08:37:13Z</time>
      </trkpt>
      <trkpt lat="45.17156" lon="3.91626">
        <ele>643.74</ele>
        <time>2023-11-07T08:37:29Z</time>
      </trkpt>
      <trkpt lat="45.17145" lon="3.91633">
        <ele>655.28</ele>
        <time>2023-11-07T08:37:37Z</time>
      </trkpt>
      <trkpt lat="45.1713" lon="3.91636">
        <ele>661.52</ele>
        <time>2023-11-07T08:37:50Z</time>
      </trkpt>
      <trkpt lat="45.17114" lon="3.91641">
        <ele>667.77</ele>
        <time>2023-11-07T08:38:07Z</time>
      </trkpt>
      <trkpt lat="45.17102" lon="3.91645">
        <ele>672.1</ele>
        <time>2023-11-07T08:38:23Z</time>
      </trkpt>
      <trkpt lat="45.17092" lon="3.91646">
        <ele>674.02</ele>
        <time>2023-11-07T08:38:32Z</time>
      </trkpt>
      <trkpt lat="45.17088" lon="3.91646">
        <ele>674.98</ele>
        <time>2023-11-07T08:38:47Z</time>
      </trkpt>
      <trkpt lat="45.17088" lon="3.91643">
        <ele>675.94</ele>
        <time>2023-11-07T08:39:05Z</time>
      </trkpt>
      <trkpt lat="45.17088" lon="3.91642">
        <ele>677.39</ele>
        <time>2023-11-07T08:39:23Z</time>
      </trkpt>
      <trkpt lat="45.1709" lon="3.91645">
        <ele>676.91</ele>
        <time>2023-11-07T08:39:51Z</time>
      </trkpt>
      <trkpt lat="45.17088" lon="3.91644">
        <ele>677.87</ele>
        <time>2023-11-07T08:40:08Z</time>
      </trkpt>
      <trkpt lat="45.17088" lon="3.91644">
        <ele>677.87</ele>
        <time>2023-11-07T08:40:09Z</time>
      </trkpt>
      <trkpt lat="45.17087" lon="3.91644">
        <ele>680.27</ele>
        <time>2023-11-07T08:40:19Z</time>
      </trkpt>
      <trkpt lat="45.17088" lon="3.91645">
        <ele>680.27</ele>
        <time>2023-11-07T08:40:35Z</time>
      </trkpt>
      <trkpt lat="45.17088" lon="3.91644">
        <ele>681.23</ele>
        <time>2023-11-07T08:41:00Z</time>
      </trkpt>
      <trkpt lat="45.17088" lon="3.91644">
        <ele>680.75</ele>
        <time>2023-11-07T08:41:18Z</time>
      </trkpt>
      <trkpt lat="45.17088" lon="3.91644">
        <ele>680.75</ele>
        <time>2023-11-07T08:41:36Z</time>
      </trkpt>
      <trkpt lat="45.17088" lon="3.91644">
        <ele>680.75</ele>
        <time>2023-11-07T08:41:57Z</time>
      </trkpt>
      <trkpt lat="45.17088" lon="3.91644">
        <ele>680.27</ele>
        <time>2023-11-07T08:42:12Z</time>
      </trkpt>
      <trkpt lat="45.17089" lon="3.91645">
        <ele>680.27</ele>
        <time>2023-11-07T08:42:40Z</time>
      </trkpt>
      <trkpt lat="45.17088" lon="3.91645">
        <ele>679.79</ele>
        <time>2023-11-07T08:43:03Z</time>
      </trkpt>
      <trkpt lat="45.17088" lon="3.91638">
        <ele>680.27</ele>
        <time>2023-11-07T08:43:20Z</time>
      </trkpt>
      <trkpt lat="45.17086" lon="3.91631">
        <ele>680.75</ele>
        <time>2023-11-07T08:43:25Z</time>
      </trkpt>
      <trkpt lat="45.17087" lon="3.91626">
        <ele>681.23</ele>
        <time>2023-11-07T08:43:29Z</time>
      </trkpt>
      <trkpt lat="45.1708" lon="3.91605">
        <ele>682.19</ele>
        <time>2023-11-07T08:43:45Z</time>
      </trkpt>
      <trkpt lat="45.17079" lon="3.91603">
        <ele>682.19</ele>
        <time>2023-11-07T08:43:46Z</time>
      </trkpt>
      <trkpt lat="45.17072" lon="3.91588">
        <ele>683.15</ele>
        <time>2023-11-07T08:43:56Z</time>
      </trkpt>
      <trkpt lat="45.17063" lon="3.91567">
        <ele>686.04</ele>
        <time>2023-11-07T08:44:11Z</time>
      </trkpt>
      <trkpt lat="45.17058" lon="3.91557">
        <ele>687.48</ele>
        <time>2023-11-07T08:44:24Z</time>
      </trkpt>
      <trkpt lat="45.17053" lon="3.91549">
        <ele>688.44</ele>
        <time>2023-11-07T08:44:31Z</time>
      </trkpt>
      <trkpt lat="45.17047" lon="3.91539">
        <ele>689.4</ele>
        <time>2023-11-07T08:44:38Z</time>
      </trkpt>
      <trkpt lat="45.17035" lon="3.91526">
        <ele>689.88</ele>
        <time>2023-11-07T08:44:51Z</time>
      </trkpt>
      <trkpt lat="45.17022" lon="3.91511">
        <ele>689.4</ele>
        <time>2023-11-07T08:45:07Z</time>
      </trkpt>
      <trkpt lat="45.17007" lon="3.91491">
        <ele>689.4</ele>
        <time>2023-11-07T08:45:24Z</time>
      </trkpt>
      <trkpt lat="45.16995" lon="3.91465">
        <ele>690.84</ele>
        <time>2023-11-07T08:45:41Z</time>
      </trkpt>
      <trkpt lat="45.16985" lon="3.91444">
        <ele>691.33</ele>
        <time>2023-11-07T08:45:56Z</time>
      </trkpt>
      <trkpt lat="45.16971" lon="3.91424">
        <ele>691.81</ele>
        <time>2023-11-07T08:46:11Z</time>
      </trkpt>
      <trkpt lat="45.16953" lon="3.91401">
        <ele>692.77</ele>
        <time>2023-11-07T08:46:29Z</time>
      </trkpt>
      <trkpt lat="45.16934" lon="3.91377">
        <ele>693.73</ele>
        <time>2023-11-07T08:46:47Z</time>
      </trkpt>
      <trkpt lat="45.16917" lon="3.91357">
        <ele>693.73</ele>
        <time>2023-11-07T08:47:04Z</time>
      </trkpt>
      <trkpt lat="45.16898" lon="3.91342">
        <ele>695.65</ele>
        <time>2023-11-07T08:47:20Z</time>
      </trkpt>
      <trkpt lat="45.16878" lon="3.91325">
        <ele>697.57</ele>
        <time>2023-11-07T08:47:37Z</time>
      </trkpt>
      <trkpt lat="45.16857" lon="3.91316">
        <ele>697.57</ele>
        <time>2023-11-07T08:47:52Z</time>
      </trkpt>
      <trkpt lat="45.16836" lon="3.91321">
        <ele>699.02</ele>
        <time>2023-11-07T08:48:09Z</time>
      </trkpt>
      <trkpt lat="45.16816" lon="3.91327">
        <ele>700.94</ele>
        <time>2023-11-07T08:48:25Z</time>
      </trkpt>
      <trkpt lat="45.16796" lon="3.91338">
        <ele>702.38</ele>
        <time>2023-11-07T08:48:42Z</time>
      </trkpt>
      <trkpt lat="45.16775" lon="3.91349">
        <ele>703.34</ele>
        <time>2023-11-07T08:48:59Z</time>
      </trkpt>
      <trkpt lat="45.1677" lon="3.91352">
        <ele>703.34</ele>
        <time>2023-11-07T08:49:03Z</time>
      </trkpt>
      <trkpt lat="45.16764" lon="3.91357">
        <ele>704.3</ele>
        <time>2023-11-07T08:49:09Z</time>
      </trkpt>
      <trkpt lat="45.1674" lon="3.9137">
        <ele>706.23</ele>
        <time>2023-11-07T08:49:27Z</time>
      </trkpt>
      <trkpt lat="45.16719" lon="3.91376">
        <ele>708.15</ele>
        <time>2023-11-07T08:49:43Z</time>
      </trkpt>
      <trkpt lat="45.16695" lon="3.91377">
        <ele>709.59</ele>
        <time>2023-11-07T08:50:00Z</time>
      </trkpt>
      <trkpt lat="45.16674" lon="3.91381">
        <ele>710.55</ele>
        <time>2023-11-07T08:50:16Z</time>
      </trkpt>
      <trkpt lat="45.16671" lon="3.91382">
        <ele>710.55</ele>
        <time>2023-11-07T08:50:18Z</time>
      </trkpt>
      <trkpt lat="45.1665" lon="3.91378">
        <ele>711.03</ele>
        <time>2023-11-07T08:50:33Z</time>
      </trkpt>
      <trkpt lat="45.16628" lon="3.91378">
        <ele>710.55</ele>
        <time>2023-11-07T08:50:49Z</time>
      </trkpt>
      <trkpt lat="45.16621" lon="3.91384">
        <ele>711.03</ele>
        <time>2023-11-07T08:51:03Z</time>
      </trkpt>
      <trkpt lat="45.16621" lon="3.91384">
        <ele>710.07</ele>
        <time>2023-11-07T08:51:24Z</time>
      </trkpt>
      <trkpt lat="45.1662" lon="3.91385">
        <ele>710.07</ele>
        <time>2023-11-07T08:51:49Z</time>
      </trkpt>
      <trkpt lat="45.16621" lon="3.91384">
        <ele>711.03</ele>
        <time>2023-11-07T08:52:24Z</time>
      </trkpt>
      <trkpt lat="45.16618" lon="3.91386">
        <ele>711.51</ele>
        <time>2023-11-07T08:52:40Z</time>
      </trkpt>
      <trkpt lat="45.16596" lon="3.91389">
        <ele>712.95</ele>
        <time>2023-11-07T08:52:58Z</time>
      </trkpt>
      <trkpt lat="45.1657" lon="3.91396">
        <ele>712.95</ele>
        <time>2023-11-07T08:53:17Z</time>
      </trkpt>
      <trkpt lat="45.16549" lon="3.91395">
        <ele>711.03</ele>
        <time>2023-11-07T08:53:33Z</time>
      </trkpt>
      <trkpt lat="45.16535" lon="3.91389">
        <ele>707.67</ele>
        <time>2023-11-07T08:53:44Z</time>
      </trkpt>
      <trkpt lat="45.16511" lon="3.9138">
        <ele>705.26</ele>
        <time>2023-11-07T08:54:02Z</time>
      </trkpt>
      <trkpt lat="45.16488" lon="3.91372">
        <ele>704.78</ele>
        <time>2023-11-07T08:54:19Z</time>
      </trkpt>
      <trkpt lat="45.16469" lon="3.91364">
        <ele>706.23</ele>
        <time>2023-11-07T08:54:34Z</time>
      </trkpt>
      <trkpt lat="45.16448" lon="3.91358">
        <ele>703.82</ele>
        <time>2023-11-07T08:54:51Z</time>
      </trkpt>
      <trkpt lat="45.16447" lon="3.91358">
        <ele>702.86</ele>
        <time>2023-11-07T08:55:07Z</time>
      </trkpt>
      <trkpt lat="45.16448" lon="3.91368">
        <ele>703.34</ele>
        <time>2023-11-07T08:55:25Z</time>
      </trkpt>
      <trkpt lat="45.16448" lon="3.91375">
        <ele>704.78</ele>
        <time>2023-11-07T08:55:31Z</time>
      </trkpt>
      <trkpt lat="45.16451" lon="3.91391">
        <ele>706.71</ele>
        <time>2023-11-07T08:55:44Z</time>
      </trkpt>
      <trkpt lat="45.16451" lon="3.91392">
        <ele>707.19</ele>
        <time>2023-11-07T08:55:45Z</time>
      </trkpt>
      <trkpt lat="45.16455" lon="3.91407">
        <ele>708.15</ele>
        <time>2023-11-07T08:55:57Z</time>
      </trkpt>
      <trkpt lat="45.1646" lon="3.91425">
        <ele>710.07</ele>
        <time>2023-11-07T08:56:12Z</time>
      </trkpt>
      <trkpt lat="45.16463" lon="3.91439">
        <ele>711.99</ele>
        <time>2023-11-07T08:56:24Z</time>
      </trkpt>
      <trkpt lat="45.16464" lon="3.91449">
        <ele>714.88</ele>
        <time>2023-11-07T08:56:40Z</time>
      </trkpt>
      <trkpt lat="45.16465" lon="3.91457">
        <ele>715.36</ele>
        <time>2023-11-07T08:56:55Z</time>
      </trkpt>
      <trkpt lat="45.16468" lon="3.91473">
        <ele>717.76</ele>
        <time>2023-11-07T08:57:08Z</time>
      </trkpt>
      <trkpt lat="45.16469" lon="3.91491">
        <ele>721.13</ele>
        <time>2023-11-07T08:57:22Z</time>
      </trkpt>
      <trkpt lat="45.1647" lon="3.91499">
        <ele>723.05</ele>
        <time>2023-11-07T08:57:28Z</time>
      </trkpt>
      <trkpt lat="45.16474" lon="3.91519">
        <ele>726.41</ele>
        <time>2023-11-07T08:57:43Z</time>
      </trkpt>
      <trkpt lat="45.16477" lon="3.91521">
        <ele>727.37</ele>
        <time>2023-11-07T08:57:46Z</time>
      </trkpt>
      <trkpt lat="45.16478" lon="3.91523">
        <ele>727.86</ele>
        <time>2023-11-07T08:57:48Z</time>
      </trkpt>
      <trkpt lat="45.16485" lon="3.91532">
        <ele>731.22</ele>
        <time>2023-11-07T08:58:02Z</time>
      </trkpt>
      <trkpt lat="45.16489" lon="3.91541">
        <ele>733.62</ele>
        <time>2023-11-07T08:58:13Z</time>
      </trkpt>
      <trkpt lat="45.16493" lon="3.9155">
        <ele>735.55</ele>
        <time>2023-11-07T08:58:25Z</time>
      </trkpt>
      <trkpt lat="45.16498" lon="3.91562">
        <ele>738.91</ele>
        <time>2023-11-07T08:58:40Z</time>
      </trkpt>
      <trkpt lat="45.165" lon="3.91574">
        <ele>740.83</ele>
        <time>2023-11-07T08:58:53Z</time>
      </trkpt>
      <trkpt lat="45.16501" lon="3.91589">
        <ele>743.24</ele>
        <time>2023-11-07T08:59:07Z</time>
      </trkpt>
      <trkpt lat="45.16504" lon="3.91601">
        <ele>745.16</ele>
        <time>2023-11-07T08:59:20Z</time>
      </trkpt>
      <trkpt lat="45.1651" lon="3.91609">
        <ele>747.56</ele>
        <time>2023-11-07T08:59:34Z</time>
      </trkpt>
      <trkpt lat="45.16512" lon="3.9162">
        <ele>750.45</ele>
        <time>2023-11-07T08:59:48Z</time>
      </trkpt>
      <trkpt lat="45.16509" lon="3.91633">
        <ele>751.89</ele>
        <time>2023-11-07T09:00:02Z</time>
      </trkpt>
      <trkpt lat="45.16506" lon="3.91641">
        <ele>752.85</ele>
        <time>2023-11-07T09:00:16Z</time>
      </trkpt>
      <trkpt lat="45.16504" lon="3.91643">
        <ele>752.37</ele>
        <time>2023-11-07T09:00:32Z</time>
      </trkpt>
      <trkpt lat="45.16504" lon="3.91642">
        <ele>751.41</ele>
        <time>2023-11-07T09:00:52Z</time>
      </trkpt>
      <trkpt lat="45.16504" lon="3.91643">
        <ele>751.41</ele>
        <time>2023-11-07T09:01:15Z</time>
      </trkpt>
      <trkpt lat="45.16504" lon="3.91642">
        <ele>750.93</ele>
        <time>2023-11-07T09:01:37Z</time>
      </trkpt>
      <trkpt lat="45.16504" lon="3.91643">
        <ele>750.93</ele>
        <time>2023-11-07T09:01:54Z</time>
      </trkpt>
      <trkpt lat="45.16503" lon="3.91646">
        <ele>752.37</ele>
        <time>2023-11-07T09:02:10Z</time>
      </trkpt>
      <trkpt lat="45.16499" lon="3.9165">
        <ele>751.89</ele>
        <time>2023-11-07T09:02:14Z</time>
      </trkpt>
      <trkpt lat="45.16494" lon="3.91669">
        <ele>751.89</ele>
        <time>2023-11-07T09:02:30Z</time>
      </trkpt>
      <trkpt lat="45.16495" lon="3.91673">
        <ele>752.85</ele>
        <time>2023-11-07T09:02:46Z</time>
      </trkpt>
      <trkpt lat="45.16493" lon="3.91673">
        <ele>752.37</ele>
        <time>2023-11-07T09:03:10Z</time>
      </trkpt>
      <trkpt lat="45.16498" lon="3.9168">
        <ele>753.33</ele>
        <time>2023-11-07T09:03:24Z</time>
      </trkpt>
      <trkpt lat="45.16504" lon="3.91683">
        <ele>754.29</ele>
        <time>2023-11-07T09:03:36Z</time>
      </trkpt>
      <trkpt lat="45.1651" lon="3.91688">
        <ele>755.73</ele>
        <time>2023-11-07T09:03:49Z</time>
      </trkpt>
      <trkpt lat="45.16517" lon="3.91693">
        <ele>757.66</ele>
        <time>2023-11-07T09:04:01Z</time>
      </trkpt>
      <trkpt lat="45.16523" lon="3.91697">
        <ele>760.06</ele>
        <time>2023-11-07T09:04:12Z</time>
      </trkpt>
      <trkpt lat="45.1653" lon="3.91696">
        <ele>762.46</ele>
        <time>2023-11-07T09:04:23Z</time>
      </trkpt>
      <trkpt lat="45.16536" lon="3.91694">
        <ele>764.87</ele>
        <time>2023-11-07T09:04:35Z</time>
      </trkpt>
      <trkpt lat="45.16542" lon="3.91692">
        <ele>767.27</ele>
        <time>2023-11-07T09:04:48Z</time>
      </trkpt>
      <trkpt lat="45.16548" lon="3.91688">
        <ele>770.63</ele>
        <time>2023-11-07T09:04:58Z</time>
      </trkpt>
      <trkpt lat="45.16557" lon="3.91685">
        <ele>772.08</ele>
        <time>2023-11-07T09:05:11Z</time>
      </trkpt>
      <trkpt lat="45.16567" lon="3.91684">
        <ele>774</ele>
        <time>2023-11-07T09:05:24Z</time>
      </trkpt>
      <trkpt lat="45.16578" lon="3.91685">
        <ele>776.4</ele>
        <time>2023-11-07T09:05:38Z</time>
      </trkpt>
      <trkpt lat="45.16582" lon="3.91692">
        <ele>778.81</ele>
        <time>2023-11-07T09:05:51Z</time>
      </trkpt>
      <trkpt lat="45.16585" lon="3.91699">
        <ele>780.25</ele>
        <time>2023-11-07T09:06:02Z</time>
      </trkpt>
      <trkpt lat="45.16589" lon="3.91706">
        <ele>782.17</ele>
        <time>2023-11-07T09:06:15Z</time>
      </trkpt>
      <trkpt lat="45.16593" lon="3.9171">
        <ele>784.09</ele>
        <time>2023-11-07T09:06:28Z</time>
      </trkpt>
      <trkpt lat="45.16597" lon="3.91714">
        <ele>785.05</ele>
        <time>2023-11-07T09:06:41Z</time>
      </trkpt>
      <trkpt lat="45.16597" lon="3.91713">
        <ele>785.53</ele>
        <time>2023-11-07T09:06:54Z</time>
      </trkpt>
      <trkpt lat="45.16599" lon="3.91713">
        <ele>786.02</ele>
        <time>2023-11-07T09:07:05Z</time>
      </trkpt>
      <trkpt lat="45.166" lon="3.91714">
        <ele>786.02</ele>
        <time>2023-11-07T09:07:22Z</time>
      </trkpt>
      <trkpt lat="45.16605" lon="3.91713">
        <ele>787.94</ele>
        <time>2023-11-07T09:07:40Z</time>
      </trkpt>
      <trkpt lat="45.16605" lon="3.91715">
        <ele>788.9</ele>
        <time>2023-11-07T09:07:50Z</time>
      </trkpt>
      <trkpt lat="45.16605" lon="3.91719">
        <ele>789.86</ele>
        <time>2023-11-07T09:08:00Z</time>
      </trkpt>
      <trkpt lat="45.16601" lon="3.9173">
        <ele>790.82</ele>
        <time>2023-11-07T09:08:14Z</time>
      </trkpt>
      <trkpt lat="45.166" lon="3.91731">
        <ele>791.3</ele>
        <time>2023-11-07T09:08:25Z</time>
      </trkpt>
      <trkpt lat="45.16599" lon="3.91732">
        <ele>791.78</ele>
        <time>2023-11-07T09:08:44Z</time>
      </trkpt>
      <trkpt lat="45.16593" lon="3.91734">
        <ele>794.19</ele>
        <time>2023-11-07T09:09:01Z</time>
      </trkpt>
      <trkpt lat="45.16584" lon="3.91734">
        <ele>796.59</ele>
        <time>2023-11-07T09:09:14Z</time>
      </trkpt>
      <trkpt lat="45.16581" lon="3.91735">
        <ele>797.07</ele>
        <time>2023-11-07T09:09:17Z</time>
      </trkpt>
      <trkpt lat="45.1658" lon="3.91743">
        <ele>798.51</ele>
        <time>2023-11-07T09:09:29Z</time>
      </trkpt>
      <trkpt lat="45.16582" lon="3.91745">
        <ele>798.03</ele>
        <time>2023-11-07T09:09:41Z</time>
      </trkpt>
      <trkpt lat="45.16582" lon="3.91746">
        <ele>798.03</ele>
        <time>2023-11-07T09:10:00Z</time>
      </trkpt>
      <trkpt lat="45.16582" lon="3.91745">
        <ele>797.07</ele>
        <time>2023-11-07T09:10:22Z</time>
      </trkpt>
      <trkpt lat="45.16582" lon="3.91745">
        <ele>796.59</ele>
        <time>2023-11-07T09:10:40Z</time>
      </trkpt>
      <trkpt lat="45.16582" lon="3.91745">
        <ele>796.59</ele>
        <time>2023-11-07T09:11:04Z</time>
      </trkpt>
      <trkpt lat="45.16581" lon="3.91745">
        <ele>796.59</ele>
        <time>2023-11-07T09:11:17Z</time>
      </trkpt>
      <trkpt lat="45.16581" lon="3.91745">
        <ele>796.59</ele>
        <time>2023-11-07T09:11:36Z</time>
      </trkpt>
      <trkpt lat="45.16581" lon="3.91745">
        <ele>796.59</ele>
        <time>2023-11-07T09:11:55Z</time>
      </trkpt>
      <trkpt lat="45.16581" lon="3.91746">
        <ele>796.59</ele>
        <time>2023-11-07T09:12:16Z</time>
      </trkpt>
      <trkpt lat="45.16581" lon="3.91746">
        <ele>796.59</ele>
        <time>2023-11-07T09:12:32Z</time>
      </trkpt>
      <trkpt lat="45.16582" lon="3.91745">
        <ele>796.59</ele>
        <time>2023-11-07T09:12:43Z</time>
      </trkpt>
      <trkpt lat="45.16582" lon="3.91745">
        <ele>796.59</ele>
        <time>2023-11-07T09:12:56Z</time>
      </trkpt>
      <trkpt lat="45.16582" lon="3.91744">
        <ele>796.59</ele>
        <time>2023-11-07T09:13:10Z</time>
      </trkpt>
      <trkpt lat="45.16581" lon="3.91743">
        <ele>796.59</ele>
        <time>2023-11-07T09:13:35Z</time>
      </trkpt>
      <trkpt lat="45.16581" lon="3.91743">
        <ele>796.59</ele>
        <time>2023-11-07T09:13:55Z</time>
      </trkpt>
      <trkpt lat="45.16581" lon="3.91743">
        <ele>796.59</ele>
        <time>2023-11-07T09:14:24Z</time>
      </trkpt>
      <trkpt lat="45.16581" lon="3.91743">
        <ele>796.59</ele>
        <time>2023-11-07T09:14:44Z</time>
      </trkpt>
      <trkpt lat="45.16581" lon="3.91743">
        <ele>796.59</ele>
        <time>2023-11-07T09:15:01Z</time>
      </trkpt>
      <trkpt lat="45.16581" lon="3.91744">
        <ele>796.59</ele>
        <time>2023-11-07T09:15:17Z</time>
      </trkpt>
      <trkpt lat="45.16582" lon="3.91744">
        <ele>796.59</ele>
        <time>2023-11-07T09:15:38Z</time>
      </trkpt>
      <trkpt lat="45.16582" lon="3.91744">
        <ele>797.07</ele>
        <time>2023-11-07T09:15:49Z</time>
      </trkpt>
      <trkpt lat="45.16582" lon="3.91745">
        <ele>797.07</ele>
        <time>2023-11-07T09:16:05Z</time>
      </trkpt>
      <trkpt lat="45.16582" lon="3.91746">
        <ele>797.07</ele>
        <time>2023-11-07T09:16:27Z</time>
      </trkpt>
      <trkpt lat="45.16582" lon="3.91743">
        <ele>797.07</ele>
        <time>2023-11-07T09:16:47Z</time>
      </trkpt>
      <trkpt lat="45.16581" lon="3.91743">
        <ele>797.07</ele>
        <time>2023-11-07T09:17:02Z</time>
      </trkpt>
      <trkpt lat="45.1658" lon="3.91745">
        <ele>797.07</ele>
        <time>2023-11-07T09:17:14Z</time>
      </trkpt>
      <trkpt lat="45.16579" lon="3.9174">
        <ele>797.07</ele>
        <time>2023-11-07T09:17:29Z</time>
      </trkpt>
      <trkpt lat="45.16582" lon="3.91734">
        <ele>796.11</ele>
        <time>2023-11-07T09:17:34Z</time>
      </trkpt>
      <trkpt lat="45.16585" lon="3.91734">
        <ele>795.63</ele>
        <time>2023-11-07T09:17:37Z</time>
      </trkpt>
      <trkpt lat="45.16589" lon="3.91733">
        <ele>794.67</ele>
        <time>2023-11-07T09:17:44Z</time>
      </trkpt>
      <trkpt lat="45.16598" lon="3.91729">
        <ele>791.3</ele>
        <time>2023-11-07T09:17:56Z</time>
      </trkpt>
      <trkpt lat="45.16597" lon="3.91727">
        <ele>790.82</ele>
        <time>2023-11-07T09:17:58Z</time>
      </trkpt>
      <trkpt lat="45.16599" lon="3.9172">
        <ele>788.42</ele>
        <time>2023-11-07T09:18:06Z</time>
      </trkpt>
      <trkpt lat="45.16598" lon="3.91713">
        <ele>786.5</ele>
        <time>2023-11-07T09:18:19Z</time>
      </trkpt>
      <trkpt lat="45.1659" lon="3.91706">
        <ele>784.57</ele>
        <time>2023-11-07T09:18:32Z</time>
      </trkpt>
      <trkpt lat="45.16583" lon="3.91693">
        <ele>782.65</ele>
        <time>2023-11-07T09:18:48Z</time>
      </trkpt>
      <trkpt lat="45.16582" lon="3.9169">
        <ele>782.65</ele>
        <time>2023-11-07T09:18:51Z</time>
      </trkpt>
      <trkpt lat="45.16576" lon="3.91684">
        <ele>781.69</ele>
        <time>2023-11-07T09:19:05Z</time>
      </trkpt>
      <trkpt lat="45.16575" lon="3.91684">
        <ele>781.69</ele>
        <time>2023-11-07T09:19:06Z</time>
      </trkpt>
      <trkpt lat="45.16559" lon="3.91682">
        <ele>779.29</ele>
        <time>2023-11-07T09:19:22Z</time>
      </trkpt>
      <trkpt lat="45.16549" lon="3.91687">
        <ele>776.88</ele>
        <time>2023-11-07T09:19:35Z</time>
      </trkpt>
      <trkpt lat="45.16543" lon="3.91689">
        <ele>774.48</ele>
        <time>2023-11-07T09:19:45Z</time>
      </trkpt>
      <trkpt lat="45.16537" lon="3.91691">
        <ele>772.08</ele>
        <time>2023-11-07T09:19:56Z</time>
      </trkpt>
      <trkpt lat="45.16527" lon="3.91695">
        <ele>768.71</ele>
        <time>2023-11-07T09:20:09Z</time>
      </trkpt>
      <trkpt lat="45.16523" lon="3.91696">
        <ele>765.83</ele>
        <time>2023-11-07T09:20:18Z</time>
      </trkpt>
      <trkpt lat="45.16512" lon="3.91687">
        <ele>760.54</ele>
        <time>2023-11-07T09:20:33Z</time>
      </trkpt>
      <trkpt lat="45.16505" lon="3.91682">
        <ele>758.62</ele>
        <time>2023-11-07T09:20:42Z</time>
      </trkpt>
      <trkpt lat="45.16494" lon="3.91672">
        <ele>754.29</ele>
        <time>2023-11-07T09:20:57Z</time>
      </trkpt>
      <trkpt lat="45.16488" lon="3.91676">
        <ele>752.37</ele>
        <time>2023-11-07T09:21:09Z</time>
      </trkpt>
      <trkpt lat="45.16486" lon="3.9168">
        <ele>751.89</ele>
        <time>2023-11-07T09:21:13Z</time>
      </trkpt>
      <trkpt lat="45.16485" lon="3.91691">
        <ele>750.45</ele>
        <time>2023-11-07T09:21:23Z</time>
      </trkpt>
      <trkpt lat="45.16485" lon="3.91694">
        <ele>750.93</ele>
        <time>2023-11-07T09:21:25Z</time>
      </trkpt>
      <trkpt lat="45.16486" lon="3.91715">
        <ele>749.97</ele>
        <time>2023-11-07T09:21:42Z</time>
      </trkpt>
      <trkpt lat="45.16485" lon="3.91734">
        <ele>748.04</ele>
        <time>2023-11-07T09:21:58Z</time>
      </trkpt>
      <trkpt lat="45.16486" lon="3.91737">
        <ele>747.56</ele>
        <time>2023-11-07T09:22:01Z</time>
      </trkpt>
      <trkpt lat="45.16489" lon="3.91746">
        <ele>746.6</ele>
        <time>2023-11-07T09:22:07Z</time>
      </trkpt>
      <trkpt lat="45.16492" lon="3.91763">
        <ele>747.08</ele>
        <time>2023-11-07T09:22:19Z</time>
      </trkpt>
      <trkpt lat="45.16494" lon="3.91787">
        <ele>744.2</ele>
        <time>2023-11-07T09:22:35Z</time>
      </trkpt>
      <trkpt lat="45.16494" lon="3.91788">
        <ele>744.2</ele>
        <time>2023-11-07T09:22:36Z</time>
      </trkpt>
      <trkpt lat="45.16498" lon="3.91812">
        <ele>742.76</ele>
        <time>2023-11-07T09:22:52Z</time>
      </trkpt>
      <trkpt lat="45.16503" lon="3.91831">
        <ele>741.79</ele>
        <time>2023-11-07T09:23:05Z</time>
      </trkpt>
      <trkpt lat="45.16509" lon="3.91855">
        <ele>738.91</ele>
        <time>2023-11-07T09:23:22Z</time>
      </trkpt>
      <trkpt lat="45.16513" lon="3.91864">
        <ele>738.43</ele>
        <time>2023-11-07T09:23:30Z</time>
      </trkpt>
      <trkpt lat="45.16512" lon="3.91886">
        <ele>736.51</ele>
        <time>2023-11-07T09:23:47Z</time>
      </trkpt>
      <trkpt lat="45.1651" lon="3.91887">
        <ele>734.1</ele>
        <time>2023-11-07T09:24:01Z</time>
      </trkpt>
      <trkpt lat="45.16505" lon="3.91884">
        <ele>732.18</ele>
        <time>2023-11-07T09:24:16Z</time>
      </trkpt>
      <trkpt lat="45.16495" lon="3.91871">
        <ele>731.7</ele>
        <time>2023-11-07T09:24:29Z</time>
      </trkpt>
      <trkpt lat="45.1649" lon="3.91865">
        <ele>731.7</ele>
        <time>2023-11-07T09:24:34Z</time>
      </trkpt>
      <trkpt lat="45.16482" lon="3.91853">
        <ele>729.78</ele>
        <time>2023-11-07T09:24:48Z</time>
      </trkpt>
      <trkpt lat="45.16479" lon="3.91846">
        <ele>728.82</ele>
        <time>2023-11-07T09:24:52Z</time>
      </trkpt>
      <trkpt lat="45.1646" lon="3.91822">
        <ele>729.3</ele>
        <time>2023-11-07T09:25:11Z</time>
      </trkpt>
      <trkpt lat="45.16438" lon="3.91823">
        <ele>726.41</ele>
        <time>2023-11-07T09:25:29Z</time>
      </trkpt>
      <trkpt lat="45.16434" lon="3.91824">
        <ele>725.93</ele>
        <time>2023-11-07T09:25:32Z</time>
      </trkpt>
      <trkpt lat="45.16426" lon="3.91823">
        <ele>724.01</ele>
        <time>2023-11-07T09:25:40Z</time>
      </trkpt>
      <trkpt lat="45.16417" lon="3.91821">
        <ele>721.13</ele>
        <time>2023-11-07T09:25:49Z</time>
      </trkpt>
      <trkpt lat="45.16415" lon="3.91817">
        <ele>720.16</ele>
        <time>2023-11-07T09:25:52Z</time>
      </trkpt>
      <trkpt lat="45.16408" lon="3.91807">
        <ele>717.76</ele>
        <time>2023-11-07T09:26:01Z</time>
      </trkpt>
      <trkpt lat="45.16392" lon="3.91788">
        <ele>715.36</ele>
        <time>2023-11-07T09:26:18Z</time>
      </trkpt>
      <trkpt lat="45.16367" lon="3.9177">
        <ele>711.51</ele>
        <time>2023-11-07T09:26:39Z</time>
      </trkpt>
      <trkpt lat="45.16349" lon="3.91749">
        <ele>709.11</ele>
        <time>2023-11-07T09:26:57Z</time>
      </trkpt>
      <trkpt lat="45.16327" lon="3.91733">
        <ele>708.15</ele>
        <time>2023-11-07T09:27:16Z</time>
      </trkpt>
      <trkpt lat="45.16315" lon="3.91712">
        <ele>706.23</ele>
        <time>2023-11-07T09:27:32Z</time>
      </trkpt>
      <trkpt lat="45.16312" lon="3.91681">
        <ele>704.3</ele>
        <time>2023-11-07T09:27:50Z</time>
      </trkpt>
      <trkpt lat="45.16317" lon="3.9165">
        <ele>703.34</ele>
        <time>2023-11-07T09:28:07Z</time>
      </trkpt>
      <trkpt lat="45.16322" lon="3.91612">
        <ele>702.38</ele>
        <time>2023-11-07T09:28:28Z</time>
      </trkpt>
      <trkpt lat="45.16324" lon="3.91575">
        <ele>701.42</ele>
        <time>2023-11-07T09:28:47Z</time>
      </trkpt>
      <trkpt lat="45.16326" lon="3.9154">
        <ele>701.9</ele>
        <time>2023-11-07T09:29:06Z</time>
      </trkpt>
      <trkpt lat="45.1633" lon="3.91505">
        <ele>699.5</ele>
        <time>2023-11-07T09:29:25Z</time>
      </trkpt>
      <trkpt lat="45.16333" lon="3.91467">
        <ele>698.05</ele>
        <time>2023-11-07T09:29:45Z</time>
      </trkpt>
      <trkpt lat="45.16333" lon="3.91445">
        <ele>697.09</ele>
        <time>2023-11-07T09:29:57Z</time>
      </trkpt>
      <trkpt lat="45.16336" lon="3.9142">
        <ele>697.09</ele>
        <time>2023-11-07T09:30:12Z</time>
      </trkpt>
      <trkpt lat="45.16336" lon="3.91411">
        <ele>697.57</ele>
        <time>2023-11-07T09:30:17Z</time>
      </trkpt>
      <trkpt lat="45.16335" lon="3.91381">
        <ele>695.17</ele>
        <time>2023-11-07T09:30:34Z</time>
      </trkpt>
      <trkpt lat="45.16331" lon="3.91355">
        <ele>692.77</ele>
        <time>2023-11-07T09:30:49Z</time>
      </trkpt>
      <trkpt lat="45.16308" lon="3.91346">
        <ele>688.44</ele>
        <time>2023-11-07T09:31:07Z</time>
      </trkpt>
      <trkpt lat="45.16283" lon="3.91351">
        <ele>686.04</ele>
        <time>2023-11-07T09:31:27Z</time>
      </trkpt>
      <trkpt lat="45.1628" lon="3.9135">
        <ele>685.56</ele>
        <time>2023-11-07T09:31:30Z</time>
      </trkpt>
      <trkpt lat="45.16262" lon="3.91333">
        <ele>682.19</ele>
        <time>2023-11-07T09:31:48Z</time>
      </trkpt>
      <trkpt lat="45.16258" lon="3.91328">
        <ele>681.71</ele>
        <time>2023-11-07T09:31:59Z</time>
      </trkpt>
      <trkpt lat="45.16255" lon="3.91327">
        <ele>680.75</ele>
        <time>2023-11-07T09:32:12Z</time>
      </trkpt>
      <trkpt lat="45.16255" lon="3.91322">
        <ele>680.75</ele>
        <time>2023-11-07T09:32:24Z</time>
      </trkpt>
      <trkpt lat="45.16255" lon="3.91318">
        <ele>680.75</ele>
        <time>2023-11-07T09:32:34Z</time>
      </trkpt>
      <trkpt lat="45.16256" lon="3.91318">
        <ele>680.75</ele>
        <time>2023-11-07T09:32:35Z</time>
      </trkpt>
      <trkpt lat="45.16261" lon="3.91315">
        <ele>681.23</ele>
        <time>2023-11-07T09:32:41Z</time>
      </trkpt>
      <trkpt lat="45.16269" lon="3.91311">
        <ele>681.71</ele>
        <time>2023-11-07T09:32:50Z</time>
      </trkpt>
      <trkpt lat="45.16271" lon="3.91311">
        <ele>681.71</ele>
        <time>2023-11-07T09:32:52Z</time>
      </trkpt>
      <trkpt lat="45.16283" lon="3.91305">
        <ele>681.71</ele>
        <time>2023-11-07T09:33:10Z</time>
      </trkpt>
      <trkpt lat="45.16291" lon="3.91298">
        <ele>681.23</ele>
        <time>2023-11-07T09:33:23Z</time>
      </trkpt>
      <trkpt lat="45.16295" lon="3.91291">
        <ele>681.23</ele>
        <time>2023-11-07T09:33:36Z</time>
      </trkpt>
      <trkpt lat="45.16295" lon="3.9129">
        <ele>681.71</ele>
        <time>2023-11-07T09:33:50Z</time>
      </trkpt>
      <trkpt lat="45.16294" lon="3.9129">
        <ele>682.19</ele>
        <time>2023-11-07T09:34:13Z</time>
      </trkpt>
      <trkpt lat="45.16293" lon="3.91293">
        <ele>682.19</ele>
        <time>2023-11-07T09:34:24Z</time>
      </trkpt>
      <trkpt lat="45.16293" lon="3.9129">
        <ele>682.67</ele>
        <time>2023-11-07T09:34:40Z</time>
      </trkpt>
      <trkpt lat="45.16292" lon="3.91289">
        <ele>683.15</ele>
        <time>2023-11-07T09:34:52Z</time>
      </trkpt>
      <trkpt lat="45.16291" lon="3.91291">
        <ele>683.63</ele>
        <time>2023-11-07T09:35:03Z</time>
      </trkpt>
      <trkpt lat="45.16292" lon="3.91293">
        <ele>683.15</ele>
        <time>2023-11-07T09:35:10Z</time>
      </trkpt>
      <trkpt lat="45.16287" lon="3.91304">
        <ele>683.15</ele>
        <time>2023-11-07T09:35:19Z</time>
      </trkpt>
      <trkpt lat="45.16284" lon="3.91307">
        <ele>682.67</ele>
        <time>2023-11-07T09:35:23Z</time>
      </trkpt>
      <trkpt lat="45.16279" lon="3.91308">
        <ele>682.19</ele>
        <time>2023-11-07T09:35:27Z</time>
      </trkpt>
      <trkpt lat="45.1626" lon="3.91314">
        <ele>680.75</ele>
        <time>2023-11-07T09:35:46Z</time>
      </trkpt>
      <trkpt lat="45.16253" lon="3.91319">
        <ele>679.79</ele>
        <time>2023-11-07T09:35:57Z</time>
      </trkpt>
      <trkpt lat="45.16249" lon="3.91314">
        <ele>680.27</ele>
        <time>2023-11-07T09:36:08Z</time>
      </trkpt>
      <trkpt lat="45.16243" lon="3.91303">
        <ele>679.31</ele>
        <time>2023-11-07T09:36:18Z</time>
      </trkpt>
      <trkpt lat="45.16223" lon="3.91302">
        <ele>676.42</ele>
        <time>2023-11-07T09:36:36Z</time>
      </trkpt>
      <trkpt lat="45.16202" lon="3.91309">
        <ele>673.06</ele>
        <time>2023-11-07T09:36:53Z</time>
      </trkpt>
      <trkpt lat="45.16179" lon="3.91322">
        <ele>671.62</ele>
        <time>2023-11-07T09:37:13Z</time>
      </trkpt>
      <trkpt lat="45.16151" lon="3.91337">
        <ele>669.7</ele>
        <time>2023-11-07T09:37:36Z</time>
      </trkpt>
      <trkpt lat="45.1613" lon="3.9136">
        <ele>666.33</ele>
        <time>2023-11-07T09:37:57Z</time>
      </trkpt>
      <trkpt lat="45.16115" lon="3.91387">
        <ele>663.45</ele>
        <time>2023-11-07T09:38:16Z</time>
      </trkpt>
      <trkpt lat="45.16097" lon="3.91391">
        <ele>660.08</ele>
        <time>2023-11-07T09:38:33Z</time>
      </trkpt>
      <trkpt lat="45.16085" lon="3.91358">
        <ele>657.68</ele>
        <time>2023-11-07T09:38:54Z</time>
      </trkpt>
      <trkpt lat="45.16075" lon="3.9132">
        <ele>654.31</ele>
        <time>2023-11-07T09:39:15Z</time>
      </trkpt>
      <trkpt lat="45.1607" lon="3.91284">
        <ele>651.43</ele>
        <time>2023-11-07T09:39:34Z</time>
      </trkpt>
      <trkpt lat="45.16063" lon="3.91249">
        <ele>650.47</ele>
        <time>2023-11-07T09:39:54Z</time>
      </trkpt>
      <trkpt lat="45.16055" lon="3.91225">
        <ele>650.47</ele>
        <time>2023-11-07T09:40:13Z</time>
      </trkpt>
      <trkpt lat="45.16052" lon="3.91222">
        <ele>649.51</ele>
        <time>2023-11-07T09:40:25Z</time>
      </trkpt>
      <trkpt lat="45.16041" lon="3.91218">
        <ele>647.59</ele>
        <time>2023-11-07T09:40:38Z</time>
      </trkpt>
      <trkpt lat="45.1603" lon="3.91215">
        <ele>646.14</ele>
        <time>2023-11-07T09:40:53Z</time>
      </trkpt>
      <trkpt lat="45.16025" lon="3.91215">
        <ele>645.66</ele>
        <time>2023-11-07T09:41:00Z</time>
      </trkpt>
      <trkpt lat="45.16006" lon="3.91218">
        <ele>644.22</ele>
        <time>2023-11-07T09:41:17Z</time>
      </trkpt>
      <trkpt lat="45.15986" lon="3.9122">
        <ele>641.82</ele>
        <time>2023-11-07T09:41:35Z</time>
      </trkpt>
      <trkpt lat="45.15969" lon="3.91214">
        <ele>638.45</ele>
        <time>2023-11-07T09:41:51Z</time>
      </trkpt>
      <trkpt lat="45.15948" lon="3.91205">
        <ele>635.57</ele>
        <time>2023-11-07T09:42:09Z</time>
      </trkpt>
      <trkpt lat="45.1593" lon="3.91195">
        <ele>633.65</ele>
        <time>2023-11-07T09:42:25Z</time>
      </trkpt>
      <trkpt lat="45.15927" lon="3.91193">
        <ele>633.17</ele>
        <time>2023-11-07T09:42:28Z</time>
      </trkpt>
      <trkpt lat="45.15918" lon="3.91177">
        <ele>630.76</ele>
        <time>2023-11-07T09:42:41Z</time>
      </trkpt>
      <trkpt lat="45.15917" lon="3.91176">
        <ele>630.76</ele>
        <time>2023-11-07T09:42:42Z</time>
      </trkpt>
      <trkpt lat="45.15913" lon="3.91161">
        <ele>629.8</ele>
        <time>2023-11-07T09:42:51Z</time>
      </trkpt>
      <trkpt lat="45.15911" lon="3.91144">
        <ele>628.36</ele>
        <time>2023-11-07T09:43:01Z</time>
      </trkpt>
      <trkpt lat="45.1591" lon="3.91135">
        <ele>627.88</ele>
        <time>2023-11-07T09:43:06Z</time>
      </trkpt>
      <trkpt lat="45.15909" lon="3.91118">
        <ele>626.44</ele>
        <time>2023-11-07T09:43:16Z</time>
      </trkpt>
      <trkpt lat="45.15908" lon="3.91105">
        <ele>624.99</ele>
        <time>2023-11-07T09:43:23Z</time>
      </trkpt>
      <trkpt lat="45.15909" lon="3.91088">
        <ele>623.55</ele>
        <time>2023-11-07T09:43:32Z</time>
      </trkpt>
      <trkpt lat="45.15913" lon="3.91051">
        <ele>621.63</ele>
        <time>2023-11-07T09:43:52Z</time>
      </trkpt>
      <trkpt lat="45.15919" lon="3.91026">
        <ele>620.19</ele>
        <time>2023-11-07T09:44:06Z</time>
      </trkpt>
      <trkpt lat="45.15906" lon="3.91025">
        <ele>617.3</ele>
        <time>2023-11-07T09:44:19Z</time>
      </trkpt>
      <trkpt lat="45.15888" lon="3.91053">
        <ele>615.86</ele>
        <time>2023-11-07T09:44:39Z</time>
      </trkpt>
      <trkpt lat="45.15871" lon="3.91077">
        <ele>613.94</ele>
        <time>2023-11-07T09:44:56Z</time>
      </trkpt>
      <trkpt lat="45.15864" lon="3.91088">
        <ele>613.46</ele>
        <time>2023-11-07T09:45:04Z</time>
      </trkpt>
      <trkpt lat="45.15858" lon="3.91088">
        <ele>612.5</ele>
        <time>2023-11-07T09:45:09Z</time>
      </trkpt>
      <trkpt lat="45.15856" lon="3.91087">
        <ele>612.02</ele>
        <time>2023-11-07T09:45:11Z</time>
      </trkpt>
      <trkpt lat="45.15854" lon="3.91081">
        <ele>610.57</ele>
        <time>2023-11-07T09:45:15Z</time>
      </trkpt>
      <trkpt lat="45.15854" lon="3.9105">
        <ele>609.13</ele>
        <time>2023-11-07T09:45:31Z</time>
      </trkpt>
      <trkpt lat="45.15848" lon="3.91018">
        <ele>605.77</ele>
        <time>2023-11-07T09:45:48Z</time>
      </trkpt>
      <trkpt lat="45.15846" lon="3.91003">
        <ele>603.36</ele>
        <time>2023-11-07T09:45:57Z</time>
      </trkpt>
      <trkpt lat="45.15844" lon="3.90995">
        <ele>602.88</ele>
        <time>2023-11-07T09:46:01Z</time>
      </trkpt>
      <trkpt lat="45.15841" lon="3.90968">
        <ele>600.96</ele>
        <time>2023-11-07T09:46:15Z</time>
      </trkpt>
      <trkpt lat="45.15835" lon="3.9094">
        <ele>599.04</ele>
        <time>2023-11-07T09:46:30Z</time>
      </trkpt>
      <trkpt lat="45.15819" lon="3.90925">
        <ele>598.08</ele>
        <time>2023-11-07T09:46:44Z</time>
      </trkpt>
      <trkpt lat="45.15799" lon="3.90913">
        <ele>593.75</ele>
        <time>2023-11-07T09:47:00Z</time>
      </trkpt>
      <trkpt lat="45.15795" lon="3.90911">
        <ele>592.79</ele>
        <time>2023-11-07T09:47:11Z</time>
      </trkpt>
      <trkpt lat="45.15796" lon="3.9091">
        <ele>592.31</ele>
        <time>2023-11-07T09:47:34Z</time>
      </trkpt>
      <trkpt lat="45.15797" lon="3.90906">
        <ele>591.35</ele>
        <time>2023-11-07T09:47:37Z</time>
      </trkpt>
      <trkpt lat="45.15806" lon="3.90885">
        <ele>588.46</ele>
        <time>2023-11-07T09:47:52Z</time>
      </trkpt>
      <trkpt lat="45.1582" lon="3.90854">
        <ele>586.06</ele>
        <time>2023-11-07T09:48:11Z</time>
      </trkpt>
      <trkpt lat="45.15834" lon="3.90816">
        <ele>585.58</ele>
        <time>2023-11-07T09:48:33Z</time>
      </trkpt>
      <trkpt lat="45.15845" lon="3.90789">
        <ele>584.14</ele>
        <time>2023-11-07T09:48:49Z</time>
      </trkpt>
      <trkpt lat="45.15858" lon="3.90764">
        <ele>584.62</ele>
        <time>2023-11-07T09:49:05Z</time>
      </trkpt>
      <trkpt lat="45.15871" lon="3.90738">
        <ele>583.66</ele>
        <time>2023-11-07T09:49:21Z</time>
      </trkpt>
      <trkpt lat="45.1588" lon="3.90709">
        <ele>583.18</ele>
        <time>2023-11-07T09:49:37Z</time>
      </trkpt>
      <trkpt lat="45.15881" lon="3.90701">
        <ele>583.18</ele>
        <time>2023-11-07T09:49:41Z</time>
      </trkpt>
      <trkpt lat="45.15882" lon="3.90686">
        <ele>583.18</ele>
        <time>2023-11-07T09:49:49Z</time>
      </trkpt>
      <trkpt lat="45.15879" lon="3.90655">
        <ele>581.73</ele>
        <time>2023-11-07T09:50:05Z</time>
      </trkpt>
      <trkpt lat="45.15874" lon="3.90619">
        <ele>581.25</ele>
        <time>2023-11-07T09:50:23Z</time>
      </trkpt>
      <trkpt lat="45.1587" lon="3.90577">
        <ele>580.29</ele>
        <time>2023-11-07T09:50:44Z</time>
      </trkpt>
      <trkpt lat="45.15869" lon="3.90542">
        <ele>581.25</ele>
        <time>2023-11-07T09:51:02Z</time>
      </trkpt>
      <trkpt lat="45.15871" lon="3.905">
        <ele>582.22</ele>
        <time>2023-11-07T09:51:23Z</time>
      </trkpt>
      <trkpt lat="45.15877" lon="3.90483">
        <ele>582.22</ele>
        <time>2023-11-07T09:51:35Z</time>
      </trkpt>
      <trkpt lat="45.15889" lon="3.90468">
        <ele>583.18</ele>
        <time>2023-11-07T09:51:50Z</time>
      </trkpt>
      <trkpt lat="45.15906" lon="3.90442">
        <ele>584.62</ele>
        <time>2023-11-07T09:52:08Z</time>
      </trkpt>
      <trkpt lat="45.15927" lon="3.90412">
        <ele>582.7</ele>
        <time>2023-11-07T09:52:29Z</time>
      </trkpt>
      <trkpt lat="45.15948" lon="3.9038">
        <ele>583.66</ele>
        <time>2023-11-07T09:52:50Z</time>
      </trkpt>
      <trkpt lat="45.1595" lon="3.90377">
        <ele>583.66</ele>
        <time>2023-11-07T09:52:53Z</time>
      </trkpt>
      <trkpt lat="45.15953" lon="3.90364">
        <ele>583.66</ele>
        <time>2023-11-07T09:53:01Z</time>
      </trkpt>
      <trkpt lat="45.15952" lon="3.90361">
        <ele>583.18</ele>
        <time>2023-11-07T09:53:03Z</time>
      </trkpt>
      <trkpt lat="45.15933" lon="3.90361">
        <ele>583.18</ele>
        <time>2023-11-07T09:53:19Z</time>
      </trkpt>
      <trkpt lat="45.15906" lon="3.90367">
        <ele>583.18</ele>
        <time>2023-11-07T09:53:39Z</time>
      </trkpt>
      <trkpt lat="45.15882" lon="3.90372">
        <ele>584.62</ele>
        <time>2023-11-07T09:53:57Z</time>
      </trkpt>
      <trkpt lat="45.15858" lon="3.90377">
        <ele>586.06</ele>
        <time>2023-11-07T09:54:15Z</time>
      </trkpt>
      <trkpt lat="45.15831" lon="3.90379">
        <ele>586.54</ele>
        <time>2023-11-07T09:54:35Z</time>
      </trkpt>
      <trkpt lat="45.15807" lon="3.90377">
        <ele>586.54</ele>
        <time>2023-11-07T09:54:53Z</time>
      </trkpt>
      <trkpt lat="45.15781" lon="3.90377">
        <ele>586.54</ele>
        <time>2023-11-07T09:55:12Z</time>
      </trkpt>
      <trkpt lat="45.15753" lon="3.90378">
        <ele>587.5</ele>
        <time>2023-11-07T09:55:32Z</time>
      </trkpt>
      <trkpt lat="45.15725" lon="3.90375">
        <ele>587.02</ele>
        <time>2023-11-07T09:55:52Z</time>
      </trkpt>
      <trkpt lat="45.15697" lon="3.90369">
        <ele>586.06</ele>
        <time>2023-11-07T09:56:12Z</time>
      </trkpt>
      <trkpt lat="45.15667" lon="3.90371">
        <ele>586.54</ele>
        <time>2023-11-07T09:56:34Z</time>
      </trkpt>
      <trkpt lat="45.1564" lon="3.90377">
        <ele>586.06</ele>
        <time>2023-11-07T09:56:53Z</time>
      </trkpt>
      <trkpt lat="45.15616" lon="3.90383">
        <ele>586.06</ele>
        <time>2023-11-07T09:57:11Z</time>
      </trkpt>
      <trkpt lat="45.15589" lon="3.90392">
        <ele>586.06</ele>
        <time>2023-11-07T09:57:31Z</time>
      </trkpt>
      <trkpt lat="45.15564" lon="3.90398">
        <ele>587.02</ele>
        <time>2023-11-07T09:57:49Z</time>
      </trkpt>
      <trkpt lat="45.15539" lon="3.90407">
        <ele>584.62</ele>
        <time>2023-11-07T09:58:08Z</time>
      </trkpt>
      <trkpt lat="45.15509" lon="3.90414">
        <ele>584.14</ele>
        <time>2023-11-07T09:58:30Z</time>
      </trkpt>
      <trkpt lat="45.15479" lon="3.9041">
        <ele>581.25</ele>
        <time>2023-11-07T09:58:52Z</time>
      </trkpt>
      <trkpt lat="45.15453" lon="3.90394">
        <ele>580.29</ele>
        <time>2023-11-07T09:59:13Z</time>
      </trkpt>
      <trkpt lat="45.15427" lon="3.90394">
        <ele>580.29</ele>
        <time>2023-11-07T09:59:31Z</time>
      </trkpt>
      <trkpt lat="45.1541" lon="3.90394">
        <ele>581.25</ele>
        <time>2023-11-07T09:59:44Z</time>
      </trkpt>
      <trkpt lat="45.15382" lon="3.90394">
        <ele>581.73</ele>
        <time>2023-11-07T10:00:04Z</time>
      </trkpt>
      <trkpt lat="45.1536" lon="3.90397">
        <ele>581.25</ele>
        <time>2023-11-07T10:00:20Z</time>
      </trkpt>
      <trkpt lat="45.15333" lon="3.90395">
        <ele>581.25</ele>
        <time>2023-11-07T10:00:39Z</time>
      </trkpt>
      <trkpt lat="45.15309" lon="3.90391">
        <ele>581.73</ele>
        <time>2023-11-07T10:00:57Z</time>
      </trkpt>
      <trkpt lat="45.15288" lon="3.90398">
        <ele>583.66</ele>
        <time>2023-11-07T10:01:13Z</time>
      </trkpt>
      <trkpt lat="45.15262" lon="3.90412">
        <ele>584.14</ele>
        <time>2023-11-07T10:01:33Z</time>
      </trkpt>
      <trkpt lat="45.15241" lon="3.90427">
        <ele>585.1</ele>
        <time>2023-11-07T10:01:50Z</time>
      </trkpt>
      <trkpt lat="45.1522" lon="3.90441">
        <ele>587.02</ele>
        <time>2023-11-07T10:02:08Z</time>
      </trkpt>
      <trkpt lat="45.15206" lon="3.9044">
        <ele>587.98</ele>
        <time>2023-11-07T10:02:19Z</time>
      </trkpt>
      <trkpt lat="45.15188" lon="3.90439">
        <ele>589.43</ele>
        <time>2023-11-07T10:02:33Z</time>
      </trkpt>
      <trkpt lat="45.1517" lon="3.90435">
        <ele>589.43</ele>
        <time>2023-11-07T10:02:46Z</time>
      </trkpt>
      <trkpt lat="45.15155" lon="3.90431">
        <ele>590.39</ele>
        <time>2023-11-07T10:03:01Z</time>
      </trkpt>
      <trkpt lat="45.15155" lon="3.90427">
        <ele>589.91</ele>
        <time>2023-11-07T10:03:14Z</time>
      </trkpt>
      <trkpt lat="45.15154" lon="3.90417">
        <ele>590.39</ele>
        <time>2023-11-07T10:03:21Z</time>
      </trkpt>
      <trkpt lat="45.15151" lon="3.90394">
        <ele>590.87</ele>
        <time>2023-11-07T10:03:35Z</time>
      </trkpt>
      <trkpt lat="45.15145" lon="3.90378">
        <ele>591.83</ele>
        <time>2023-11-07T10:03:46Z</time>
      </trkpt>
      <trkpt lat="45.15145" lon="3.90375">
        <ele>591.83</ele>
        <time>2023-11-07T10:03:48Z</time>
      </trkpt>
      <trkpt lat="45.15148" lon="3.90369">
        <ele>591.35</ele>
        <time>2023-11-07T10:03:53Z</time>
      </trkpt>
      <trkpt lat="45.15148" lon="3.90367">
        <ele>590.87</ele>
        <time>2023-11-07T10:04:07Z</time>
      </trkpt>
      <trkpt lat="45.15148" lon="3.90366">
        <ele>590.87</ele>
        <time>2023-11-07T10:04:30Z</time>
      </trkpt>
      <trkpt lat="45.15148" lon="3.90367">
        <ele>589.91</ele>
        <time>2023-11-07T10:05:06Z</time>
      </trkpt>
      <trkpt lat="45.15149" lon="3.90368">
        <ele>588.95</ele>
        <time>2023-11-07T10:05:45Z</time>
      </trkpt>
      <trkpt lat="45.15149" lon="3.90368">
        <ele>588.95</ele>
        <time>2023-11-07T10:06:16Z</time>
      </trkpt>
      <trkpt lat="45.15148" lon="3.90368">
        <ele>590.39</ele>
        <time>2023-11-07T10:06:59Z</time>
      </trkpt>
      <trkpt lat="45.15148" lon="3.90368">
        <ele>589.91</ele>
        <time>2023-11-07T10:07:35Z</time>
      </trkpt>
      <trkpt lat="45.15148" lon="3.90367">
        <ele>589.43</ele>
        <time>2023-11-07T10:08:12Z</time>
      </trkpt>
      <trkpt lat="45.15149" lon="3.90367">
        <ele>589.43</ele>
        <time>2023-11-07T10:08:38Z</time>
      </trkpt>
      <trkpt lat="45.15149" lon="3.90367">
        <ele>589.43</ele>
        <time>2023-11-07T10:09:12Z</time>
      </trkpt>
      <trkpt lat="45.15148" lon="3.90367">
        <ele>589.43</ele>
        <time>2023-11-07T10:09:42Z</time>
      </trkpt>
      <trkpt lat="45.15148" lon="3.90367">
        <ele>589.43</ele>
        <time>2023-11-07T10:10:08Z</time>
      </trkpt>
      <trkpt lat="45.15149" lon="3.90367">
        <ele>589.43</ele>
        <time>2023-11-07T10:10:29Z</time>
      </trkpt>
      <trkpt lat="45.15148" lon="3.90366">
        <ele>589.91</ele>
        <time>2023-11-07T10:10:49Z</time>
      </trkpt>
      <trkpt lat="45.15148" lon="3.90365">
        <ele>590.39</ele>
        <time>2023-11-07T10:11:12Z</time>
      </trkpt>
      <trkpt lat="45.15148" lon="3.90365">
        <ele>589.43</ele>
        <time>2023-11-07T10:11:40Z</time>
      </trkpt>
      <trkpt lat="45.15148" lon="3.90365">
        <ele>589.91</ele>
        <time>2023-11-07T10:12:05Z</time>
      </trkpt>
      <trkpt lat="45.15148" lon="3.90364">
        <ele>590.39</ele>
        <time>2023-11-07T10:12:38Z</time>
      </trkpt>
      <trkpt lat="45.15149" lon="3.90364">
        <ele>589.91</ele>
        <time>2023-11-07T10:12:59Z</time>
      </trkpt>
      <trkpt lat="45.15149" lon="3.90363">
        <ele>590.39</ele>
        <time>2023-11-07T10:13:31Z</time>
      </trkpt>
      <trkpt lat="45.15148" lon="3.90364">
        <ele>590.39</ele>
        <time>2023-11-07T10:13:48Z</time>
      </trkpt>
      <trkpt lat="45.15149" lon="3.90367">
        <ele>590.39</ele>
        <time>2023-11-07T10:14:02Z</time>
      </trkpt>
      <trkpt lat="45.15149" lon="3.90367">
        <ele>590.39</ele>
        <time>2023-11-07T10:14:18Z</time>
      </trkpt>
      <trkpt lat="45.15149" lon="3.90368">
        <ele>590.39</ele>
        <time>2023-11-07T10:14:38Z</time>
      </trkpt>
      <trkpt lat="45.15149" lon="3.90368">
        <ele>590.39</ele>
        <time>2023-11-07T10:14:52Z</time>
      </trkpt>
      <trkpt lat="45.1515" lon="3.90367">
        <ele>590.39</ele>
        <time>2023-11-07T10:15:08Z</time>
      </trkpt>
      <trkpt lat="45.15149" lon="3.90367">
        <ele>588.95</ele>
        <time>2023-11-07T10:15:36Z</time>
      </trkpt>
      <trkpt lat="45.1515" lon="3.90367">
        <ele>588.95</ele>
        <time>2023-11-07T10:16:07Z</time>
      </trkpt>
      <trkpt lat="45.15149" lon="3.90369">
        <ele>588.46</ele>
        <time>2023-11-07T10:16:37Z</time>
      </trkpt>
      <trkpt lat="45.15148" lon="3.90369">
        <ele>588.95</ele>
        <time>2023-11-07T10:17:10Z</time>
      </trkpt>
      <trkpt lat="45.15148" lon="3.90369">
        <ele>589.43</ele>
        <time>2023-11-07T10:17:32Z</time>
      </trkpt>
      <trkpt lat="45.15148" lon="3.90369">
        <ele>589.43</ele>
        <time>2023-11-07T10:17:51Z</time>
      </trkpt>
      <trkpt lat="45.15148" lon="3.90368">
        <ele>589.43</ele>
        <time>2023-11-07T10:18:13Z</time>
      </trkpt>
      <trkpt lat="45.15149" lon="3.90368">
        <ele>588.95</ele>
        <time>2023-11-07T10:18:26Z</time>
      </trkpt>
      <trkpt lat="45.15148" lon="3.90367">
        <ele>588.95</ele>
        <time>2023-11-07T10:18:39Z</time>
      </trkpt>
      <trkpt lat="45.15148" lon="3.90368">
        <ele>588.95</ele>
        <time>2023-11-07T10:18:55Z</time>
      </trkpt>
      <trkpt lat="45.15147" lon="3.90368">
        <ele>588.95</ele>
        <time>2023-11-07T10:19:10Z</time>
      </trkpt>
      <trkpt lat="45.15143" lon="3.90366">
        <ele>588.95</ele>
        <time>2023-11-07T10:19:19Z</time>
      </trkpt>
      <trkpt lat="45.15141" lon="3.90365">
        <ele>588.95</ele>
        <time>2023-11-07T10:19:21Z</time>
      </trkpt>
      <trkpt lat="45.15126" lon="3.90348">
        <ele>590.87</ele>
        <time>2023-11-07T10:19:38Z</time>
      </trkpt>
      <trkpt lat="45.1511" lon="3.90329">
        <ele>591.35</ele>
        <time>2023-11-07T10:19:55Z</time>
      </trkpt>
      <trkpt lat="45.15098" lon="3.90298">
        <ele>592.79</ele>
        <time>2023-11-07T10:20:13Z</time>
      </trkpt>
      <trkpt lat="45.15086" lon="3.90266">
        <ele>593.75</ele>
        <time>2023-11-07T10:20:32Z</time>
      </trkpt>
      <trkpt lat="45.15071" lon="3.9023">
        <ele>595.67</ele>
        <time>2023-11-07T10:20:53Z</time>
      </trkpt>
      <trkpt lat="45.15058" lon="3.90193">
        <ele>596.15</ele>
        <time>2023-11-07T10:21:13Z</time>
      </trkpt>
      <trkpt lat="45.15045" lon="3.90161">
        <ele>596.64</ele>
        <time>2023-11-07T10:21:31Z</time>
      </trkpt>
      <trkpt lat="45.1503" lon="3.90119">
        <ele>597.12</ele>
        <time>2023-11-07T10:21:54Z</time>
      </trkpt>
      <trkpt lat="45.15017" lon="3.9009">
        <ele>598.08</ele>
        <time>2023-11-07T10:22:12Z</time>
      </trkpt>
      <trkpt lat="45.15003" lon="3.90064">
        <ele>599.04</ele>
        <time>2023-11-07T10:22:30Z</time>
      </trkpt>
      <trkpt lat="45.1499" lon="3.9004">
        <ele>601.44</ele>
        <time>2023-11-07T10:22:46Z</time>
      </trkpt>
      <trkpt lat="45.14978" lon="3.90013">
        <ele>602.88</ele>
        <time>2023-11-07T10:23:03Z</time>
      </trkpt>
      <trkpt lat="45.14971" lon="3.89987">
        <ele>604.33</ele>
        <time>2023-11-07T10:23:18Z</time>
      </trkpt>
      <trkpt lat="45.14967" lon="3.89953">
        <ele>604.33</ele>
        <time>2023-11-07T10:23:37Z</time>
      </trkpt>
      <trkpt lat="45.14974" lon="3.89922">
        <ele>605.77</ele>
        <time>2023-11-07T10:23:55Z</time>
      </trkpt>
      <trkpt lat="45.1498" lon="3.89893">
        <ele>607.21</ele>
        <time>2023-11-07T10:24:11Z</time>
      </trkpt>
      <trkpt lat="45.14989" lon="3.89859">
        <ele>608.17</ele>
        <time>2023-11-07T10:24:29Z</time>
      </trkpt>
      <trkpt lat="45.14996" lon="3.89824">
        <ele>608.65</ele>
        <time>2023-11-07T10:24:48Z</time>
      </trkpt>
      <trkpt lat="45.15003" lon="3.89791">
        <ele>609.13</ele>
        <time>2023-11-07T10:25:06Z</time>
      </trkpt>
      <trkpt lat="45.1501" lon="3.89767">
        <ele>610.09</ele>
        <time>2023-11-07T10:25:22Z</time>
      </trkpt>
      <trkpt lat="45.15009" lon="3.8976">
        <ele>611.06</ele>
        <time>2023-11-07T10:25:28Z</time>
      </trkpt>
      <trkpt lat="45.1501" lon="3.89749">
        <ele>612.02</ele>
        <time>2023-11-07T10:25:36Z</time>
      </trkpt>
      <trkpt lat="45.1501" lon="3.89742">
        <ele>612.02</ele>
        <time>2023-11-07T10:25:40Z</time>
      </trkpt>
      <trkpt lat="45.1501" lon="3.89712">
        <ele>613.94</ele>
        <time>2023-11-07T10:25:57Z</time>
      </trkpt>
      <trkpt lat="45.15009" lon="3.89705">
        <ele>613.94</ele>
        <time>2023-11-07T10:26:01Z</time>
      </trkpt>
      <trkpt lat="45.15005" lon="3.89677">
        <ele>614.42</ele>
        <time>2023-11-07T10:26:18Z</time>
      </trkpt>
      <trkpt lat="45.15001" lon="3.89649">
        <ele>615.38</ele>
        <time>2023-11-07T10:26:35Z</time>
      </trkpt>
      <trkpt lat="45.14998" lon="3.89636">
        <ele>615.38</ele>
        <time>2023-11-07T10:26:43Z</time>
      </trkpt>
      <trkpt lat="45.14996" lon="3.89604">
        <ele>615.86</ele>
        <time>2023-11-07T10:27:01Z</time>
      </trkpt>
      <trkpt lat="45.14993" lon="3.89575">
        <ele>617.3</ele>
        <time>2023-11-07T10:27:17Z</time>
      </trkpt>
      <trkpt lat="45.14988" lon="3.89539">
        <ele>617.3</ele>
        <time>2023-11-07T10:27:37Z</time>
      </trkpt>
      <trkpt lat="45.14983" lon="3.8951">
        <ele>618.26</ele>
        <time>2023-11-07T10:27:55Z</time>
      </trkpt>
      <trkpt lat="45.14978" lon="3.89485">
        <ele>618.75</ele>
        <time>2023-11-07T10:28:11Z</time>
      </trkpt>
      <trkpt lat="45.14976" lon="3.89481">
        <ele>619.23</ele>
        <time>2023-11-07T10:28:23Z</time>
      </trkpt>
      <trkpt lat="45.14974" lon="3.89481">
        <ele>619.71</ele>
        <time>2023-11-07T10:28:26Z</time>
      </trkpt>
      <trkpt lat="45.14958" lon="3.89488">
        <ele>621.15</ele>
        <time>2023-11-07T10:28:41Z</time>
      </trkpt>
      <trkpt lat="45.14938" lon="3.89499">
        <ele>621.63</ele>
        <time>2023-11-07T10:28:58Z</time>
      </trkpt>
      <trkpt lat="45.1492" lon="3.89508">
        <ele>621.15</ele>
        <time>2023-11-07T10:29:15Z</time>
      </trkpt>
      <trkpt lat="45.14919" lon="3.89508">
        <ele>620.67</ele>
        <time>2023-11-07T10:29:26Z</time>
      </trkpt>
      <trkpt lat="45.14919" lon="3.89508">
        <ele>620.67</ele>
        <time>2023-11-07T10:29:40Z</time>
      </trkpt>
      <trkpt lat="45.14919" lon="3.89508">
        <ele>620.67</ele>
        <time>2023-11-07T10:29:53Z</time>
      </trkpt>
      <trkpt lat="45.14919" lon="3.89508">
        <ele>620.19</ele>
        <time>2023-11-07T10:30:17Z</time>
      </trkpt>
      <trkpt lat="45.14919" lon="3.89508">
        <ele>620.19</ele>
        <time>2023-11-07T10:30:46Z</time>
      </trkpt>
      <trkpt lat="45.14919" lon="3.89508">
        <ele>620.67</ele>
        <time>2023-11-07T10:31:09Z</time>
      </trkpt>
      <trkpt lat="45.14916" lon="3.89509">
        <ele>620.19</ele>
        <time>2023-11-07T10:31:28Z</time>
      </trkpt>
      <trkpt lat="45.14893" lon="3.89516">
        <ele>621.15</ele>
        <time>2023-11-07T10:31:46Z</time>
      </trkpt>
      <trkpt lat="45.14867" lon="3.89522">
        <ele>620.67</ele>
        <time>2023-11-07T10:32:05Z</time>
      </trkpt>
      <trkpt lat="45.14841" lon="3.89539">
        <ele>622.11</ele>
        <time>2023-11-07T10:32:26Z</time>
      </trkpt>
      <trkpt lat="45.14817" lon="3.89562">
        <ele>623.07</ele>
        <time>2023-11-07T10:32:47Z</time>
      </trkpt>
      <trkpt lat="45.14793" lon="3.89576">
        <ele>624.51</ele>
        <time>2023-11-07T10:33:06Z</time>
      </trkpt>
      <trkpt lat="45.14767" lon="3.89585">
        <ele>625.96</ele>
        <time>2023-11-07T10:33:26Z</time>
      </trkpt>
      <trkpt lat="45.14741" lon="3.8959">
        <ele>627.88</ele>
        <time>2023-11-07T10:33:45Z</time>
      </trkpt>
      <trkpt lat="45.14714" lon="3.89591">
        <ele>628.84</ele>
        <time>2023-11-07T10:34:04Z</time>
      </trkpt>
      <trkpt lat="45.14694" lon="3.89588">
        <ele>627.88</ele>
        <time>2023-11-07T10:34:20Z</time>
      </trkpt>
      <trkpt lat="45.14686" lon="3.8959">
        <ele>627.88</ele>
        <time>2023-11-07T10:34:34Z</time>
      </trkpt>
      <trkpt lat="45.14669" lon="3.89593">
        <ele>627.88</ele>
        <time>2023-11-07T10:34:48Z</time>
      </trkpt>
      <trkpt lat="45.14644" lon="3.89599">
        <ele>626.44</ele>
        <time>2023-11-07T10:35:06Z</time>
      </trkpt>
      <trkpt lat="45.14611" lon="3.89606">
        <ele>625.96</ele>
        <time>2023-11-07T10:35:28Z</time>
      </trkpt>
      <trkpt lat="45.14579" lon="3.89613">
        <ele>625.96</ele>
        <time>2023-11-07T10:35:50Z</time>
      </trkpt>
      <trkpt lat="45.14545" lon="3.89619">
        <ele>625.47</ele>
        <time>2023-11-07T10:36:14Z</time>
      </trkpt>
      <trkpt lat="45.14513" lon="3.89628">
        <ele>624.99</ele>
        <time>2023-11-07T10:36:36Z</time>
      </trkpt>
      <trkpt lat="45.14485" lon="3.89639">
        <ele>625.47</ele>
        <time>2023-11-07T10:36:56Z</time>
      </trkpt>
      <trkpt lat="45.14459" lon="3.89644">
        <ele>625.96</ele>
        <time>2023-11-07T10:37:15Z</time>
      </trkpt>
      <trkpt lat="45.14431" lon="3.89638">
        <ele>626.92</ele>
        <time>2023-11-07T10:37:34Z</time>
      </trkpt>
      <trkpt lat="45.14411" lon="3.89651">
        <ele>627.4</ele>
        <time>2023-11-07T10:37:51Z</time>
      </trkpt>
      <trkpt lat="45.1439" lon="3.89673">
        <ele>628.36</ele>
        <time>2023-11-07T10:38:09Z</time>
      </trkpt>
      <trkpt lat="45.14368" lon="3.89701">
        <ele>627.88</ele>
        <time>2023-11-07T10:38:30Z</time>
      </trkpt>
      <trkpt lat="45.14347" lon="3.89724">
        <ele>627.88</ele>
        <time>2023-11-07T10:38:49Z</time>
      </trkpt>
      <trkpt lat="45.14336" lon="3.89735">
        <ele>629.8</ele>
        <time>2023-11-07T10:39:04Z</time>
      </trkpt>
      <trkpt lat="45.14337" lon="3.89733">
        <ele>631.72</ele>
        <time>2023-11-07T10:39:16Z</time>
      </trkpt>
      <trkpt lat="45.14337" lon="3.89732">
        <ele>633.65</ele>
        <time>2023-11-07T10:39:31Z</time>
      </trkpt>
      <trkpt lat="45.14337" lon="3.89733">
        <ele>633.65</ele>
        <time>2023-11-07T10:39:45Z</time>
      </trkpt>
      <trkpt lat="45.14336" lon="3.89732">
        <ele>633.65</ele>
        <time>2023-11-07T10:39:50Z</time>
      </trkpt>
      <trkpt lat="45.14327" lon="3.8971">
        <ele>636.05</ele>
        <time>2023-11-07T10:40:05Z</time>
      </trkpt>
      <trkpt lat="45.1432" lon="3.89686">
        <ele>637.01</ele>
        <time>2023-11-07T10:40:20Z</time>
      </trkpt>
      <trkpt lat="45.14313" lon="3.89659">
        <ele>638.45</ele>
        <time>2023-11-07T10:40:36Z</time>
      </trkpt>
      <trkpt lat="45.14307" lon="3.89639">
        <ele>639.41</ele>
        <time>2023-11-07T10:40:49Z</time>
      </trkpt>
      <trkpt lat="45.14299" lon="3.89611">
        <ele>641.82</ele>
        <time>2023-11-07T10:41:06Z</time>
      </trkpt>
      <trkpt lat="45.1429" lon="3.89585">
        <ele>643.26</ele>
        <time>2023-11-07T10:41:23Z</time>
      </trkpt>
      <trkpt lat="45.14277" lon="3.89562">
        <ele>644.22</ele>
        <time>2023-11-07T10:41:40Z</time>
      </trkpt>
      <trkpt lat="45.14262" lon="3.89545">
        <ele>645.66</ele>
        <time>2023-11-07T10:41:56Z</time>
      </trkpt>
      <trkpt lat="45.1426" lon="3.89543">
        <ele>646.14</ele>
        <time>2023-11-07T10:41:59Z</time>
      </trkpt>
      <trkpt lat="45.14259" lon="3.89535">
        <ele>645.18</ele>
        <time>2023-11-07T10:42:04Z</time>
      </trkpt>
      <trkpt lat="45.14259" lon="3.89503">
        <ele>646.14</ele>
        <time>2023-11-07T10:42:23Z</time>
      </trkpt>
      <trkpt lat="45.14259" lon="3.89473">
        <ele>649.03</ele>
        <time>2023-11-07T10:42:40Z</time>
      </trkpt>
      <trkpt lat="45.14259" lon="3.89464">
        <ele>649.51</ele>
        <time>2023-11-07T10:42:45Z</time>
      </trkpt>
      <trkpt lat="45.14253" lon="3.89438">
        <ele>649.99</ele>
        <time>2023-11-07T10:43:00Z</time>
      </trkpt>
      <trkpt lat="45.14238" lon="3.8941">
        <ele>650.95</ele>
        <time>2023-11-07T10:43:17Z</time>
      </trkpt>
      <trkpt lat="45.14231" lon="3.89399">
        <ele>651.43</ele>
        <time>2023-11-07T10:43:25Z</time>
      </trkpt>
      <trkpt lat="45.14226" lon="3.89392">
        <ele>650.95</ele>
        <time>2023-11-07T10:43:31Z</time>
      </trkpt>
      <trkpt lat="45.14214" lon="3.89375">
        <ele>650.47</ele>
        <time>2023-11-07T10:43:44Z</time>
      </trkpt>
      <trkpt lat="45.14206" lon="3.89351">
        <ele>651.91</ele>
        <time>2023-11-07T10:43:59Z</time>
      </trkpt>
      <trkpt lat="45.14204" lon="3.89346">
        <ele>651.91</ele>
        <time>2023-11-07T10:44:02Z</time>
      </trkpt>
      <trkpt lat="45.14201" lon="3.89339">
        <ele>651.91</ele>
        <time>2023-11-07T10:44:06Z</time>
      </trkpt>
      <trkpt lat="45.14189" lon="3.89319">
        <ele>651.91</ele>
        <time>2023-11-07T10:44:21Z</time>
      </trkpt>
      <trkpt lat="45.14182" lon="3.89298">
        <ele>651.91</ele>
        <time>2023-11-07T10:44:35Z</time>
      </trkpt>
      <trkpt lat="45.14177" lon="3.89273">
        <ele>657.2</ele>
        <time>2023-11-07T10:44:50Z</time>
      </trkpt>
      <trkpt lat="45.1417" lon="3.89249">
        <ele>658.16</ele>
        <time>2023-11-07T10:45:02Z</time>
      </trkpt>
      <trkpt lat="45.14168" lon="3.89244">
        <ele>658.16</ele>
        <time>2023-11-07T10:45:05Z</time>
      </trkpt>
      <trkpt lat="45.14163" lon="3.89222">
        <ele>659.12</ele>
        <time>2023-11-07T10:45:18Z</time>
      </trkpt>
      <trkpt lat="45.14163" lon="3.89216">
        <ele>660.56</ele>
        <time>2023-11-07T10:45:21Z</time>
      </trkpt>
      <trkpt lat="45.14157" lon="3.89187">
        <ele>662.01</ele>
        <time>2023-11-07T10:45:34Z</time>
      </trkpt>
      <trkpt lat="45.14153" lon="3.89152">
        <ele>665.37</ele>
        <time>2023-11-07T10:45:50Z</time>
      </trkpt>
      <trkpt lat="45.14152" lon="3.89131">
        <ele>666.33</ele>
        <time>2023-11-07T10:46:01Z</time>
      </trkpt>
      <trkpt lat="45.14153" lon="3.89108">
        <ele>668.73</ele>
        <time>2023-11-07T10:46:12Z</time>
      </trkpt>
      <trkpt lat="45.14152" lon="3.89099">
        <ele>669.22</ele>
        <time>2023-11-07T10:46:17Z</time>
      </trkpt>
      <trkpt lat="45.1415" lon="3.89087">
        <ele>669.22</ele>
        <time>2023-11-07T10:46:23Z</time>
      </trkpt>
      <trkpt lat="45.1415" lon="3.89077">
        <ele>669.22</ele>
        <time>2023-11-07T10:46:28Z</time>
      </trkpt>
      <trkpt lat="45.14149" lon="3.89066">
        <ele>668.25</ele>
        <time>2023-11-07T10:46:33Z</time>
      </trkpt>
      <trkpt lat="45.14149" lon="3.89053">
        <ele>668.73</ele>
        <time>2023-11-07T10:46:40Z</time>
      </trkpt>
      <trkpt lat="45.1415" lon="3.8904">
        <ele>669.22</ele>
        <time>2023-11-07T10:46:47Z</time>
      </trkpt>
      <trkpt lat="45.14155" lon="3.89006">
        <ele>669.7</ele>
        <time>2023-11-07T10:47:05Z</time>
      </trkpt>
      <trkpt lat="45.1416" lon="3.88976">
        <ele>669.7</ele>
        <time>2023-11-07T10:47:20Z</time>
      </trkpt>
      <trkpt lat="45.14164" lon="3.88956">
        <ele>671.14</ele>
        <time>2023-11-07T10:47:30Z</time>
      </trkpt>
      <trkpt lat="45.14163" lon="3.88945">
        <ele>671.14</ele>
        <time>2023-11-07T10:47:36Z</time>
      </trkpt>
      <trkpt lat="45.14164" lon="3.88937">
        <ele>671.62</ele>
        <time>2023-11-07T10:47:40Z</time>
      </trkpt>
      <trkpt lat="45.14167" lon="3.88925">
        <ele>673.06</ele>
        <time>2023-11-07T10:47:46Z</time>
      </trkpt>
      <trkpt lat="45.14167" lon="3.8891">
        <ele>674.5</ele>
        <time>2023-11-07T10:47:54Z</time>
      </trkpt>
      <trkpt lat="45.14168" lon="3.8888">
        <ele>677.39</ele>
        <time>2023-11-07T10:48:10Z</time>
      </trkpt>
      <trkpt lat="45.14166" lon="3.88865">
        <ele>678.83</ele>
        <time>2023-11-07T10:48:19Z</time>
      </trkpt>
      <trkpt lat="45.14166" lon="3.88858">
        <ele>679.79</ele>
        <time>2023-11-07T10:48:23Z</time>
      </trkpt>
      <trkpt lat="45.14158" lon="3.88829">
        <ele>681.71</ele>
        <time>2023-11-07T10:48:40Z</time>
      </trkpt>
      <trkpt lat="45.1415" lon="3.88807">
        <ele>682.67</ele>
        <time>2023-11-07T10:48:53Z</time>
      </trkpt>
      <trkpt lat="45.14138" lon="3.88785">
        <ele>682.19</ele>
        <time>2023-11-07T10:49:06Z</time>
      </trkpt>
      <trkpt lat="45.14127" lon="3.88763">
        <ele>689.4</ele>
        <time>2023-11-07T10:49:22Z</time>
      </trkpt>
      <trkpt lat="45.14129" lon="3.88752">
        <ele>692.77</ele>
        <time>2023-11-07T10:49:37Z</time>
      </trkpt>
      <trkpt lat="45.14129" lon="3.88753">
        <ele>693.73</ele>
        <time>2023-11-07T10:50:00Z</time>
      </trkpt>
      <trkpt lat="45.1413" lon="3.88752">
        <ele>693.25</ele>
        <time>2023-11-07T10:50:26Z</time>
      </trkpt>
      <trkpt lat="45.14129" lon="3.88751">
        <ele>695.17</ele>
        <time>2023-11-07T10:50:51Z</time>
      </trkpt>
      <trkpt lat="45.14129" lon="3.88752">
        <ele>695.17</ele>
        <time>2023-11-07T10:51:08Z</time>
      </trkpt>
      <trkpt lat="45.1413" lon="3.88753">
        <ele>695.17</ele>
        <time>2023-11-07T10:51:27Z</time>
      </trkpt>
      <trkpt lat="45.14133" lon="3.8874">
        <ele>693.73</ele>
        <time>2023-11-07T10:51:42Z</time>
      </trkpt>
      <trkpt lat="45.1414" lon="3.88719">
        <ele>693.25</ele>
        <time>2023-11-07T10:51:57Z</time>
      </trkpt>
      <trkpt lat="45.14144" lon="3.88705">
        <ele>693.25</ele>
        <time>2023-11-07T10:52:07Z</time>
      </trkpt>
      <trkpt lat="45.14147" lon="3.88692">
        <ele>693.73</ele>
        <time>2023-11-07T10:52:15Z</time>
      </trkpt>
      <trkpt lat="45.14149" lon="3.88672">
        <ele>693.73</ele>
        <time>2023-11-07T10:52:27Z</time>
      </trkpt>
      <trkpt lat="45.14148" lon="3.88662">
        <ele>693.25</ele>
        <time>2023-11-07T10:52:33Z</time>
      </trkpt>
      <trkpt lat="45.14145" lon="3.88654">
        <ele>693.25</ele>
        <time>2023-11-07T10:52:46Z</time>
      </trkpt>
      <trkpt lat="45.14143" lon="3.88641">
        <ele>692.29</ele>
        <time>2023-11-07T10:53:06Z</time>
      </trkpt>
      <trkpt lat="45.14141" lon="3.88627">
        <ele>690.84</ele>
        <time>2023-11-07T10:53:15Z</time>
      </trkpt>
      <trkpt lat="45.14136" lon="3.88605">
        <ele>691.33</ele>
        <time>2023-11-07T10:53:30Z</time>
      </trkpt>
      <trkpt lat="45.14127" lon="3.88582">
        <ele>692.77</ele>
        <time>2023-11-07T10:53:45Z</time>
      </trkpt>
      <trkpt lat="45.14121" lon="3.88562">
        <ele>692.29</ele>
        <time>2023-11-07T10:53:59Z</time>
      </trkpt>
      <trkpt lat="45.14114" lon="3.8854">
        <ele>695.65</ele>
        <time>2023-11-07T10:54:13Z</time>
      </trkpt>
      <trkpt lat="45.14112" lon="3.88528">
        <ele>697.09</ele>
        <time>2023-11-07T10:54:21Z</time>
      </trkpt>
      <trkpt lat="45.1411" lon="3.88514">
        <ele>699.5</ele>
        <time>2023-11-07T10:54:30Z</time>
      </trkpt>
      <trkpt lat="45.14106" lon="3.88498">
        <ele>702.86</ele>
        <time>2023-11-07T10:54:42Z</time>
      </trkpt>
      <trkpt lat="45.14105" lon="3.88487">
        <ele>702.38</ele>
        <time>2023-11-07T10:54:54Z</time>
      </trkpt>
      <trkpt lat="45.14103" lon="3.88477">
        <ele>702.38</ele>
        <time>2023-11-07T10:55:09Z</time>
      </trkpt>
      <trkpt lat="45.14103" lon="3.88471">
        <ele>703.34</ele>
        <time>2023-11-07T10:55:23Z</time>
      </trkpt>
      <trkpt lat="45.14105" lon="3.8847">
        <ele>704.78</ele>
        <time>2023-11-07T10:55:37Z</time>
      </trkpt>
      <trkpt lat="45.14106" lon="3.88475">
        <ele>704.3</ele>
        <time>2023-11-07T10:55:52Z</time>
      </trkpt>
      <trkpt lat="45.14106" lon="3.88485">
        <ele>702.38</ele>
        <time>2023-11-07T10:56:03Z</time>
      </trkpt>
      <trkpt lat="45.14106" lon="3.88487">
        <ele>702.38</ele>
        <time>2023-11-07T10:56:07Z</time>
      </trkpt>
      <trkpt lat="45.14107" lon="3.88499">
        <ele>701.42</ele>
        <time>2023-11-07T10:56:19Z</time>
      </trkpt>
      <trkpt lat="45.14107" lon="3.885">
        <ele>701.42</ele>
        <time>2023-11-07T10:56:37Z</time>
      </trkpt>
      <trkpt lat="45.14106" lon="3.88501">
        <ele>700.94</ele>
        <time>2023-11-07T10:56:51Z</time>
      </trkpt>
      <trkpt lat="45.14106" lon="3.88503">
        <ele>700.46</ele>
        <time>2023-11-07T10:57:00Z</time>
      </trkpt>
      <trkpt lat="45.14107" lon="3.88511">
        <ele>699.98</ele>
        <time>2023-11-07T10:57:16Z</time>
      </trkpt>
      <trkpt lat="45.14107" lon="3.88512">
        <ele>699.5</ele>
        <time>2023-11-07T10:57:33Z</time>
      </trkpt>
      <trkpt lat="45.14107" lon="3.88513">
        <ele>699.98</ele>
        <time>2023-11-07T10:57:53Z</time>
      </trkpt>
      <trkpt lat="45.14107" lon="3.88513">
        <ele>699.98</ele>
        <time>2023-11-07T10:58:11Z</time>
      </trkpt>
      <trkpt lat="45.14108" lon="3.88512">
        <ele>700.46</ele>
        <time>2023-11-07T10:58:31Z</time>
      </trkpt>
      <trkpt lat="45.14108" lon="3.88514">
        <ele>699.5</ele>
        <time>2023-11-07T10:58:54Z</time>
      </trkpt>
      <trkpt lat="45.14107" lon="3.88513">
        <ele>699.98</ele>
        <time>2023-11-07T10:59:10Z</time>
      </trkpt>
      <trkpt lat="45.14108" lon="3.88513">
        <ele>699.98</ele>
        <time>2023-11-07T10:59:33Z</time>
      </trkpt>
      <trkpt lat="45.14108" lon="3.88513">
        <ele>699.5</ele>
        <time>2023-11-07T10:59:48Z</time>
      </trkpt>
      <trkpt lat="45.14108" lon="3.88512">
        <ele>698.05</ele>
        <time>2023-11-07T11:00:03Z</time>
      </trkpt>
      <trkpt lat="45.14107" lon="3.88516">
        <ele>696.61</ele>
        <time>2023-11-07T11:00:13Z</time>
      </trkpt>
      <trkpt lat="45.14099" lon="3.88526">
        <ele>695.65</ele>
        <time>2023-11-07T11:00:26Z</time>
      </trkpt>
      <trkpt lat="45.14096" lon="3.88531">
        <ele>698.05</ele>
        <time>2023-11-07T11:00:33Z</time>
      </trkpt>
      <trkpt lat="45.14085" lon="3.88531">
        <ele>699.5</ele>
        <time>2023-11-07T11:00:47Z</time>
      </trkpt>
      <trkpt lat="45.14079" lon="3.88529">
        <ele>703.82</ele>
        <time>2023-11-07T11:01:00Z</time>
      </trkpt>
      <trkpt lat="45.14078" lon="3.88527">
        <ele>705.26</ele>
        <time>2023-11-07T11:01:03Z</time>
      </trkpt>
      <trkpt lat="45.14067" lon="3.88518">
        <ele>710.07</ele>
        <time>2023-11-07T11:01:16Z</time>
      </trkpt>
      <trkpt lat="45.1406" lon="3.88514">
        <ele>713.44</ele>
        <time>2023-11-07T11:01:27Z</time>
      </trkpt>
      <trkpt lat="45.14051" lon="3.88507">
        <ele>719.68</ele>
        <time>2023-11-07T11:01:39Z</time>
      </trkpt>
      <trkpt lat="45.14041" lon="3.88496">
        <ele>727.86</ele>
        <time>2023-11-07T11:01:53Z</time>
      </trkpt>
      <trkpt lat="45.14032" lon="3.88489">
        <ele>735.55</ele>
        <time>2023-11-07T11:02:06Z</time>
      </trkpt>
      <trkpt lat="45.14024" lon="3.88478">
        <ele>744.68</ele>
        <time>2023-11-07T11:02:18Z</time>
      </trkpt>
      <trkpt lat="45.14018" lon="3.88472">
        <ele>750.93</ele>
        <time>2023-11-07T11:02:28Z</time>
      </trkpt>
      <trkpt lat="45.14005" lon="3.88464">
        <ele>756.69</ele>
        <time>2023-11-07T11:02:42Z</time>
      </trkpt>
      <trkpt lat="45.13993" lon="3.88459">
        <ele>759.1</ele>
        <time>2023-11-07T11:02:54Z</time>
      </trkpt>
      <trkpt lat="45.13982" lon="3.88453">
        <ele>761.02</ele>
        <time>2023-11-07T11:03:07Z</time>
      </trkpt>
      <trkpt lat="45.13981" lon="3.88452">
        <ele>760.54</ele>
        <time>2023-11-07T11:03:09Z</time>
      </trkpt>
      <trkpt lat="45.13975" lon="3.8844">
        <ele>762.46</ele>
        <time>2023-11-07T11:03:22Z</time>
      </trkpt>
      <trkpt lat="45.1397" lon="3.8843">
        <ele>761.98</ele>
        <time>2023-11-07T11:03:34Z</time>
      </trkpt>
      <trkpt lat="45.13962" lon="3.88418">
        <ele>764.39</ele>
        <time>2023-11-07T11:03:47Z</time>
      </trkpt>
      <trkpt lat="45.13955" lon="3.88409">
        <ele>763.9</ele>
        <time>2023-11-07T11:04:00Z</time>
      </trkpt>
      <trkpt lat="45.13946" lon="3.88396">
        <ele>764.87</ele>
        <time>2023-11-07T11:04:14Z</time>
      </trkpt>
      <trkpt lat="45.13937" lon="3.88392">
        <ele>766.79</ele>
        <time>2023-11-07T11:04:25Z</time>
      </trkpt>
      <trkpt lat="45.13934" lon="3.88388">
        <ele>768.23</ele>
        <time>2023-11-07T11:04:30Z</time>
      </trkpt>
      <trkpt lat="45.13931" lon="3.88379">
        <ele>772.56</ele>
        <time>2023-11-07T11:04:41Z</time>
      </trkpt>
      <trkpt lat="45.13931" lon="3.88378">
        <ele>773.04</ele>
        <time>2023-11-07T11:04:42Z</time>
      </trkpt>
      <trkpt lat="45.13941" lon="3.88374">
        <ele>774</ele>
        <time>2023-11-07T11:04:54Z</time>
      </trkpt>
      <trkpt lat="45.13944" lon="3.88373">
        <ele>774.48</ele>
        <time>2023-11-07T11:04:57Z</time>
      </trkpt>
      <trkpt lat="45.13949" lon="3.88371">
        <ele>774.48</ele>
        <time>2023-11-07T11:05:01Z</time>
      </trkpt>
      <trkpt lat="45.13963" lon="3.88369">
        <ele>772.56</ele>
        <time>2023-11-07T11:05:14Z</time>
      </trkpt>
      <trkpt lat="45.13971" lon="3.88363">
        <ele>771.6</ele>
        <time>2023-11-07T11:05:28Z</time>
      </trkpt>
      <trkpt lat="45.13971" lon="3.88363">
        <ele>771.11</ele>
        <time>2023-11-07T11:05:48Z</time>
      </trkpt>
      <trkpt lat="45.13971" lon="3.88363">
        <ele>770.15</ele>
        <time>2023-11-07T11:06:03Z</time>
      </trkpt>
      <trkpt lat="45.13966" lon="3.88366">
        <ele>769.67</ele>
        <time>2023-11-07T11:06:17Z</time>
      </trkpt>
      <trkpt lat="45.13954" lon="3.8837">
        <ele>765.83</ele>
        <time>2023-11-07T11:06:31Z</time>
      </trkpt>
      <trkpt lat="45.1394" lon="3.88371">
        <ele>767.27</ele>
        <time>2023-11-07T11:06:46Z</time>
      </trkpt>
      <trkpt lat="45.13937" lon="3.88372">
        <ele>768.71</ele>
        <time>2023-11-07T11:06:49Z</time>
      </trkpt>
      <trkpt lat="45.13924" lon="3.88389">
        <ele>773.04</ele>
        <time>2023-11-07T11:07:04Z</time>
      </trkpt>
      <trkpt lat="45.13922" lon="3.88393">
        <ele>774</ele>
        <time>2023-11-07T11:07:07Z</time>
      </trkpt>
      <trkpt lat="45.13919" lon="3.88402">
        <ele>775.44</ele>
        <time>2023-11-07T11:07:15Z</time>
      </trkpt>
      <trkpt lat="45.13912" lon="3.88412">
        <ele>776.4</ele>
        <time>2023-11-07T11:07:26Z</time>
      </trkpt>
      <trkpt lat="45.13907" lon="3.88423">
        <ele>777.36</ele>
        <time>2023-11-07T11:07:37Z</time>
      </trkpt>
      <trkpt lat="45.13895" lon="3.88428">
        <ele>777.84</ele>
        <time>2023-11-07T11:07:53Z</time>
      </trkpt>
      <trkpt lat="45.13885" lon="3.88435">
        <ele>778.32</ele>
        <time>2023-11-07T11:08:06Z</time>
      </trkpt>
      <trkpt lat="45.13876" lon="3.88438">
        <ele>778.81</ele>
        <time>2023-11-07T11:08:18Z</time>
      </trkpt>
      <trkpt lat="45.13871" lon="3.88441">
        <ele>777.36</ele>
        <time>2023-11-07T11:08:23Z</time>
      </trkpt>
      <trkpt lat="45.1386" lon="3.88446">
        <ele>776.88</ele>
        <time>2023-11-07T11:08:36Z</time>
      </trkpt>
      <trkpt lat="45.13845" lon="3.88455">
        <ele>776.4</ele>
        <time>2023-11-07T11:08:50Z</time>
      </trkpt>
      <trkpt lat="45.13832" lon="3.88463">
        <ele>777.36</ele>
        <time>2023-11-07T11:09:03Z</time>
      </trkpt>
      <trkpt lat="45.13818" lon="3.88464">
        <ele>773.52</ele>
        <time>2023-11-07T11:09:16Z</time>
      </trkpt>
      <trkpt lat="45.13805" lon="3.88465">
        <ele>773.04</ele>
        <time>2023-11-07T11:09:29Z</time>
      </trkpt>
      <trkpt lat="45.1379" lon="3.88466">
        <ele>772.08</ele>
        <time>2023-11-07T11:09:43Z</time>
      </trkpt>
      <trkpt lat="45.13782" lon="3.88467">
        <ele>769.67</ele>
        <time>2023-11-07T11:09:52Z</time>
      </trkpt>
      <trkpt lat="45.13772" lon="3.88469">
        <ele>769.19</ele>
        <time>2023-11-07T11:10:04Z</time>
      </trkpt>
      <trkpt lat="45.13764" lon="3.88466">
        <ele>770.63</ele>
        <time>2023-11-07T11:10:15Z</time>
      </trkpt>
      <trkpt lat="45.13756" lon="3.88466">
        <ele>773.04</ele>
        <time>2023-11-07T11:10:24Z</time>
      </trkpt>
      <trkpt lat="45.13744" lon="3.88465">
        <ele>777.84</ele>
        <time>2023-11-07T11:10:37Z</time>
      </trkpt>
      <trkpt lat="45.13731" lon="3.88458">
        <ele>784.09</ele>
        <time>2023-11-07T11:10:51Z</time>
      </trkpt>
      <trkpt lat="45.13728" lon="3.88457">
        <ele>784.57</ele>
        <time>2023-11-07T11:10:56Z</time>
      </trkpt>
      <trkpt lat="45.13717" lon="3.88452">
        <ele>783.13</ele>
        <time>2023-11-07T11:11:09Z</time>
      </trkpt>
      <trkpt lat="45.13713" lon="3.8845">
        <ele>781.69</ele>
        <time>2023-11-07T11:11:20Z</time>
      </trkpt>
      <trkpt lat="45.13705" lon="3.88448">
        <ele>780.25</ele>
        <time>2023-11-07T11:11:31Z</time>
      </trkpt>
      <trkpt lat="45.13694" lon="3.88441">
        <ele>779.77</ele>
        <time>2023-11-07T11:11:43Z</time>
      </trkpt>
      <trkpt lat="45.13685" lon="3.8844">
        <ele>779.29</ele>
        <time>2023-11-07T11:11:55Z</time>
      </trkpt>
      <trkpt lat="45.13681" lon="3.8843">
        <ele>780.25</ele>
        <time>2023-11-07T11:12:08Z</time>
      </trkpt>
      <trkpt lat="45.13678" lon="3.88423">
        <ele>779.77</ele>
        <time>2023-11-07T11:12:17Z</time>
      </trkpt>
      <trkpt lat="45.1367" lon="3.88407">
        <ele>781.69</ele>
        <time>2023-11-07T11:12:32Z</time>
      </trkpt>
      <trkpt lat="45.13665" lon="3.88395">
        <ele>783.13</ele>
        <time>2023-11-07T11:12:43Z</time>
      </trkpt>
      <trkpt lat="45.1366" lon="3.88381">
        <ele>785.05</ele>
        <time>2023-11-07T11:12:54Z</time>
      </trkpt>
      <trkpt lat="45.13654" lon="3.88366">
        <ele>787.46</ele>
        <time>2023-11-07T11:13:07Z</time>
      </trkpt>
      <trkpt lat="45.13649" lon="3.8835">
        <ele>788.9</ele>
        <time>2023-11-07T11:13:19Z</time>
      </trkpt>
      <trkpt lat="45.13649" lon="3.88348">
        <ele>789.86</ele>
        <time>2023-11-07T11:13:21Z</time>
      </trkpt>
      <trkpt lat="45.1365" lon="3.88346">
        <ele>791.3</ele>
        <time>2023-11-07T11:13:24Z</time>
      </trkpt>
      <trkpt lat="45.13658" lon="3.8835">
        <ele>791.3</ele>
        <time>2023-11-07T11:13:32Z</time>
      </trkpt>
      <trkpt lat="45.13668" lon="3.88354">
        <ele>793.22</ele>
        <time>2023-11-07T11:13:47Z</time>
      </trkpt>
      <trkpt lat="45.13677" lon="3.88355">
        <ele>795.15</ele>
        <time>2023-11-07T11:14:00Z</time>
      </trkpt>
      <trkpt lat="45.13683" lon="3.88353">
        <ele>797.07</ele>
        <time>2023-11-07T11:14:07Z</time>
      </trkpt>
      <trkpt lat="45.13694" lon="3.88348">
        <ele>800.44</ele>
        <time>2023-11-07T11:14:19Z</time>
      </trkpt>
      <trkpt lat="45.13702" lon="3.88343">
        <ele>800.92</ele>
        <time>2023-11-07T11:14:30Z</time>
      </trkpt>
      <trkpt lat="45.13705" lon="3.8834">
        <ele>801.4</ele>
        <time>2023-11-07T11:14:34Z</time>
      </trkpt>
      <trkpt lat="45.1372" lon="3.88326">
        <ele>804.28</ele>
        <time>2023-11-07T11:14:49Z</time>
      </trkpt>
      <trkpt lat="45.13729" lon="3.88316">
        <ele>807.16</ele>
        <time>2023-11-07T11:15:02Z</time>
      </trkpt>
      <trkpt lat="45.1374" lon="3.88306">
        <ele>809.57</ele>
        <time>2023-11-07T11:15:15Z</time>
      </trkpt>
      <trkpt lat="45.13741" lon="3.88305">
        <ele>809.57</ele>
        <time>2023-11-07T11:15:16Z</time>
      </trkpt>
      <trkpt lat="45.13744" lon="3.88302">
        <ele>810.05</ele>
        <time>2023-11-07T11:15:19Z</time>
      </trkpt>
      <trkpt lat="45.13755" lon="3.88295">
        <ele>811.97</ele>
        <time>2023-11-07T11:15:32Z</time>
      </trkpt>
      <trkpt lat="45.13768" lon="3.8829">
        <ele>814.85</ele>
        <time>2023-11-07T11:15:46Z</time>
      </trkpt>
      <trkpt lat="45.13776" lon="3.88285">
        <ele>820.14</ele>
        <time>2023-11-07T11:15:59Z</time>
      </trkpt>
      <trkpt lat="45.13786" lon="3.88283">
        <ele>820.62</ele>
        <time>2023-11-07T11:16:13Z</time>
      </trkpt>
      <trkpt lat="45.13796" lon="3.88278">
        <ele>820.62</ele>
        <time>2023-11-07T11:16:26Z</time>
      </trkpt>
      <trkpt lat="45.13806" lon="3.88274">
        <ele>819.18</ele>
        <time>2023-11-07T11:16:39Z</time>
      </trkpt>
      <trkpt lat="45.13809" lon="3.88272">
        <ele>819.66</ele>
        <time>2023-11-07T11:16:58Z</time>
      </trkpt>
      <trkpt lat="45.13808" lon="3.8827">
        <ele>820.14</ele>
        <time>2023-11-07T11:17:14Z</time>
      </trkpt>
      <trkpt lat="45.13808" lon="3.8827">
        <ele>820.14</ele>
        <time>2023-11-07T11:17:27Z</time>
      </trkpt>
      <trkpt lat="45.13809" lon="3.88269">
        <ele>822.06</ele>
        <time>2023-11-07T11:17:54Z</time>
      </trkpt>
      <trkpt lat="45.13811" lon="3.88268">
        <ele>823.51</ele>
        <time>2023-11-07T11:18:23Z</time>
      </trkpt>
      <trkpt lat="45.13811" lon="3.88268">
        <ele>823.51</ele>
        <time>2023-11-07T11:18:52Z</time>
      </trkpt>
      <trkpt lat="45.13811" lon="3.88267">
        <ele>824.47</ele>
        <time>2023-11-07T11:19:19Z</time>
      </trkpt>
      <trkpt lat="45.13811" lon="3.88266">
        <ele>825.43</ele>
        <time>2023-11-07T11:19:48Z</time>
      </trkpt>
      <trkpt lat="45.13811" lon="3.88265">
        <ele>823.99</ele>
        <time>2023-11-07T11:20:18Z</time>
      </trkpt>
      <trkpt lat="45.13811" lon="3.88266">
        <ele>823.99</ele>
        <time>2023-11-07T11:20:34Z</time>
      </trkpt>
      <trkpt lat="45.13812" lon="3.88267">
        <ele>823.03</ele>
        <time>2023-11-07T11:20:56Z</time>
      </trkpt>
      <trkpt lat="45.13812" lon="3.88267">
        <ele>822.55</ele>
        <time>2023-11-07T11:21:16Z</time>
      </trkpt>
      <trkpt lat="45.13812" lon="3.88268">
        <ele>823.03</ele>
        <time>2023-11-07T11:21:35Z</time>
      </trkpt>
      <trkpt lat="45.13815" lon="3.88259">
        <ele>823.03</ele>
        <time>2023-11-07T11:21:50Z</time>
      </trkpt>
      <trkpt lat="45.13815" lon="3.88257">
        <ele>822.55</ele>
        <time>2023-11-07T11:21:53Z</time>
      </trkpt>
      <trkpt lat="45.13821" lon="3.88243">
        <ele>823.99</ele>
        <time>2023-11-07T11:22:08Z</time>
      </trkpt>
      <trkpt lat="45.13825" lon="3.88226">
        <ele>823.99</ele>
        <time>2023-11-07T11:22:23Z</time>
      </trkpt>
      <trkpt lat="45.13825" lon="3.88209">
        <ele>828.31</ele>
        <time>2023-11-07T11:22:40Z</time>
      </trkpt>
      <trkpt lat="45.13824" lon="3.88208">
        <ele>828.31</ele>
        <time>2023-11-07T11:22:41Z</time>
      </trkpt>
      <trkpt lat="45.13816" lon="3.88203">
        <ele>830.24</ele>
        <time>2023-11-07T11:22:57Z</time>
      </trkpt>
      <trkpt lat="45.13805" lon="3.88208">
        <ele>830.72</ele>
        <time>2023-11-07T11:23:11Z</time>
      </trkpt>
      <trkpt lat="45.13793" lon="3.88217">
        <ele>834.56</ele>
        <time>2023-11-07T11:23:26Z</time>
      </trkpt>
      <trkpt lat="45.13785" lon="3.88218">
        <ele>836.48</ele>
        <time>2023-11-07T11:23:39Z</time>
      </trkpt>
      <trkpt lat="45.13784" lon="3.8821">
        <ele>839.85</ele>
        <time>2023-11-07T11:23:52Z</time>
      </trkpt>
      <trkpt lat="45.13783" lon="3.88199">
        <ele>843.69</ele>
        <time>2023-11-07T11:24:04Z</time>
      </trkpt>
      <trkpt lat="45.13784" lon="3.88187">
        <ele>843.69</ele>
        <time>2023-11-07T11:24:18Z</time>
      </trkpt>
      <trkpt lat="45.13781" lon="3.88175">
        <ele>846.1</ele>
        <time>2023-11-07T11:24:31Z</time>
      </trkpt>
      <trkpt lat="45.13781" lon="3.88174">
        <ele>846.58</ele>
        <time>2023-11-07T11:24:32Z</time>
      </trkpt>
      <trkpt lat="45.13781" lon="3.88171">
        <ele>847.54</ele>
        <time>2023-11-07T11:24:34Z</time>
      </trkpt>
      <trkpt lat="45.13784" lon="3.88157">
        <ele>848.98</ele>
        <time>2023-11-07T11:24:46Z</time>
      </trkpt>
      <trkpt lat="45.13784" lon="3.88156">
        <ele>847.06</ele>
        <time>2023-11-07T11:24:56Z</time>
      </trkpt>
      <trkpt lat="45.13783" lon="3.88154">
        <ele>847.06</ele>
        <time>2023-11-07T11:25:13Z</time>
      </trkpt>
      <trkpt lat="45.13784" lon="3.88153">
        <ele>847.06</ele>
        <time>2023-11-07T11:25:34Z</time>
      </trkpt>
      <trkpt lat="45.13783" lon="3.88153">
        <ele>846.58</ele>
        <time>2023-11-07T11:25:40Z</time>
      </trkpt>
      <trkpt lat="45.13783" lon="3.88152">
        <ele>847.06</ele>
        <time>2023-11-07T11:25:42Z</time>
      </trkpt>
      <trkpt lat="45.1378" lon="3.8814">
        <ele>848.02</ele>
        <time>2023-11-07T11:25:52Z</time>
      </trkpt>
      <trkpt lat="45.1378" lon="3.88134">
        <ele>848.5</ele>
        <time>2023-11-07T11:25:57Z</time>
      </trkpt>
      <trkpt lat="45.13778" lon="3.88119">
        <ele>849.94</ele>
        <time>2023-11-07T11:26:07Z</time>
      </trkpt>
      <trkpt lat="45.13778" lon="3.88099">
        <ele>853.31</ele>
        <time>2023-11-07T11:26:19Z</time>
      </trkpt>
      <trkpt lat="45.13778" lon="3.88093">
        <ele>854.75</ele>
        <time>2023-11-07T11:26:22Z</time>
      </trkpt>
      <trkpt lat="45.13778" lon="3.88078">
        <ele>857.63</ele>
        <time>2023-11-07T11:26:34Z</time>
      </trkpt>
      <trkpt lat="45.13776" lon="3.8807">
        <ele>858.11</ele>
        <time>2023-11-07T11:26:40Z</time>
      </trkpt>
      <trkpt lat="45.13776" lon="3.88057">
        <ele>859.08</ele>
        <time>2023-11-07T11:26:49Z</time>
      </trkpt>
      <trkpt lat="45.13776" lon="3.88052">
        <ele>859.56</ele>
        <time>2023-11-07T11:26:52Z</time>
      </trkpt>
      <trkpt lat="45.13777" lon="3.88049">
        <ele>859.56</ele>
        <time>2023-11-07T11:26:54Z</time>
      </trkpt>
      <trkpt lat="45.13784" lon="3.88031">
        <ele>861.48</ele>
        <time>2023-11-07T11:27:08Z</time>
      </trkpt>
      <trkpt lat="45.13785" lon="3.88028">
        <ele>861.96</ele>
        <time>2023-11-07T11:27:10Z</time>
      </trkpt>
      <trkpt lat="45.13786" lon="3.88025">
        <ele>862.92</ele>
        <time>2023-11-07T11:27:12Z</time>
      </trkpt>
      <trkpt lat="45.13788" lon="3.88022">
        <ele>863.4</ele>
        <time>2023-11-07T11:27:14Z</time>
      </trkpt>
      <trkpt lat="45.13796" lon="3.88007">
        <ele>864.84</ele>
        <time>2023-11-07T11:27:29Z</time>
      </trkpt>
      <trkpt lat="45.13808" lon="3.87985">
        <ele>865.8</ele>
        <time>2023-11-07T11:27:46Z</time>
      </trkpt>
      <trkpt lat="45.13809" lon="3.87982">
        <ele>866.29</ele>
        <time>2023-11-07T11:27:48Z</time>
      </trkpt>
      <trkpt lat="45.13812" lon="3.87974">
        <ele>867.25</ele>
        <time>2023-11-07T11:27:54Z</time>
      </trkpt>
      <trkpt lat="45.13814" lon="3.87968">
        <ele>867.73</ele>
        <time>2023-11-07T11:27:58Z</time>
      </trkpt>
      <trkpt lat="45.13818" lon="3.87941">
        <ele>870.13</ele>
        <time>2023-11-07T11:28:14Z</time>
      </trkpt>
      <trkpt lat="45.13819" lon="3.87937">
        <ele>871.09</ele>
        <time>2023-11-07T11:28:17Z</time>
      </trkpt>
      <trkpt lat="45.13817" lon="3.8791">
        <ele>873.01</ele>
        <time>2023-11-07T11:28:32Z</time>
      </trkpt>
      <trkpt lat="45.13818" lon="3.87906">
        <ele>873.98</ele>
        <time>2023-11-07T11:28:35Z</time>
      </trkpt>
      <trkpt lat="45.13817" lon="3.87889">
        <ele>875.9</ele>
        <time>2023-11-07T11:28:47Z</time>
      </trkpt>
      <trkpt lat="45.13816" lon="3.8788">
        <ele>876.38</ele>
        <time>2023-11-07T11:28:53Z</time>
      </trkpt>
      <trkpt lat="45.13815" lon="3.8787">
        <ele>875.42</ele>
        <time>2023-11-07T11:28:59Z</time>
      </trkpt>
      <trkpt lat="45.13819" lon="3.87848">
        <ele>874.94</ele>
        <time>2023-11-07T11:29:14Z</time>
      </trkpt>
      <trkpt lat="45.1382" lon="3.87827">
        <ele>874.94</ele>
        <time>2023-11-07T11:29:27Z</time>
      </trkpt>
      <trkpt lat="45.1382" lon="3.87808">
        <ele>875.9</ele>
        <time>2023-11-07T11:29:40Z</time>
      </trkpt>
      <trkpt lat="45.13823" lon="3.87794">
        <ele>878.3</ele>
        <time>2023-11-07T11:29:49Z</time>
      </trkpt>
      <trkpt lat="45.13824" lon="3.8778">
        <ele>879.74</ele>
        <time>2023-11-07T11:29:57Z</time>
      </trkpt>
      <trkpt lat="45.13822" lon="3.87774">
        <ele>879.74</ele>
        <time>2023-11-07T11:30:01Z</time>
      </trkpt>
      <trkpt lat="45.13823" lon="3.8777">
        <ele>880.71</ele>
        <time>2023-11-07T11:30:03Z</time>
      </trkpt>
      <trkpt lat="45.13821" lon="3.87764">
        <ele>881.19</ele>
        <time>2023-11-07T11:30:07Z</time>
      </trkpt>
      <trkpt lat="45.13821" lon="3.87742">
        <ele>885.03</ele>
        <time>2023-11-07T11:30:20Z</time>
      </trkpt>
      <trkpt lat="45.13821" lon="3.87717">
        <ele>888.88</ele>
        <time>2023-11-07T11:30:34Z</time>
      </trkpt>
      <trkpt lat="45.13811" lon="3.87701">
        <ele>892.24</ele>
        <time>2023-11-07T11:30:49Z</time>
      </trkpt>
      <trkpt lat="45.13805" lon="3.87698">
        <ele>893.2</ele>
        <time>2023-11-07T11:30:55Z</time>
      </trkpt>
      <trkpt lat="45.13796" lon="3.87696">
        <ele>894.64</ele>
        <time>2023-11-07T11:31:04Z</time>
      </trkpt>
      <trkpt lat="45.13786" lon="3.87692">
        <ele>896.09</ele>
        <time>2023-11-07T11:31:14Z</time>
      </trkpt>
      <trkpt lat="45.1378" lon="3.87688">
        <ele>897.05</ele>
        <time>2023-11-07T11:31:24Z</time>
      </trkpt>
      <trkpt lat="45.13778" lon="3.87687">
        <ele>896.09</ele>
        <time>2023-11-07T11:31:35Z</time>
      </trkpt>
      <trkpt lat="45.13778" lon="3.87687">
        <ele>895.61</ele>
        <time>2023-11-07T11:31:52Z</time>
      </trkpt>
      <trkpt lat="45.13778" lon="3.87687">
        <ele>895.61</ele>
        <time>2023-11-07T11:32:20Z</time>
      </trkpt>
      <trkpt lat="45.13776" lon="3.87686">
        <ele>895.61</ele>
        <time>2023-11-07T11:32:33Z</time>
      </trkpt>
      <trkpt lat="45.1377" lon="3.87683">
        <ele>895.61</ele>
        <time>2023-11-07T11:32:42Z</time>
      </trkpt>
      <trkpt lat="45.13768" lon="3.87683">
        <ele>895.61</ele>
        <time>2023-11-07T11:32:44Z</time>
      </trkpt>
      <trkpt lat="45.13767" lon="3.87682">
        <ele>895.61</ele>
        <time>2023-11-07T11:32:46Z</time>
      </trkpt>
      <trkpt lat="45.1376" lon="3.87676">
        <ele>895.12</ele>
        <time>2023-11-07T11:32:57Z</time>
      </trkpt>
      <trkpt lat="45.13746" lon="3.87663">
        <ele>896.09</ele>
        <time>2023-11-07T11:33:13Z</time>
      </trkpt>
      <trkpt lat="45.13726" lon="3.87645">
        <ele>897.53</ele>
        <time>2023-11-07T11:33:32Z</time>
      </trkpt>
      <trkpt lat="45.13709" lon="3.87627">
        <ele>898.49</ele>
        <time>2023-11-07T11:33:49Z</time>
      </trkpt>
      <trkpt lat="45.13692" lon="3.87602">
        <ele>899.45</ele>
        <time>2023-11-07T11:34:07Z</time>
      </trkpt>
      <trkpt lat="45.13679" lon="3.87579">
        <ele>900.41</ele>
        <time>2023-11-07T11:34:23Z</time>
      </trkpt>
      <trkpt lat="45.13661" lon="3.87548">
        <ele>900.89</ele>
        <time>2023-11-07T11:34:42Z</time>
      </trkpt>
      <trkpt lat="45.13645" lon="3.87522">
        <ele>901.85</ele>
        <time>2023-11-07T11:35:00Z</time>
      </trkpt>
      <trkpt lat="45.1363" lon="3.875">
        <ele>901.85</ele>
        <time>2023-11-07T11:35:17Z</time>
      </trkpt>
      <trkpt lat="45.13618" lon="3.87472">
        <ele>902.33</ele>
        <time>2023-11-07T11:35:35Z</time>
      </trkpt>
      <trkpt lat="45.13608" lon="3.8744">
        <ele>902.82</ele>
        <time>2023-11-07T11:35:54Z</time>
      </trkpt>
      <trkpt lat="45.13606" lon="3.87432">
        <ele>902.33</ele>
        <time>2023-11-07T11:36:05Z</time>
      </trkpt>
      <trkpt lat="45.13605" lon="3.87427">
        <ele>901.85</ele>
        <time>2023-11-07T11:36:18Z</time>
      </trkpt>
      <trkpt lat="45.13604" lon="3.87426">
        <ele>901.37</ele>
        <time>2023-11-07T11:36:40Z</time>
      </trkpt>
      <trkpt lat="45.13604" lon="3.87426">
        <ele>900.89</ele>
        <time>2023-11-07T11:36:59Z</time>
      </trkpt>
      <trkpt lat="45.13603" lon="3.87425">
        <ele>900.89</ele>
        <time>2023-11-07T11:37:18Z</time>
      </trkpt>
      <trkpt lat="45.13597" lon="3.87406">
        <ele>901.85</ele>
        <time>2023-11-07T11:37:32Z</time>
      </trkpt>
      <trkpt lat="45.13585" lon="3.87376">
        <ele>902.82</ele>
        <time>2023-11-07T11:37:52Z</time>
      </trkpt>
      <trkpt lat="45.13578" lon="3.87361">
        <ele>902.33</ele>
        <time>2023-11-07T11:38:02Z</time>
      </trkpt>
      <trkpt lat="45.13574" lon="3.87352">
        <ele>901.37</ele>
        <time>2023-11-07T11:38:08Z</time>
      </trkpt>
      <trkpt lat="45.1356" lon="3.87321">
        <ele>901.37</ele>
        <time>2023-11-07T11:38:28Z</time>
      </trkpt>
      <trkpt lat="45.13543" lon="3.87292">
        <ele>901.37</ele>
        <time>2023-11-07T11:38:48Z</time>
      </trkpt>
      <trkpt lat="45.1353" lon="3.87267">
        <ele>901.37</ele>
        <time>2023-11-07T11:39:05Z</time>
      </trkpt>
      <trkpt lat="45.13526" lon="3.87257">
        <ele>900.89</ele>
        <time>2023-11-07T11:39:13Z</time>
      </trkpt>
      <trkpt lat="45.13524" lon="3.87252">
        <ele>900.89</ele>
        <time>2023-11-07T11:39:27Z</time>
      </trkpt>
      <trkpt lat="45.13524" lon="3.87253">
        <ele>900.89</ele>
        <time>2023-11-07T11:39:28Z</time>
      </trkpt>
      <trkpt lat="45.13507" lon="3.87276">
        <ele>898.49</ele>
        <time>2023-11-07T11:39:47Z</time>
      </trkpt>
      <trkpt lat="45.13502" lon="3.87277">
        <ele>898.49</ele>
        <time>2023-11-07T11:39:58Z</time>
      </trkpt>
      <trkpt lat="45.13501" lon="3.87279">
        <ele>898.49</ele>
        <time>2023-11-07T11:40:03Z</time>
      </trkpt>
      <trkpt lat="45.13499" lon="3.87288">
        <ele>898.49</ele>
        <time>2023-11-07T11:40:09Z</time>
      </trkpt>
      <trkpt lat="45.13495" lon="3.87301">
        <ele>898.01</ele>
        <time>2023-11-07T11:40:23Z</time>
      </trkpt>
      <trkpt lat="45.13492" lon="3.87312">
        <ele>897.53</ele>
        <time>2023-11-07T11:40:36Z</time>
      </trkpt>
      <trkpt lat="45.13492" lon="3.87317">
        <ele>897.53</ele>
        <time>2023-11-07T11:40:49Z</time>
      </trkpt>
      <trkpt lat="45.13492" lon="3.87317">
        <ele>897.53</ele>
        <time>2023-11-07T11:41:02Z</time>
      </trkpt>
      <trkpt lat="45.13489" lon="3.87321">
        <ele>897.05</ele>
        <time>2023-11-07T11:41:14Z</time>
      </trkpt>
      <trkpt lat="45.13486" lon="3.87327">
        <ele>896.57</ele>
        <time>2023-11-07T11:41:19Z</time>
      </trkpt>
      <trkpt lat="45.13477" lon="3.8734">
        <ele>894.64</ele>
        <time>2023-11-07T11:41:34Z</time>
      </trkpt>
      <trkpt lat="45.13477" lon="3.87339">
        <ele>894.16</ele>
        <time>2023-11-07T11:41:54Z</time>
      </trkpt>
      <trkpt lat="45.1348" lon="3.87336">
        <ele>894.64</ele>
        <time>2023-11-07T11:42:10Z</time>
      </trkpt>
      <trkpt lat="45.13488" lon="3.8732">
        <ele>895.61</ele>
        <time>2023-11-07T11:42:24Z</time>
      </trkpt>
      <trkpt lat="45.13498" lon="3.87295">
        <ele>898.01</ele>
        <time>2023-11-07T11:42:41Z</time>
      </trkpt>
      <trkpt lat="45.13499" lon="3.87262">
        <ele>898.97</ele>
        <time>2023-11-07T11:42:59Z</time>
      </trkpt>
      <trkpt lat="45.13494" lon="3.87235">
        <ele>899.93</ele>
        <time>2023-11-07T11:43:16Z</time>
      </trkpt>
      <trkpt lat="45.13488" lon="3.87207">
        <ele>900.41</ele>
        <time>2023-11-07T11:43:33Z</time>
      </trkpt>
      <trkpt lat="45.13482" lon="3.8718">
        <ele>900.89</ele>
        <time>2023-11-07T11:43:50Z</time>
      </trkpt>
      <trkpt lat="45.13473" lon="3.87147">
        <ele>902.33</ele>
        <time>2023-11-07T11:44:10Z</time>
      </trkpt>
      <trkpt lat="45.13465" lon="3.87109">
        <ele>902.82</ele>
        <time>2023-11-07T11:44:32Z</time>
      </trkpt>
      <trkpt lat="45.13461" lon="3.87073">
        <ele>902.82</ele>
        <time>2023-11-07T11:44:53Z</time>
      </trkpt>
      <trkpt lat="45.13457" lon="3.87036">
        <ele>903.78</ele>
        <time>2023-11-07T11:45:13Z</time>
      </trkpt>
      <trkpt lat="45.13454" lon="3.87002">
        <ele>903.3</ele>
        <time>2023-11-07T11:45:32Z</time>
      </trkpt>
      <trkpt lat="45.13451" lon="3.86967">
        <ele>905.22</ele>
        <time>2023-11-07T11:45:51Z</time>
      </trkpt>
      <trkpt lat="45.13449" lon="3.8694">
        <ele>907.14</ele>
        <time>2023-11-07T11:46:07Z</time>
      </trkpt>
      <trkpt lat="45.13449" lon="3.86935">
        <ele>907.62</ele>
        <time>2023-11-07T11:46:10Z</time>
      </trkpt>
      <trkpt lat="45.13452" lon="3.86931">
        <ele>907.14</ele>
        <time>2023-11-07T11:46:13Z</time>
      </trkpt>
      <trkpt lat="45.13452" lon="3.86921">
        <ele>906.66</ele>
        <time>2023-11-07T11:46:26Z</time>
      </trkpt>
      <trkpt lat="45.13451" lon="3.86918">
        <ele>906.66</ele>
        <time>2023-11-07T11:46:28Z</time>
      </trkpt>
      <trkpt lat="45.13442" lon="3.86888">
        <ele>906.66</ele>
        <time>2023-11-07T11:46:45Z</time>
      </trkpt>
      <trkpt lat="45.13435" lon="3.86878">
        <ele>906.66</ele>
        <time>2023-11-07T11:46:52Z</time>
      </trkpt>
      <trkpt lat="45.13436" lon="3.86843">
        <ele>906.66</ele>
        <time>2023-11-07T11:47:09Z</time>
      </trkpt>
      <trkpt lat="45.13426" lon="3.86809">
        <ele>906.66</ele>
        <time>2023-11-07T11:47:28Z</time>
      </trkpt>
      <trkpt lat="45.1341" lon="3.86783">
        <ele>907.14</ele>
        <time>2023-11-07T11:47:46Z</time>
      </trkpt>
      <trkpt lat="45.13395" lon="3.86764">
        <ele>908.1</ele>
        <time>2023-11-07T11:48:02Z</time>
      </trkpt>
      <trkpt lat="45.13377" lon="3.86761">
        <ele>909.06</ele>
        <time>2023-11-07T11:48:17Z</time>
      </trkpt>
      <trkpt lat="45.13354" lon="3.86757">
        <ele>908.58</ele>
        <time>2023-11-07T11:48:36Z</time>
      </trkpt>
      <trkpt lat="45.13336" lon="3.86741">
        <ele>908.58</ele>
        <time>2023-11-07T11:48:53Z</time>
      </trkpt>
      <trkpt lat="45.13319" lon="3.86722">
        <ele>908.58</ele>
        <time>2023-11-07T11:49:11Z</time>
      </trkpt>
      <trkpt lat="45.13318" lon="3.8672">
        <ele>908.58</ele>
        <time>2023-11-07T11:49:13Z</time>
      </trkpt>
      <trkpt lat="45.13319" lon="3.86707">
        <ele>909.54</ele>
        <time>2023-11-07T11:49:23Z</time>
      </trkpt>
      <trkpt lat="45.13335" lon="3.86696">
        <ele>910.03</ele>
        <time>2023-11-07T11:49:41Z</time>
      </trkpt>
      <trkpt lat="45.13341" lon="3.8669">
        <ele>910.99</ele>
        <time>2023-11-07T11:49:53Z</time>
      </trkpt>
      <trkpt lat="45.13342" lon="3.8669">
        <ele>910.99</ele>
        <time>2023-11-07T11:50:04Z</time>
      </trkpt>
      <trkpt lat="45.13357" lon="3.86693">
        <ele>912.91</ele>
        <time>2023-11-07T11:50:20Z</time>
      </trkpt>
      <trkpt lat="45.13358" lon="3.86692">
        <ele>913.39</ele>
        <time>2023-11-07T11:50:22Z</time>
      </trkpt>
      <trkpt lat="45.13361" lon="3.86691">
        <ele>913.39</ele>
        <time>2023-11-07T11:50:25Z</time>
      </trkpt>
      <trkpt lat="45.13356" lon="3.86677">
        <ele>913.39</ele>
        <time>2023-11-07T11:50:38Z</time>
      </trkpt>
      <trkpt lat="45.13356" lon="3.86678">
        <ele>913.39</ele>
        <time>2023-11-07T11:50:52Z</time>
      </trkpt>
      <trkpt lat="45.13356" lon="3.86677">
        <ele>913.39</ele>
        <time>2023-11-07T11:51:06Z</time>
      </trkpt>
      <trkpt lat="45.13355" lon="3.86677">
        <ele>913.39</ele>
        <time>2023-11-07T11:51:14Z</time>
      </trkpt>
      <trkpt lat="45.13356" lon="3.86682">
        <ele>912.91</ele>
        <time>2023-11-07T11:51:25Z</time>
      </trkpt>
      <trkpt lat="45.13356" lon="3.86683">
        <ele>912.43</ele>
        <time>2023-11-07T11:51:38Z</time>
      </trkpt>
      <trkpt lat="45.1336" lon="3.86688">
        <ele>911.95</ele>
        <time>2023-11-07T11:51:50Z</time>
      </trkpt>
      <trkpt lat="45.13359" lon="3.86689">
        <ele>911.47</ele>
        <time>2023-11-07T11:52:01Z</time>
      </trkpt>
      <trkpt lat="45.13358" lon="3.86689">
        <ele>911.95</ele>
        <time>2023-11-07T11:52:12Z</time>
      </trkpt>
      <trkpt lat="45.13357" lon="3.86689">
        <ele>911.95</ele>
        <time>2023-11-07T11:52:26Z</time>
      </trkpt>
      <trkpt lat="45.13357" lon="3.86688">
        <ele>912.43</ele>
        <time>2023-11-07T11:52:41Z</time>
      </trkpt>
      <trkpt lat="45.13356" lon="3.86689">
        <ele>912.91</ele>
        <time>2023-11-07T11:52:59Z</time>
      </trkpt>
      <trkpt lat="45.13356" lon="3.8669">
        <ele>912.91</ele>
        <time>2023-11-07T11:53:18Z</time>
      </trkpt>
      <trkpt lat="45.13356" lon="3.8669">
        <ele>912.91</ele>
        <time>2023-11-07T11:53:34Z</time>
      </trkpt>
      <trkpt lat="45.13356" lon="3.86691">
        <ele>912.91</ele>
        <time>2023-11-07T11:53:57Z</time>
      </trkpt>
      <trkpt lat="45.13355" lon="3.86691">
        <ele>912.91</ele>
        <time>2023-11-07T11:54:26Z</time>
      </trkpt>
      <trkpt lat="45.13355" lon="3.86691">
        <ele>912.91</ele>
        <time>2023-11-07T11:54:50Z</time>
      </trkpt>
      <trkpt lat="45.13355" lon="3.86691">
        <ele>913.87</ele>
        <time>2023-11-07T11:55:17Z</time>
      </trkpt>
      <trkpt lat="45.13355" lon="3.86692">
        <ele>913.87</ele>
        <time>2023-11-07T11:55:46Z</time>
      </trkpt>
      <trkpt lat="45.13355" lon="3.86692">
        <ele>913.87</ele>
        <time>2023-11-07T11:56:12Z</time>
      </trkpt>
      <trkpt lat="45.13355" lon="3.86692">
        <ele>914.35</ele>
        <time>2023-11-07T11:56:38Z</time>
      </trkpt>
      <trkpt lat="45.13355" lon="3.86692">
        <ele>914.35</ele>
        <time>2023-11-07T11:57:00Z</time>
      </trkpt>
      <trkpt lat="45.13355" lon="3.86692">
        <ele>914.35</ele>
        <time>2023-11-07T11:57:27Z</time>
      </trkpt>
      <trkpt lat="45.13355" lon="3.86692">
        <ele>914.35</ele>
        <time>2023-11-07T11:57:52Z</time>
      </trkpt>
      <trkpt lat="45.13355" lon="3.86691">
        <ele>914.35</ele>
        <time>2023-11-07T11:58:11Z</time>
      </trkpt>
      <trkpt lat="45.13355" lon="3.86691">
        <ele>914.35</ele>
        <time>2023-11-07T11:58:34Z</time>
      </trkpt>
      <trkpt lat="45.13356" lon="3.86691">
        <ele>914.35</ele>
        <time>2023-11-07T11:58:58Z</time>
      </trkpt>
      <trkpt lat="45.13356" lon="3.86692">
        <ele>913.87</ele>
        <time>2023-11-07T11:59:23Z</time>
      </trkpt>
      <trkpt lat="45.13356" lon="3.86692">
        <ele>913.87</ele>
        <time>2023-11-07T11:59:47Z</time>
      </trkpt>
      <trkpt lat="45.13356" lon="3.86692">
        <ele>914.35</ele>
        <time>2023-11-07T12:00:18Z</time>
      </trkpt>
      <trkpt lat="45.13356" lon="3.86692">
        <ele>914.35</ele>
        <time>2023-11-07T12:00:45Z</time>
      </trkpt>
      <trkpt lat="45.13356" lon="3.86692">
        <ele>914.35</ele>
        <time>2023-11-07T12:01:09Z</time>
      </trkpt>
      <trkpt lat="45.13355" lon="3.86692">
        <ele>914.35</ele>
        <time>2023-11-07T12:01:30Z</time>
      </trkpt>
      <trkpt lat="45.13355" lon="3.86691">
        <ele>914.35</ele>
        <time>2023-11-07T12:01:55Z</time>
      </trkpt>
      <trkpt lat="45.13355" lon="3.86691">
        <ele>914.35</ele>
        <time>2023-11-07T12:02:20Z</time>
      </trkpt>
      <trkpt lat="45.13355" lon="3.86691">
        <ele>914.83</ele>
        <time>2023-11-07T12:02:50Z</time>
      </trkpt>
      <trkpt lat="45.13355" lon="3.86691">
        <ele>914.83</ele>
        <time>2023-11-07T12:03:14Z</time>
      </trkpt>
      <trkpt lat="45.13354" lon="3.8669">
        <ele>914.83</ele>
        <time>2023-11-07T12:03:40Z</time>
      </trkpt>
      <trkpt lat="45.13354" lon="3.8669">
        <ele>915.31</ele>
        <time>2023-11-07T12:04:03Z</time>
      </trkpt>
      <trkpt lat="45.13355" lon="3.8669">
        <ele>916.27</ele>
        <time>2023-11-07T12:04:28Z</time>
      </trkpt>
      <trkpt lat="45.13355" lon="3.86691">
        <ele>916.27</ele>
        <time>2023-11-07T12:04:48Z</time>
      </trkpt>
      <trkpt lat="45.13355" lon="3.86691">
        <ele>916.27</ele>
        <time>2023-11-07T12:05:13Z</time>
      </trkpt>
      <trkpt lat="45.13354" lon="3.86691">
        <ele>916.27</ele>
        <time>2023-11-07T12:05:35Z</time>
      </trkpt>
      <trkpt lat="45.13355" lon="3.86691">
        <ele>916.27</ele>
        <time>2023-11-07T12:05:59Z</time>
      </trkpt>
      <trkpt lat="45.13356" lon="3.86691">
        <ele>916.27</ele>
        <time>2023-11-07T12:06:23Z</time>
      </trkpt>
      <trkpt lat="45.13356" lon="3.86691">
        <ele>916.75</ele>
        <time>2023-11-07T12:06:47Z</time>
      </trkpt>
      <trkpt lat="45.13355" lon="3.86691">
        <ele>916.75</ele>
        <time>2023-11-07T12:07:10Z</time>
      </trkpt>
      <trkpt lat="45.13356" lon="3.8669">
        <ele>916.75</ele>
        <time>2023-11-07T12:07:38Z</time>
      </trkpt>
      <trkpt lat="45.13356" lon="3.8669">
        <ele>916.75</ele>
        <time>2023-11-07T12:07:59Z</time>
      </trkpt>
      <trkpt lat="45.13356" lon="3.8669">
        <ele>916.75</ele>
        <time>2023-11-07T12:08:23Z</time>
      </trkpt>
      <trkpt lat="45.13356" lon="3.8669">
        <ele>917.24</ele>
        <time>2023-11-07T12:08:50Z</time>
      </trkpt>
      <trkpt lat="45.13356" lon="3.8669">
        <ele>917.24</ele>
        <time>2023-11-07T12:09:12Z</time>
      </trkpt>
      <trkpt lat="45.13357" lon="3.8669">
        <ele>917.72</ele>
        <time>2023-11-07T12:09:35Z</time>
      </trkpt>
      <trkpt lat="45.13357" lon="3.8669">
        <ele>918.2</ele>
        <time>2023-11-07T12:10:04Z</time>
      </trkpt>
      <trkpt lat="45.13357" lon="3.8669">
        <ele>918.68</ele>
        <time>2023-11-07T12:10:28Z</time>
      </trkpt>
      <trkpt lat="45.13356" lon="3.8669">
        <ele>918.68</ele>
        <time>2023-11-07T12:10:47Z</time>
      </trkpt>
      <trkpt lat="45.13356" lon="3.8669">
        <ele>918.68</ele>
        <time>2023-11-07T12:11:10Z</time>
      </trkpt>
      <trkpt lat="45.13355" lon="3.8669">
        <ele>919.64</ele>
        <time>2023-11-07T12:11:32Z</time>
      </trkpt>
      <trkpt lat="45.13355" lon="3.8669">
        <ele>920.12</ele>
        <time>2023-11-07T12:11:55Z</time>
      </trkpt>
      <trkpt lat="45.13354" lon="3.8669">
        <ele>921.08</ele>
        <time>2023-11-07T12:12:17Z</time>
      </trkpt>
      <trkpt lat="45.13354" lon="3.8669">
        <ele>921.08</ele>
        <time>2023-11-07T12:12:43Z</time>
      </trkpt>
      <trkpt lat="45.13354" lon="3.8669">
        <ele>921.08</ele>
        <time>2023-11-07T12:13:05Z</time>
      </trkpt>
      <trkpt lat="45.13354" lon="3.8669">
        <ele>921.08</ele>
        <time>2023-11-07T12:13:31Z</time>
      </trkpt>
      <trkpt lat="45.13354" lon="3.8669">
        <ele>921.08</ele>
        <time>2023-11-07T12:13:51Z</time>
      </trkpt>
      <trkpt lat="45.13355" lon="3.8669">
        <ele>921.08</ele>
        <time>2023-11-07T12:14:13Z</time>
      </trkpt>
      <trkpt lat="45.13355" lon="3.8669">
        <ele>921.08</ele>
        <time>2023-11-07T12:14:36Z</time>
      </trkpt>
      <trkpt lat="45.13355" lon="3.8669">
        <ele>921.56</ele>
        <time>2023-11-07T12:14:58Z</time>
      </trkpt>
      <trkpt lat="45.13355" lon="3.8669">
        <ele>921.56</ele>
        <time>2023-11-07T12:15:23Z</time>
      </trkpt>
      <trkpt lat="45.13355" lon="3.8669">
        <ele>921.56</ele>
        <time>2023-11-07T12:15:46Z</time>
      </trkpt>
      <trkpt lat="45.13355" lon="3.8669">
        <ele>921.56</ele>
        <time>2023-11-07T12:16:08Z</time>
      </trkpt>
      <trkpt lat="45.13355" lon="3.86691">
        <ele>921.56</ele>
        <time>2023-11-07T12:16:29Z</time>
      </trkpt>
      <trkpt lat="45.13355" lon="3.86691">
        <ele>921.56</ele>
        <time>2023-11-07T12:16:51Z</time>
      </trkpt>
      <trkpt lat="45.13355" lon="3.86692">
        <ele>921.56</ele>
        <time>2023-11-07T12:17:15Z</time>
      </trkpt>
      <trkpt lat="45.13355" lon="3.86691">
        <ele>922.04</ele>
        <time>2023-11-07T12:17:37Z</time>
      </trkpt>
      <trkpt lat="45.13355" lon="3.86691">
        <ele>922.04</ele>
        <time>2023-11-07T12:17:57Z</time>
      </trkpt>
      <trkpt lat="45.13355" lon="3.86691">
        <ele>922.52</ele>
        <time>2023-11-07T12:18:29Z</time>
      </trkpt>
      <trkpt lat="45.13355" lon="3.86691">
        <ele>923</ele>
        <time>2023-11-07T12:18:56Z</time>
      </trkpt>
      <trkpt lat="45.13355" lon="3.86691">
        <ele>923</ele>
        <time>2023-11-07T12:19:26Z</time>
      </trkpt>
      <trkpt lat="45.13355" lon="3.86691">
        <ele>923</ele>
        <time>2023-11-07T12:20:01Z</time>
      </trkpt>
      <trkpt lat="45.13354" lon="3.86691">
        <ele>923</ele>
        <time>2023-11-07T12:20:34Z</time>
      </trkpt>
      <trkpt lat="45.13354" lon="3.86691">
        <ele>923</ele>
        <time>2023-11-07T12:21:03Z</time>
      </trkpt>
      <trkpt lat="45.13354" lon="3.86691">
        <ele>923</ele>
        <time>2023-11-07T12:21:33Z</time>
      </trkpt>
      <trkpt lat="45.13354" lon="3.86691">
        <ele>923</ele>
        <time>2023-11-07T12:21:58Z</time>
      </trkpt>
      <trkpt lat="45.13354" lon="3.8669">
        <ele>923</ele>
        <time>2023-11-07T12:22:29Z</time>
      </trkpt>
      <trkpt lat="45.13354" lon="3.8669">
        <ele>922.52</ele>
        <time>2023-11-07T12:23:00Z</time>
      </trkpt>
      <trkpt lat="45.13354" lon="3.8669">
        <ele>922.04</ele>
        <time>2023-11-07T12:23:40Z</time>
      </trkpt>
      <trkpt lat="45.13353" lon="3.8669">
        <ele>921.56</ele>
        <time>2023-11-07T12:24:06Z</time>
      </trkpt>
      <trkpt lat="45.13353" lon="3.8669">
        <ele>921.56</ele>
        <time>2023-11-07T12:24:29Z</time>
      </trkpt>
      <trkpt lat="45.13353" lon="3.86691">
        <ele>921.08</ele>
        <time>2023-11-07T12:24:52Z</time>
      </trkpt>
      <trkpt lat="45.13353" lon="3.8669">
        <ele>920.6</ele>
        <time>2023-11-07T12:25:13Z</time>
      </trkpt>
      <trkpt lat="45.13354" lon="3.86691">
        <ele>920.12</ele>
        <time>2023-11-07T12:25:32Z</time>
      </trkpt>
      <trkpt lat="45.13355" lon="3.8669">
        <ele>919.64</ele>
        <time>2023-11-07T12:25:55Z</time>
      </trkpt>
      <trkpt lat="45.13355" lon="3.8669">
        <ele>919.16</ele>
        <time>2023-11-07T12:26:14Z</time>
      </trkpt>
      <trkpt lat="45.13355" lon="3.8669">
        <ele>918.68</ele>
        <time>2023-11-07T12:26:37Z</time>
      </trkpt>
      <trkpt lat="45.13355" lon="3.8669">
        <ele>917.72</ele>
        <time>2023-11-07T12:27:01Z</time>
      </trkpt>
      <trkpt lat="45.13355" lon="3.86689">
        <ele>917.72</ele>
        <time>2023-11-07T12:27:19Z</time>
      </trkpt>
      <trkpt lat="45.13354" lon="3.86689">
        <ele>916.75</ele>
        <time>2023-11-07T12:27:43Z</time>
      </trkpt>
      <trkpt lat="45.13354" lon="3.86689">
        <ele>915.79</ele>
        <time>2023-11-07T12:28:11Z</time>
      </trkpt>
      <trkpt lat="45.13354" lon="3.86689">
        <ele>915.31</ele>
        <time>2023-11-07T12:28:32Z</time>
      </trkpt>
      <trkpt lat="45.13355" lon="3.86689">
        <ele>915.31</ele>
        <time>2023-11-07T12:28:57Z</time>
      </trkpt>
      <trkpt lat="45.13354" lon="3.86689">
        <ele>914.83</ele>
        <time>2023-11-07T12:29:16Z</time>
      </trkpt>
      <trkpt lat="45.13355" lon="3.86689">
        <ele>913.87</ele>
        <time>2023-11-07T12:29:45Z</time>
      </trkpt>
      <trkpt lat="45.13355" lon="3.86689">
        <ele>913.39</ele>
        <time>2023-11-07T12:30:08Z</time>
      </trkpt>
      <trkpt lat="45.13355" lon="3.86689">
        <ele>913.39</ele>
        <time>2023-11-07T12:30:34Z</time>
      </trkpt>
      <trkpt lat="45.13355" lon="3.86688">
        <ele>913.39</ele>
        <time>2023-11-07T12:31:00Z</time>
      </trkpt>
      <trkpt lat="45.13355" lon="3.86688">
        <ele>912.91</ele>
        <time>2023-11-07T12:31:30Z</time>
      </trkpt>
      <trkpt lat="45.13355" lon="3.86688">
        <ele>912.91</ele>
        <time>2023-11-07T12:31:54Z</time>
      </trkpt>
      <trkpt lat="45.13355" lon="3.86688">
        <ele>912.43</ele>
        <time>2023-11-07T12:32:12Z</time>
      </trkpt>
      <trkpt lat="45.13356" lon="3.8669">
        <ele>912.43</ele>
        <time>2023-11-07T12:32:37Z</time>
      </trkpt>
      <trkpt lat="45.13355" lon="3.8669">
        <ele>911.95</ele>
        <time>2023-11-07T12:32:58Z</time>
      </trkpt>
      <trkpt lat="45.13355" lon="3.8669">
        <ele>911.95</ele>
        <time>2023-11-07T12:33:15Z</time>
      </trkpt>
      <trkpt lat="45.13355" lon="3.8669">
        <ele>911.47</ele>
        <time>2023-11-07T12:33:38Z</time>
      </trkpt>
      <trkpt lat="45.13355" lon="3.8669">
        <ele>911.47</ele>
        <time>2023-11-07T12:33:51Z</time>
      </trkpt>
      <trkpt lat="45.13355" lon="3.8669">
        <ele>911.47</ele>
        <time>2023-11-07T12:33:55Z</time>
      </trkpt>
      <trkpt lat="45.13355" lon="3.8669">
        <ele>911.47</ele>
        <time>2023-11-07T12:34:07Z</time>
      </trkpt>
      <trkpt lat="45.13355" lon="3.8669">
        <ele>910.99</ele>
        <time>2023-11-07T12:34:23Z</time>
      </trkpt>
      <trkpt lat="45.13355" lon="3.8669">
        <ele>910.99</ele>
        <time>2023-11-07T12:34:35Z</time>
      </trkpt>
      <trkpt lat="45.13355" lon="3.8669">
        <ele>910.51</ele>
        <time>2023-11-07T12:34:48Z</time>
      </trkpt>
      <trkpt lat="45.13355" lon="3.8669">
        <ele>910.03</ele>
        <time>2023-11-07T12:34:58Z</time>
      </trkpt>
      <trkpt lat="45.13354" lon="3.86689">
        <ele>910.03</ele>
        <time>2023-11-07T12:35:13Z</time>
      </trkpt>
      <trkpt lat="45.13354" lon="3.86689">
        <ele>910.03</ele>
        <time>2023-11-07T12:35:29Z</time>
      </trkpt>
      <trkpt lat="45.13354" lon="3.86689">
        <ele>910.03</ele>
        <time>2023-11-07T12:35:47Z</time>
      </trkpt>
      <trkpt lat="45.13353" lon="3.86689">
        <ele>910.51</ele>
        <time>2023-11-07T12:36:04Z</time>
      </trkpt>
      <trkpt lat="45.13353" lon="3.86689">
        <ele>910.51</ele>
        <time>2023-11-07T12:36:22Z</time>
      </trkpt>
      <trkpt lat="45.13345" lon="3.86689">
        <ele>909.54</ele>
        <time>2023-11-07T12:36:33Z</time>
      </trkpt>
      <trkpt lat="45.13342" lon="3.8669">
        <ele>909.54</ele>
        <time>2023-11-07T12:36:46Z</time>
      </trkpt>
      <trkpt lat="45.13339" lon="3.86692">
        <ele>909.54</ele>
        <time>2023-11-07T12:36:56Z</time>
      </trkpt>
      <trkpt lat="45.13335" lon="3.86693">
        <ele>909.06</ele>
        <time>2023-11-07T12:37:02Z</time>
      </trkpt>
      <trkpt lat="45.13318" lon="3.86701">
        <ele>907.14</ele>
        <time>2023-11-07T12:37:19Z</time>
      </trkpt>
      <trkpt lat="45.1331" lon="3.86704">
        <ele>905.7</ele>
        <time>2023-11-07T12:37:27Z</time>
      </trkpt>
      <trkpt lat="45.13304" lon="3.86698">
        <ele>905.22</ele>
        <time>2023-11-07T12:37:35Z</time>
      </trkpt>
      <trkpt lat="45.13299" lon="3.86665">
        <ele>903.78</ele>
        <time>2023-11-07T12:37:55Z</time>
      </trkpt>
      <trkpt lat="45.133" lon="3.86635">
        <ele>902.33</ele>
        <time>2023-11-07T12:38:13Z</time>
      </trkpt>
      <trkpt lat="45.1331" lon="3.86611">
        <ele>901.37</ele>
        <time>2023-11-07T12:38:29Z</time>
      </trkpt>
      <trkpt lat="45.13318" lon="3.86593">
        <ele>900.89</ele>
        <time>2023-11-07T12:38:41Z</time>
      </trkpt>
      <trkpt lat="45.13322" lon="3.86586">
        <ele>900.89</ele>
        <time>2023-11-07T12:38:46Z</time>
      </trkpt>
      <trkpt lat="45.1333" lon="3.86576">
        <ele>899.93</ele>
        <time>2023-11-07T12:39:01Z</time>
      </trkpt>
      <trkpt lat="45.13336" lon="3.86574">
        <ele>900.41</ele>
        <time>2023-11-07T12:39:06Z</time>
      </trkpt>
      <trkpt lat="45.13352" lon="3.86563">
        <ele>901.85</ele>
        <time>2023-11-07T12:39:21Z</time>
      </trkpt>
      <trkpt lat="45.13368" lon="3.86553">
        <ele>903.3</ele>
        <time>2023-11-07T12:39:36Z</time>
      </trkpt>
      <trkpt lat="45.13387" lon="3.86548">
        <ele>904.26</ele>
        <time>2023-11-07T12:39:52Z</time>
      </trkpt>
      <trkpt lat="45.13403" lon="3.86546">
        <ele>904.74</ele>
        <time>2023-11-07T12:40:06Z</time>
      </trkpt>
      <trkpt lat="45.13417" lon="3.86552">
        <ele>906.66</ele>
        <time>2023-11-07T12:40:20Z</time>
      </trkpt>
      <trkpt lat="45.13436" lon="3.86563">
        <ele>907.14</ele>
        <time>2023-11-07T12:40:37Z</time>
      </trkpt>
      <trkpt lat="45.13455" lon="3.86572">
        <ele>908.1</ele>
        <time>2023-11-07T12:40:54Z</time>
      </trkpt>
      <trkpt lat="45.13463" lon="3.86576">
        <ele>908.1</ele>
        <time>2023-11-07T12:41:02Z</time>
      </trkpt>
      <trkpt lat="45.13483" lon="3.86583">
        <ele>910.03</ele>
        <time>2023-11-07T12:41:18Z</time>
      </trkpt>
      <trkpt lat="45.13502" lon="3.86591">
        <ele>911.95</ele>
        <time>2023-11-07T12:41:35Z</time>
      </trkpt>
      <trkpt lat="45.13516" lon="3.86596">
        <ele>913.87</ele>
        <time>2023-11-07T12:41:49Z</time>
      </trkpt>
      <trkpt lat="45.13528" lon="3.86602">
        <ele>915.31</ele>
        <time>2023-11-07T12:42:02Z</time>
      </trkpt>
      <trkpt lat="45.13544" lon="3.86607">
        <ele>917.24</ele>
        <time>2023-11-07T12:42:17Z</time>
      </trkpt>
      <trkpt lat="45.1356" lon="3.86614">
        <ele>918.2</ele>
        <time>2023-11-07T12:42:32Z</time>
      </trkpt>
      <trkpt lat="45.13577" lon="3.8662">
        <ele>919.64</ele>
        <time>2023-11-07T12:42:46Z</time>
      </trkpt>
      <trkpt lat="45.13596" lon="3.86628">
        <ele>921.56</ele>
        <time>2023-11-07T12:43:03Z</time>
      </trkpt>
      <trkpt lat="45.13609" lon="3.86632">
        <ele>923</ele>
        <time>2023-11-07T12:43:15Z</time>
      </trkpt>
      <trkpt lat="45.13622" lon="3.86637">
        <ele>924.45</ele>
        <time>2023-11-07T12:43:27Z</time>
      </trkpt>
      <trkpt lat="45.1363" lon="3.8664">
        <ele>924.45</ele>
        <time>2023-11-07T12:43:35Z</time>
      </trkpt>
      <trkpt lat="45.13634" lon="3.86632">
        <ele>925.89</ele>
        <time>2023-11-07T12:43:44Z</time>
      </trkpt>
      <trkpt lat="45.13635" lon="3.86625">
        <ele>925.89</ele>
        <time>2023-11-07T12:43:49Z</time>
      </trkpt>
      <trkpt lat="45.13641" lon="3.86595">
        <ele>926.37</ele>
        <time>2023-11-07T12:44:09Z</time>
      </trkpt>
      <trkpt lat="45.13649" lon="3.86566">
        <ele>925.41</ele>
        <time>2023-11-07T12:44:27Z</time>
      </trkpt>
      <trkpt lat="45.13657" lon="3.86534">
        <ele>923.96</ele>
        <time>2023-11-07T12:44:46Z</time>
      </trkpt>
      <trkpt lat="45.13665" lon="3.86502">
        <ele>922.52</ele>
        <time>2023-11-07T12:45:05Z</time>
      </trkpt>
      <trkpt lat="45.13671" lon="3.86469">
        <ele>922.52</ele>
        <time>2023-11-07T12:45:24Z</time>
      </trkpt>
      <trkpt lat="45.13677" lon="3.86435">
        <ele>922.04</ele>
        <time>2023-11-07T12:45:43Z</time>
      </trkpt>
      <trkpt lat="45.13677" lon="3.86397">
        <ele>922.04</ele>
        <time>2023-11-07T12:46:03Z</time>
      </trkpt>
      <trkpt lat="45.13677" lon="3.86366">
        <ele>921.56</ele>
        <time>2023-11-07T12:46:19Z</time>
      </trkpt>
      <trkpt lat="45.13675" lon="3.86333">
        <ele>920.6</ele>
        <time>2023-11-07T12:46:37Z</time>
      </trkpt>
      <trkpt lat="45.13673" lon="3.86299">
        <ele>921.08</ele>
        <time>2023-11-07T12:46:55Z</time>
      </trkpt>
      <trkpt lat="45.13671" lon="3.86262">
        <ele>922.52</ele>
        <time>2023-11-07T12:47:15Z</time>
      </trkpt>
      <trkpt lat="45.13668" lon="3.86228">
        <ele>924.45</ele>
        <time>2023-11-07T12:47:34Z</time>
      </trkpt>
      <trkpt lat="45.13666" lon="3.86198">
        <ele>926.37</ele>
        <time>2023-11-07T12:47:52Z</time>
      </trkpt>
      <trkpt lat="45.13665" lon="3.86193">
        <ele>926.37</ele>
        <time>2023-11-07T12:47:55Z</time>
      </trkpt>
      <trkpt lat="45.13665" lon="3.86191">
        <ele>926.85</ele>
        <time>2023-11-07T12:47:57Z</time>
      </trkpt>
      <trkpt lat="45.13665" lon="3.86185">
        <ele>927.33</ele>
        <time>2023-11-07T12:48:09Z</time>
      </trkpt>
      <trkpt lat="45.13666" lon="3.86181">
        <ele>927.33</ele>
        <time>2023-11-07T12:48:17Z</time>
      </trkpt>
      <trkpt lat="45.13666" lon="3.86175">
        <ele>927.81</ele>
        <time>2023-11-07T12:48:21Z</time>
      </trkpt>
      <trkpt lat="45.13667" lon="3.86155">
        <ele>929.73</ele>
        <time>2023-11-07T12:48:34Z</time>
      </trkpt>
      <trkpt lat="45.13667" lon="3.86148">
        <ele>930.21</ele>
        <time>2023-11-07T12:48:39Z</time>
      </trkpt>
      <trkpt lat="45.13666" lon="3.86121">
        <ele>932.14</ele>
        <time>2023-11-07T12:48:55Z</time>
      </trkpt>
      <trkpt lat="45.13668" lon="3.86095">
        <ele>934.06</ele>
        <time>2023-11-07T12:49:14Z</time>
      </trkpt>
      <trkpt lat="45.13678" lon="3.86067">
        <ele>936.46</ele>
        <time>2023-11-07T12:49:32Z</time>
      </trkpt>
      <trkpt lat="45.13691" lon="3.86042">
        <ele>938.38</ele>
        <time>2023-11-07T12:49:50Z</time>
      </trkpt>
      <trkpt lat="45.13702" lon="3.8602">
        <ele>939.83</ele>
        <time>2023-11-07T12:50:06Z</time>
      </trkpt>
      <trkpt lat="45.13711" lon="3.86002">
        <ele>940.79</ele>
        <time>2023-11-07T12:50:19Z</time>
      </trkpt>
      <trkpt lat="45.13727" lon="3.85971">
        <ele>943.19</ele>
        <time>2023-11-07T12:50:41Z</time>
      </trkpt>
      <trkpt lat="45.13741" lon="3.85941">
        <ele>944.15</ele>
        <time>2023-11-07T12:51:01Z</time>
      </trkpt>
      <trkpt lat="45.13742" lon="3.8594">
        <ele>944.15</ele>
        <time>2023-11-07T12:51:02Z</time>
      </trkpt>
      <trkpt lat="45.13756" lon="3.8591">
        <ele>944.15</ele>
        <time>2023-11-07T12:51:22Z</time>
      </trkpt>
      <trkpt lat="45.1377" lon="3.85882">
        <ele>944.63</ele>
        <time>2023-11-07T12:51:41Z</time>
      </trkpt>
      <trkpt lat="45.13786" lon="3.85857">
        <ele>945.11</ele>
        <time>2023-11-07T12:51:59Z</time>
      </trkpt>
      <trkpt lat="45.13803" lon="3.85835">
        <ele>944.63</ele>
        <time>2023-11-07T12:52:16Z</time>
      </trkpt>
      <trkpt lat="45.13819" lon="3.85806">
        <ele>945.59</ele>
        <time>2023-11-07T12:52:35Z</time>
      </trkpt>
      <trkpt lat="45.13832" lon="3.85771">
        <ele>946.07</ele>
        <time>2023-11-07T12:52:56Z</time>
      </trkpt>
      <trkpt lat="45.13842" lon="3.85736">
        <ele>945.59</ele>
        <time>2023-11-07T12:53:16Z</time>
      </trkpt>
      <trkpt lat="45.13849" lon="3.85704">
        <ele>947.04</ele>
        <time>2023-11-07T12:53:34Z</time>
      </trkpt>
      <trkpt lat="45.13857" lon="3.85665">
        <ele>948.48</ele>
        <time>2023-11-07T12:53:55Z</time>
      </trkpt>
      <trkpt lat="45.13871" lon="3.8563">
        <ele>948.96</ele>
        <time>2023-11-07T12:54:16Z</time>
      </trkpt>
      <trkpt lat="45.13882" lon="3.85602">
        <ele>949.92</ele>
        <time>2023-11-07T12:54:34Z</time>
      </trkpt>
      <trkpt lat="45.13896" lon="3.85572">
        <ele>951.36</ele>
        <time>2023-11-07T12:54:53Z</time>
      </trkpt>
      <trkpt lat="45.13916" lon="3.85546">
        <ele>953.77</ele>
        <time>2023-11-07T12:55:14Z</time>
      </trkpt>
      <trkpt lat="45.1394" lon="3.85526">
        <ele>955.69</ele>
        <time>2023-11-07T12:55:34Z</time>
      </trkpt>
      <trkpt lat="45.13965" lon="3.85504">
        <ele>955.69</ele>
        <time>2023-11-07T12:55:55Z</time>
      </trkpt>
      <trkpt lat="45.13988" lon="3.85486">
        <ele>955.21</ele>
        <time>2023-11-07T12:56:15Z</time>
      </trkpt>
      <trkpt lat="45.14012" lon="3.85465">
        <ele>956.17</ele>
        <time>2023-11-07T12:56:36Z</time>
      </trkpt>
      <trkpt lat="45.14023" lon="3.85455">
        <ele>957.13</ele>
        <time>2023-11-07T12:56:51Z</time>
      </trkpt>
      <trkpt lat="45.14022" lon="3.85455">
        <ele>957.13</ele>
        <time>2023-11-07T12:57:05Z</time>
      </trkpt>
      <trkpt lat="45.14021" lon="3.85455">
        <ele>957.13</ele>
        <time>2023-11-07T12:57:18Z</time>
      </trkpt>
      <trkpt lat="45.14021" lon="3.85455">
        <ele>957.13</ele>
        <time>2023-11-07T12:57:36Z</time>
      </trkpt>
      <trkpt lat="45.14029" lon="3.85451">
        <ele>957.13</ele>
        <time>2023-11-07T12:57:48Z</time>
      </trkpt>
      <trkpt lat="45.14029" lon="3.85451">
        <ele>957.13</ele>
        <time>2023-11-07T12:57:59Z</time>
      </trkpt>
      <trkpt lat="45.14037" lon="3.85449">
        <ele>957.13</ele>
        <time>2023-11-07T12:58:11Z</time>
      </trkpt>
      <trkpt lat="45.14043" lon="3.85447">
        <ele>957.61</ele>
        <time>2023-11-07T12:58:21Z</time>
      </trkpt>
      <trkpt lat="45.14062" lon="3.85442">
        <ele>957.61</ele>
        <time>2023-11-07T12:58:39Z</time>
      </trkpt>
      <trkpt lat="45.14083" lon="3.85439">
        <ele>958.09</ele>
        <time>2023-11-07T12:58:57Z</time>
      </trkpt>
      <trkpt lat="45.14108" lon="3.85435">
        <ele>958.57</ele>
        <time>2023-11-07T12:59:17Z</time>
      </trkpt>
      <trkpt lat="45.14128" lon="3.85431">
        <ele>959.05</ele>
        <time>2023-11-07T12:59:33Z</time>
      </trkpt>
      <trkpt lat="45.14154" lon="3.8543">
        <ele>958.57</ele>
        <time>2023-11-07T12:59:53Z</time>
      </trkpt>
      <trkpt lat="45.14181" lon="3.8544">
        <ele>959.05</ele>
        <time>2023-11-07T13:00:15Z</time>
      </trkpt>
      <trkpt lat="45.14204" lon="3.85445">
        <ele>959.53</ele>
        <time>2023-11-07T13:00:33Z</time>
      </trkpt>
      <trkpt lat="45.14229" lon="3.85446">
        <ele>960.01</ele>
        <time>2023-11-07T13:00:52Z</time>
      </trkpt>
      <trkpt lat="45.14251" lon="3.85444">
        <ele>960.49</ele>
        <time>2023-11-07T13:01:11Z</time>
      </trkpt>
      <trkpt lat="45.14278" lon="3.85444">
        <ele>959.53</ele>
        <time>2023-11-07T13:01:31Z</time>
      </trkpt>
      <trkpt lat="45.14304" lon="3.85445">
        <ele>959.53</ele>
        <time>2023-11-07T13:01:51Z</time>
      </trkpt>
      <trkpt lat="45.14329" lon="3.85447">
        <ele>960.01</ele>
        <time>2023-11-07T13:02:10Z</time>
      </trkpt>
      <trkpt lat="45.14353" lon="3.85452">
        <ele>959.05</ele>
        <time>2023-11-07T13:02:29Z</time>
      </trkpt>
      <trkpt lat="45.14378" lon="3.85462">
        <ele>958.09</ele>
        <time>2023-11-07T13:02:49Z</time>
      </trkpt>
      <trkpt lat="45.144" lon="3.85474">
        <ele>958.09</ele>
        <time>2023-11-07T13:03:07Z</time>
      </trkpt>
      <trkpt lat="45.14421" lon="3.85487">
        <ele>957.13</ele>
        <time>2023-11-07T13:03:24Z</time>
      </trkpt>
      <trkpt lat="45.14441" lon="3.85507">
        <ele>956.17</ele>
        <time>2023-11-07T13:03:42Z</time>
      </trkpt>
      <trkpt lat="45.14463" lon="3.85526">
        <ele>955.21</ele>
        <time>2023-11-07T13:04:02Z</time>
      </trkpt>
      <trkpt lat="45.14488" lon="3.8554">
        <ele>954.25</ele>
        <time>2023-11-07T13:04:23Z</time>
      </trkpt>
      <trkpt lat="45.1452" lon="3.85552">
        <ele>952.8</ele>
        <time>2023-11-07T13:04:47Z</time>
      </trkpt>
      <trkpt lat="45.1455" lon="3.85545">
        <ele>951.36</ele>
        <time>2023-11-07T13:05:11Z</time>
      </trkpt>
      <trkpt lat="45.14579" lon="3.85534">
        <ele>951.36</ele>
        <time>2023-11-07T13:05:33Z</time>
      </trkpt>
      <trkpt lat="45.14611" lon="3.85524">
        <ele>952.32</ele>
        <time>2023-11-07T13:05:57Z</time>
      </trkpt>
      <trkpt lat="45.14641" lon="3.85517">
        <ele>952.8</ele>
        <time>2023-11-07T13:06:19Z</time>
      </trkpt>
      <trkpt lat="45.14668" lon="3.85511">
        <ele>948.96</ele>
        <time>2023-11-07T13:06:40Z</time>
      </trkpt>
      <trkpt lat="45.14697" lon="3.85507">
        <ele>948</ele>
        <time>2023-11-07T13:07:02Z</time>
      </trkpt>
      <trkpt lat="45.14717" lon="3.85504">
        <ele>948.96</ele>
        <time>2023-11-07T13:07:21Z</time>
      </trkpt>
      <trkpt lat="45.14718" lon="3.85506">
        <ele>949.92</ele>
        <time>2023-11-07T13:07:33Z</time>
      </trkpt>
      <trkpt lat="45.14722" lon="3.85512">
        <ele>950.88</ele>
        <time>2023-11-07T13:07:41Z</time>
      </trkpt>
      <trkpt lat="45.14732" lon="3.85538">
        <ele>952.8</ele>
        <time>2023-11-07T13:07:59Z</time>
      </trkpt>
      <trkpt lat="45.14735" lon="3.8555">
        <ele>949.9</ele>
      </trkpt>
      <trkpt lat="45.14743" lon="3.85564">
        <ele>950.9</ele>
      </trkpt>
      <trkpt lat="45.14744" lon="3.85586">
        <ele>953.7</ele>
      </trkpt>
      <trkpt lat="45.14757" lon="3.85611">
        <ele>956.4</ele>
      </trkpt>
      <trkpt lat="45.14759" lon="3.85654">
        <ele>960.6</ele>
      </trkpt>
      <trkpt lat="45.14739" lon="3.85697">
        <ele>967</ele>
      </trkpt>
      <trkpt lat="45.14691" lon="3.85785">
        <ele>980.1</ele>
      </trkpt>
      <trkpt lat="45.14637" lon="3.8579">
        <ele>990.2</ele>
      </trkpt>
      <trkpt lat="45.1457" lon="3.85818">
        <ele>998.4</ele>
      </trkpt>
      <trkpt lat="45.14534" lon="3.85865">
        <ele>1006.6</ele>
      </trkpt>
      <trkpt lat="45.14511" lon="3.85956">
        <ele>1020</ele>
      </trkpt>
      <trkpt lat="45.14526" lon="3.86042">
        <ele>1035.6</ele>
      </trkpt>
      <trkpt lat="45.14558" lon="3.86128">
        <ele>1043.1</ele>
      </trkpt>
      <trkpt lat="45.14599" lon="3.86163">
        <ele>1042.1</ele>
      </trkpt>
      <trkpt lat="45.14604" lon="3.86175">
        <ele>1041.1</ele>
      </trkpt>
      <trkpt lat="45.14594" lon="3.86198">
        <ele>1042.4</ele>
      </trkpt>
      <trkpt lat="45.14576" lon="3.86225">
        <ele>1044.7</ele>
      </trkpt>
      <trkpt lat="45.14557" lon="3.86282">
        <ele>1050.4</ele>
      </trkpt>
      <trkpt lat="45.1452" lon="3.8633">
        <ele>1053.8</ele>
      </trkpt>
      <trkpt lat="45.14502" lon="3.86356">
        <ele>1055.5</ele>
      </trkpt>
      <trkpt lat="45.14502" lon="3.86438">
        <ele>1061.2</ele>
      </trkpt>
      <trkpt lat="45.14493" lon="3.86466">
        <ele>1059.7</ele>
      </trkpt>
      <trkpt lat="45.14499" lon="3.86483">
        <ele>1059.2</ele>
      </trkpt>
      <trkpt lat="45.14505" lon="3.86491">
        <ele>1058.2</ele>
      </trkpt>
      <trkpt lat="45.14584" lon="3.86483">
        <ele>1050.9</ele>
      </trkpt>
      <trkpt lat="45.1459" lon="3.86496">
        <ele>1046.2</ele>
      </trkpt>
      <trkpt lat="45.14593" lon="3.86513">
        <ele>1040.9</ele>
      </trkpt>
      <trkpt lat="45.14564" lon="3.86558">
        <ele>1031</ele>
      </trkpt>
      <trkpt lat="45.14698" lon="3.8661">
        <ele>998</ele>
      </trkpt>
      <trkpt lat="45.14738" lon="3.86531">
        <ele>993</ele>
      </trkpt>
      <trkpt lat="45.14776" lon="3.86476">
        <ele>983.4</ele>
      </trkpt>
      <trkpt lat="45.14784" lon="3.86454">
        <ele>978.5</ele>
      </trkpt>
      <trkpt lat="45.14736" lon="3.86257">
        <ele>972.4</ele>
      </trkpt>
      <trkpt lat="45.14733" lon="3.86209">
        <ele>974.3</ele>
      </trkpt>
      <trkpt lat="45.1474" lon="3.86161">
        <ele>978.1</ele>
      </trkpt>
      <trkpt lat="45.14732" lon="3.86097">
        <ele>985.2</ele>
      </trkpt>
      <trkpt lat="45.14718" lon="3.86045">
        <ele>983.5</ele>
      </trkpt>
      <trkpt lat="45.14714" lon="3.86016">
        <ele>980.6</ele>
      </trkpt>
      <trkpt lat="45.14719" lon="3.85906">
        <ele>976.8</ele>
      </trkpt>
      <trkpt lat="45.14716" lon="3.85836">
        <ele>970.6</ele>
      </trkpt>
      <trkpt lat="45.14723" lon="3.85777">
        <ele>967.5</ele>
      </trkpt>
      <trkpt lat="45.14737" lon="3.85717">
        <ele>966.5</ele>
      </trkpt>
      <trkpt lat="45.1475" lon="3.8568">
        <ele>964.5</ele>
      </trkpt>
      <trkpt lat="45.14763" lon="3.85618">
        <ele>956.7</ele>
      </trkpt>
      <trkpt lat="45.14749" lon="3.85589">
        <ele>953.9</ele>
      </trkpt>
      <trkpt lat="45.14747" lon="3.85564">
        <ele>950.6</ele>
      </trkpt>
      <trkpt lat="45.14773" lon="3.856">
        <ele>953</ele>
      </trkpt>
      <trkpt lat="45.14776" lon="3.85607">
        <ele>954.3</ele>
      </trkpt>
      <trkpt lat="45.14783" lon="3.85622">
        <ele>953.7</ele>
      </trkpt>
      <trkpt lat="45.14789" lon="3.85658">
        <ele>955.5</ele>
      </trkpt>
      <trkpt lat="45.14789" lon="3.85675">
        <ele>955.3</ele>
      </trkpt>
      <trkpt lat="45.14785" lon="3.85688">
        <ele>955.4</ele>
      </trkpt>
      <trkpt lat="45.14764" lon="3.85712">
        <ele>957.9</ele>
      </trkpt>
      <trkpt lat="45.14754" lon="3.85729">
        <ele>958.1</ele>
      </trkpt>
      <trkpt lat="45.14749" lon="3.85743">
        <ele>957.7</ele>
      </trkpt>
      <trkpt lat="45.14747" lon="3.85748">
        <ele>957.8</ele>
      </trkpt>
      <trkpt lat="45.14738" lon="3.85799">
        <ele>956.3</ele>
      </trkpt>
      <trkpt lat="45.14741" lon="3.85826">
        <ele>956.1</ele>
      </trkpt>
      <trkpt lat="45.14763" lon="3.85873">
        <ele>952.6</ele>
      </trkpt>
      <trkpt lat="45.14768" lon="3.8589">
        <ele>954.2</ele>
      </trkpt>
      <trkpt lat="45.14771" lon="3.85906">
        <ele>952.5</ele>
      </trkpt>
      <trkpt lat="45.14774" lon="3.8595">
        <ele>949.8</ele>
      </trkpt>
      <trkpt lat="45.14782" lon="3.85974">
        <ele>947.4</ele>
      </trkpt>
      <trkpt lat="45.14783" lon="3.85988">
        <ele>955.21</ele>
        <time>2023-11-07T14:16:20Z</time>
      </trkpt>
      <trkpt lat="45.14791" lon="3.86005">
        <ele>954.73</ele>
        <time>2023-11-07T14:16:34Z</time>
      </trkpt>
      <trkpt lat="45.14797" lon="3.86013">
        <ele>956.65</ele>
        <time>2023-11-07T14:16:41Z</time>
      </trkpt>
      <trkpt lat="45.14801" lon="3.86018">
        <ele>957.61</ele>
        <time>2023-11-07T14:16:46Z</time>
      </trkpt>
      <trkpt lat="45.1482" lon="3.8603">
        <ele>958.09</ele>
        <time>2023-11-07T14:17:00Z</time>
      </trkpt>
      <trkpt lat="45.14836" lon="3.86033">
        <ele>960.98</ele>
        <time>2023-11-07T14:17:13Z</time>
      </trkpt>
      <trkpt lat="45.14851" lon="3.86036">
        <ele>960.98</ele>
        <time>2023-11-07T14:17:27Z</time>
      </trkpt>
      <trkpt lat="45.1487" lon="3.86047">
        <ele>961.46</ele>
        <time>2023-11-07T14:17:44Z</time>
      </trkpt>
      <trkpt lat="45.14871" lon="3.86048">
        <ele>961.46</ele>
        <time>2023-11-07T14:17:45Z</time>
      </trkpt>
      <trkpt lat="45.1488" lon="3.86056">
        <ele>960.01</ele>
        <time>2023-11-07T14:17:53Z</time>
      </trkpt>
      <trkpt lat="45.14891" lon="3.86069">
        <ele>959.05</ele>
        <time>2023-11-07T14:18:06Z</time>
      </trkpt>
      <trkpt lat="45.14895" lon="3.86076">
        <ele>959.05</ele>
        <time>2023-11-07T14:18:10Z</time>
      </trkpt>
      <trkpt lat="45.14898" lon="3.86091">
        <ele>957.61</ele>
        <time>2023-11-07T14:18:19Z</time>
      </trkpt>
      <trkpt lat="45.14898" lon="3.86098">
        <ele>958.09</ele>
        <time>2023-11-07T14:18:23Z</time>
      </trkpt>
      <trkpt lat="45.14898" lon="3.86122">
        <ele>953.77</ele>
        <time>2023-11-07T14:18:39Z</time>
      </trkpt>
      <trkpt lat="45.14892" lon="3.86138">
        <ele>949.44</ele>
        <time>2023-11-07T14:18:52Z</time>
      </trkpt>
      <trkpt lat="45.1488" lon="3.86156">
        <ele>946.07</ele>
        <time>2023-11-07T14:19:07Z</time>
      </trkpt>
      <trkpt lat="45.14866" lon="3.86177">
        <ele>937.9</ele>
        <time>2023-11-07T14:19:23Z</time>
      </trkpt>
      <trkpt lat="45.14857" lon="3.86194">
        <ele>935.98</ele>
        <time>2023-11-07T14:19:36Z</time>
      </trkpt>
      <trkpt lat="45.14851" lon="3.86207">
        <ele>934.06</ele>
        <time>2023-11-07T14:19:46Z</time>
      </trkpt>
      <trkpt lat="45.14844" lon="3.86235">
        <ele>933.1</ele>
        <time>2023-11-07T14:20:03Z</time>
      </trkpt>
      <trkpt lat="45.14843" lon="3.86247">
        <ele>931.65</ele>
        <time>2023-11-07T14:20:10Z</time>
      </trkpt>
      <trkpt lat="45.14844" lon="3.86273">
        <ele>930.21</ele>
        <time>2023-11-07T14:20:25Z</time>
      </trkpt>
      <trkpt lat="45.14845" lon="3.86279">
        <ele>929.73</ele>
        <time>2023-11-07T14:20:29Z</time>
      </trkpt>
      <trkpt lat="45.14846" lon="3.86287">
        <ele>928.29</ele>
        <time>2023-11-07T14:20:34Z</time>
      </trkpt>
      <trkpt lat="45.14854" lon="3.86312">
        <ele>925.41</ele>
        <time>2023-11-07T14:20:50Z</time>
      </trkpt>
      <trkpt lat="45.14859" lon="3.86323">
        <ele>923.48</ele>
        <time>2023-11-07T14:20:58Z</time>
      </trkpt>
      <trkpt lat="45.14865" lon="3.86329">
        <ele>923.48</ele>
        <time>2023-11-07T14:21:03Z</time>
      </trkpt>
      <trkpt lat="45.14867" lon="3.86331">
        <ele>923.48</ele>
        <time>2023-11-07T14:21:05Z</time>
      </trkpt>
      <trkpt lat="45.14882" lon="3.86345">
        <ele>925.41</ele>
        <time>2023-11-07T14:21:20Z</time>
      </trkpt>
      <trkpt lat="45.14888" lon="3.8635">
        <ele>925.41</ele>
        <time>2023-11-07T14:21:28Z</time>
      </trkpt>
      <trkpt lat="45.14904" lon="3.86363">
        <ele>921.08</ele>
        <time>2023-11-07T14:21:45Z</time>
      </trkpt>
      <trkpt lat="45.14921" lon="3.86369">
        <ele>920.6</ele>
        <time>2023-11-07T14:21:59Z</time>
      </trkpt>
      <trkpt lat="45.14928" lon="3.86372">
        <ele>919.64</ele>
        <time>2023-11-07T14:22:06Z</time>
      </trkpt>
      <trkpt lat="45.14941" lon="3.86387">
        <ele>919.16</ele>
        <time>2023-11-07T14:22:19Z</time>
      </trkpt>
      <trkpt lat="45.14945" lon="3.8639">
        <ele>918.68</ele>
        <time>2023-11-07T14:22:23Z</time>
      </trkpt>
      <trkpt lat="45.1496" lon="3.86408">
        <ele>917.24</ele>
        <time>2023-11-07T14:22:38Z</time>
      </trkpt>
      <trkpt lat="45.14964" lon="3.86418">
        <ele>915.31</ele>
        <time>2023-11-07T14:22:45Z</time>
      </trkpt>
      <trkpt lat="45.14966" lon="3.86422">
        <ele>914.35</ele>
        <time>2023-11-07T14:22:48Z</time>
      </trkpt>
      <trkpt lat="45.14971" lon="3.86435">
        <ele>912.43</ele>
        <time>2023-11-07T14:22:57Z</time>
      </trkpt>
      <trkpt lat="45.14975" lon="3.86441">
        <ele>911.95</ele>
        <time>2023-11-07T14:23:01Z</time>
      </trkpt>
      <trkpt lat="45.14977" lon="3.86446">
        <ele>911.47</ele>
        <time>2023-11-07T14:23:05Z</time>
      </trkpt>
      <trkpt lat="45.14979" lon="3.86449">
        <ele>910.99</ele>
        <time>2023-11-07T14:23:07Z</time>
      </trkpt>
      <trkpt lat="45.14989" lon="3.86466">
        <ele>910.03</ele>
        <time>2023-11-07T14:23:21Z</time>
      </trkpt>
      <trkpt lat="45.14991" lon="3.86469">
        <ele>910.03</ele>
        <time>2023-11-07T14:23:24Z</time>
      </trkpt>
      <trkpt lat="45.15003" lon="3.8648">
        <ele>910.03</ele>
        <time>2023-11-07T14:23:38Z</time>
      </trkpt>
      <trkpt lat="45.1502" lon="3.86493">
        <ele>911.47</ele>
        <time>2023-11-07T14:23:52Z</time>
      </trkpt>
      <trkpt lat="45.15037" lon="3.86508">
        <ele>907.14</ele>
        <time>2023-11-07T14:24:06Z</time>
      </trkpt>
      <trkpt lat="45.15041" lon="3.86512">
        <ele>907.14</ele>
        <time>2023-11-07T14:24:10Z</time>
      </trkpt>
      <trkpt lat="45.15043" lon="3.86514">
        <ele>907.14</ele>
        <time>2023-11-07T14:24:12Z</time>
      </trkpt>
      <trkpt lat="45.15054" lon="3.86529">
        <ele>908.1</ele>
        <time>2023-11-07T14:24:27Z</time>
      </trkpt>
      <trkpt lat="45.15057" lon="3.86537">
        <ele>907.14</ele>
        <time>2023-11-07T14:24:34Z</time>
      </trkpt>
      <trkpt lat="45.15055" lon="3.86534">
        <ele>902.33</ele>
        <time>2023-11-07T14:24:47Z</time>
      </trkpt>
      <trkpt lat="45.15055" lon="3.86532">
        <ele>899.93</ele>
        <time>2023-11-07T14:25:06Z</time>
      </trkpt>
      <trkpt lat="45.15056" lon="3.86533">
        <ele>899.93</ele>
        <time>2023-11-07T14:25:22Z</time>
      </trkpt>
      <trkpt lat="45.1507" lon="3.86552">
        <ele>901.37</ele>
        <time>2023-11-07T14:25:38Z</time>
      </trkpt>
      <trkpt lat="45.15077" lon="3.86562">
        <ele>901.85</ele>
        <time>2023-11-07T14:25:43Z</time>
      </trkpt>
      <trkpt lat="45.15095" lon="3.86575">
        <ele>900.41</ele>
        <time>2023-11-07T14:25:54Z</time>
      </trkpt>
      <trkpt lat="45.15109" lon="3.86559">
        <ele>897.53</ele>
        <time>2023-11-07T14:26:06Z</time>
      </trkpt>
      <trkpt lat="45.1511" lon="3.86557">
        <ele>897.05</ele>
        <time>2023-11-07T14:26:07Z</time>
      </trkpt>
      <trkpt lat="45.15108" lon="3.86549">
        <ele>894.64</ele>
        <time>2023-11-07T14:26:11Z</time>
      </trkpt>
      <trkpt lat="45.15098" lon="3.86531">
        <ele>891.76</ele>
        <time>2023-11-07T14:26:22Z</time>
      </trkpt>
      <trkpt lat="45.15084" lon="3.86508">
        <ele>890.32</ele>
        <time>2023-11-07T14:26:36Z</time>
      </trkpt>
      <trkpt lat="45.15071" lon="3.86477">
        <ele>892.72</ele>
        <time>2023-11-07T14:26:53Z</time>
      </trkpt>
      <trkpt lat="45.15064" lon="3.86453">
        <ele>894.64</ele>
        <time>2023-11-07T14:27:05Z</time>
      </trkpt>
      <trkpt lat="45.15057" lon="3.8644">
        <ele>893.68</ele>
        <time>2023-11-07T14:27:12Z</time>
      </trkpt>
      <trkpt lat="45.15052" lon="3.8643">
        <ele>893.68</ele>
        <time>2023-11-07T14:27:18Z</time>
      </trkpt>
      <trkpt lat="45.15049" lon="3.86421">
        <ele>895.61</ele>
        <time>2023-11-07T14:27:24Z</time>
      </trkpt>
      <trkpt lat="45.15046" lon="3.86413">
        <ele>896.57</ele>
        <time>2023-11-07T14:27:28Z</time>
      </trkpt>
      <trkpt lat="45.15039" lon="3.86389">
        <ele>897.05</ele>
        <time>2023-11-07T14:27:41Z</time>
      </trkpt>
      <trkpt lat="45.1504" lon="3.86375">
        <ele>898.01</ele>
        <time>2023-11-07T14:27:48Z</time>
      </trkpt>
      <trkpt lat="45.15037" lon="3.8636">
        <ele>895.12</ele>
        <time>2023-11-07T14:27:56Z</time>
      </trkpt>
      <trkpt lat="45.15037" lon="3.86335">
        <ele>893.68</ele>
        <time>2023-11-07T14:28:09Z</time>
      </trkpt>
      <trkpt lat="45.15036" lon="3.86333">
        <ele>892.72</ele>
        <time>2023-11-07T14:28:10Z</time>
      </trkpt>
      <trkpt lat="45.15033" lon="3.86323">
        <ele>890.32</ele>
        <time>2023-11-07T14:28:15Z</time>
      </trkpt>
      <trkpt lat="45.15028" lon="3.86311">
        <ele>888.88</ele>
        <time>2023-11-07T14:28:24Z</time>
      </trkpt>
      <trkpt lat="45.15028" lon="3.86296">
        <ele>887.43</ele>
        <time>2023-11-07T14:28:35Z</time>
      </trkpt>
      <trkpt lat="45.1503" lon="3.86279">
        <ele>886.47</ele>
        <time>2023-11-07T14:28:46Z</time>
      </trkpt>
      <trkpt lat="45.15035" lon="3.86274">
        <ele>886.95</ele>
        <time>2023-11-07T14:28:54Z</time>
      </trkpt>
      <trkpt lat="45.15048" lon="3.86272">
        <ele>884.55</ele>
        <time>2023-11-07T14:29:07Z</time>
      </trkpt>
      <trkpt lat="45.15049" lon="3.86272">
        <ele>884.55</ele>
        <time>2023-11-07T14:29:08Z</time>
      </trkpt>
      <trkpt lat="45.15055" lon="3.8627">
        <ele>883.59</ele>
        <time>2023-11-07T14:29:15Z</time>
      </trkpt>
      <trkpt lat="45.15062" lon="3.86274">
        <ele>881.19</ele>
        <time>2023-11-07T14:29:21Z</time>
      </trkpt>
      <trkpt lat="45.1508" lon="3.86276">
        <ele>880.22</ele>
        <time>2023-11-07T14:29:35Z</time>
      </trkpt>
      <trkpt lat="45.15091" lon="3.86278">
        <ele>880.22</ele>
        <time>2023-11-07T14:29:44Z</time>
      </trkpt>
      <trkpt lat="45.151" lon="3.8628">
        <ele>880.22</ele>
        <time>2023-11-07T14:29:53Z</time>
      </trkpt>
      <trkpt lat="45.15117" lon="3.86282">
        <ele>890.8</ele>
        <time>2023-11-07T14:30:06Z</time>
      </trkpt>
      <trkpt lat="45.15132" lon="3.86282">
        <ele>887.91</ele>
        <time>2023-11-07T14:30:18Z</time>
      </trkpt>
      <trkpt lat="45.15143" lon="3.86283">
        <ele>875.9</ele>
        <time>2023-11-07T14:30:27Z</time>
      </trkpt>
      <trkpt lat="45.15152" lon="3.86281">
        <ele>874.94</ele>
        <time>2023-11-07T14:30:33Z</time>
      </trkpt>
      <trkpt lat="45.15167" lon="3.86273">
        <ele>866.77</ele>
        <time>2023-11-07T14:30:46Z</time>
      </trkpt>
      <trkpt lat="45.15178" lon="3.86264">
        <ele>862.92</ele>
        <time>2023-11-07T14:30:57Z</time>
      </trkpt>
      <trkpt lat="45.1519" lon="3.86261">
        <ele>860.04</ele>
        <time>2023-11-07T14:31:09Z</time>
      </trkpt>
      <trkpt lat="45.15206" lon="3.86253">
        <ele>857.15</ele>
        <time>2023-11-07T14:31:23Z</time>
      </trkpt>
      <trkpt lat="45.15221" lon="3.86252">
        <ele>853.79</ele>
        <time>2023-11-07T14:31:36Z</time>
      </trkpt>
      <trkpt lat="45.15237" lon="3.86253">
        <ele>847.54</ele>
        <time>2023-11-07T14:31:50Z</time>
      </trkpt>
      <trkpt lat="45.15246" lon="3.86253">
        <ele>845.62</ele>
        <time>2023-11-07T14:31:56Z</time>
      </trkpt>
      <trkpt lat="45.15257" lon="3.86253">
        <ele>840.81</ele>
        <time>2023-11-07T14:32:08Z</time>
      </trkpt>
      <trkpt lat="45.15264" lon="3.86249">
        <ele>837.45</ele>
        <time>2023-11-07T14:32:15Z</time>
      </trkpt>
      <trkpt lat="45.15269" lon="3.86241">
        <ele>835.52</ele>
        <time>2023-11-07T14:32:20Z</time>
      </trkpt>
      <trkpt lat="45.15279" lon="3.86205">
        <ele>829.27</ele>
        <time>2023-11-07T14:32:38Z</time>
      </trkpt>
      <trkpt lat="45.15284" lon="3.86173">
        <ele>825.91</ele>
        <time>2023-11-07T14:32:53Z</time>
      </trkpt>
      <trkpt lat="45.15285" lon="3.86146">
        <ele>822.06</ele>
        <time>2023-11-07T14:33:07Z</time>
      </trkpt>
      <trkpt lat="45.15284" lon="3.86118">
        <ele>820.14</ele>
        <time>2023-11-07T14:33:22Z</time>
      </trkpt>
      <trkpt lat="45.1528" lon="3.86106">
        <ele>819.18</ele>
        <time>2023-11-07T14:33:29Z</time>
      </trkpt>
      <trkpt lat="45.15279" lon="3.86096">
        <ele>819.18</ele>
        <time>2023-11-07T14:33:34Z</time>
      </trkpt>
      <trkpt lat="45.15278" lon="3.86072">
        <ele>821.58</ele>
        <time>2023-11-07T14:33:50Z</time>
      </trkpt>
      <trkpt lat="45.15278" lon="3.86067">
        <ele>823.51</ele>
        <time>2023-11-07T14:34:02Z</time>
      </trkpt>
      <trkpt lat="45.1528" lon="3.86064">
        <ele>822.55</ele>
        <time>2023-11-07T14:34:10Z</time>
      </trkpt>
      <trkpt lat="45.15284" lon="3.86061">
        <ele>821.1</ele>
        <time>2023-11-07T14:34:15Z</time>
      </trkpt>
      <trkpt lat="45.15303" lon="3.8606">
        <ele>818.7</ele>
        <time>2023-11-07T14:34:29Z</time>
      </trkpt>
      <trkpt lat="45.15311" lon="3.86071">
        <ele>816.78</ele>
        <time>2023-11-07T14:34:39Z</time>
      </trkpt>
      <trkpt lat="45.15311" lon="3.86078">
        <ele>816.3</ele>
        <time>2023-11-07T14:34:43Z</time>
      </trkpt>
      <trkpt lat="45.15312" lon="3.86087">
        <ele>815.82</ele>
        <time>2023-11-07T14:34:49Z</time>
      </trkpt>
      <trkpt lat="45.15305" lon="3.8611">
        <ele>812.45</ele>
        <time>2023-11-07T14:35:03Z</time>
      </trkpt>
      <trkpt lat="45.15305" lon="3.86112">
        <ele>812.45</ele>
        <time>2023-11-07T14:35:04Z</time>
      </trkpt>
      <trkpt lat="45.15303" lon="3.86126">
        <ele>811.97</ele>
        <time>2023-11-07T14:35:11Z</time>
      </trkpt>
      <trkpt lat="45.15307" lon="3.86144">
        <ele>811.49</ele>
        <time>2023-11-07T14:35:22Z</time>
      </trkpt>
      <trkpt lat="45.1531" lon="3.86162">
        <ele>813.41</ele>
        <time>2023-11-07T14:35:35Z</time>
      </trkpt>
      <trkpt lat="45.15312" lon="3.8617">
        <ele>816.78</ele>
        <time>2023-11-07T14:35:41Z</time>
      </trkpt>
      <trkpt lat="45.15313" lon="3.86175">
        <ele>819.18</ele>
        <time>2023-11-07T14:35:45Z</time>
      </trkpt>
      <trkpt lat="45.15314" lon="3.86178">
        <ele>819.66</ele>
        <time>2023-11-07T14:35:47Z</time>
      </trkpt>
      <trkpt lat="45.15313" lon="3.86186">
        <ele>819.18</ele>
        <time>2023-11-07T14:35:51Z</time>
      </trkpt>
      <trkpt lat="45.15311" lon="3.86192">
        <ele>818.7</ele>
        <time>2023-11-07T14:35:54Z</time>
      </trkpt>
      <trkpt lat="45.1531" lon="3.86212">
        <ele>818.22</ele>
        <time>2023-11-07T14:36:03Z</time>
      </trkpt>
      <trkpt lat="45.15308" lon="3.86222">
        <ele>818.22</ele>
        <time>2023-11-07T14:36:09Z</time>
      </trkpt>
      <trkpt lat="45.15308" lon="3.86227">
        <ele>817.74</ele>
        <time>2023-11-07T14:36:12Z</time>
      </trkpt>
      <trkpt lat="45.15305" lon="3.86236">
        <ele>816.3</ele>
        <time>2023-11-07T14:36:19Z</time>
      </trkpt>
      <trkpt lat="45.15302" lon="3.86251">
        <ele>815.82</ele>
        <time>2023-11-07T14:36:28Z</time>
      </trkpt>
      <trkpt lat="45.15302" lon="3.86275">
        <ele>812.93</ele>
        <time>2023-11-07T14:36:40Z</time>
      </trkpt>
      <trkpt lat="45.15293" lon="3.86284">
        <ele>810.53</ele>
        <time>2023-11-07T14:36:48Z</time>
      </trkpt>
      <trkpt lat="45.1529" lon="3.86295">
        <ele>809.57</ele>
        <time>2023-11-07T14:36:55Z</time>
      </trkpt>
      <trkpt lat="45.15281" lon="3.86313">
        <ele>809.57</ele>
        <time>2023-11-07T14:37:11Z</time>
      </trkpt>
      <trkpt lat="45.15269" lon="3.86326">
        <ele>808.61</ele>
        <time>2023-11-07T14:37:25Z</time>
      </trkpt>
      <trkpt lat="45.15257" lon="3.86347">
        <ele>807.64</ele>
        <time>2023-11-07T14:37:39Z</time>
      </trkpt>
      <trkpt lat="45.15255" lon="3.86355">
        <ele>807.16</ele>
        <time>2023-11-07T14:37:43Z</time>
      </trkpt>
      <trkpt lat="45.15263" lon="3.86366">
        <ele>803.8</ele>
        <time>2023-11-07T14:37:57Z</time>
      </trkpt>
      <trkpt lat="45.15267" lon="3.86367">
        <ele>802.84</ele>
        <time>2023-11-07T14:38:02Z</time>
      </trkpt>
      <trkpt lat="45.15277" lon="3.86369">
        <ele>801.88</ele>
        <time>2023-11-07T14:38:10Z</time>
      </trkpt>
      <trkpt lat="45.15292" lon="3.86371">
        <ele>800.44</ele>
        <time>2023-11-07T14:38:22Z</time>
      </trkpt>
      <trkpt lat="45.15307" lon="3.8637">
        <ele>798.03</ele>
        <time>2023-11-07T14:38:35Z</time>
      </trkpt>
      <trkpt lat="45.15324" lon="3.86377">
        <ele>792.74</ele>
        <time>2023-11-07T14:38:48Z</time>
      </trkpt>
      <trkpt lat="45.15333" lon="3.86378">
        <ele>792.26</ele>
        <time>2023-11-07T14:38:57Z</time>
      </trkpt>
      <trkpt lat="45.15348" lon="3.86376">
        <ele>789.86</ele>
        <time>2023-11-07T14:39:08Z</time>
      </trkpt>
      <trkpt lat="45.1536" lon="3.86374">
        <ele>792.26</ele>
        <time>2023-11-07T14:39:17Z</time>
      </trkpt>
      <trkpt lat="45.15377" lon="3.86359">
        <ele>791.3</ele>
        <time>2023-11-07T14:39:32Z</time>
      </trkpt>
      <trkpt lat="45.15383" lon="3.86351">
        <ele>790.34</ele>
        <time>2023-11-07T14:39:38Z</time>
      </trkpt>
      <trkpt lat="45.15391" lon="3.86337">
        <ele>787.46</ele>
        <time>2023-11-07T14:39:47Z</time>
      </trkpt>
      <trkpt lat="45.15395" lon="3.86331">
        <ele>786.5</ele>
        <time>2023-11-07T14:39:51Z</time>
      </trkpt>
      <trkpt lat="45.15407" lon="3.86324">
        <ele>784.57</ele>
        <time>2023-11-07T14:40:02Z</time>
      </trkpt>
      <trkpt lat="45.15411" lon="3.86327">
        <ele>783.13</ele>
        <time>2023-11-07T14:40:06Z</time>
      </trkpt>
      <trkpt lat="45.15414" lon="3.86341">
        <ele>780.25</ele>
        <time>2023-11-07T14:40:17Z</time>
      </trkpt>
      <trkpt lat="45.15411" lon="3.86353">
        <ele>777.36</ele>
        <time>2023-11-07T14:40:26Z</time>
      </trkpt>
      <trkpt lat="45.1541" lon="3.86361">
        <ele>776.4</ele>
        <time>2023-11-07T14:40:30Z</time>
      </trkpt>
      <trkpt lat="45.15403" lon="3.86384">
        <ele>773.52</ele>
        <time>2023-11-07T14:40:44Z</time>
      </trkpt>
      <trkpt lat="45.15403" lon="3.86386">
        <ele>773.04</ele>
        <time>2023-11-07T14:40:45Z</time>
      </trkpt>
      <trkpt lat="45.15398" lon="3.86396">
        <ele>772.08</ele>
        <time>2023-11-07T14:40:54Z</time>
      </trkpt>
      <trkpt lat="45.15396" lon="3.86407">
        <ele>772.08</ele>
        <time>2023-11-07T14:41:02Z</time>
      </trkpt>
      <trkpt lat="45.15395" lon="3.8641">
        <ele>772.08</ele>
        <time>2023-11-07T14:41:04Z</time>
      </trkpt>
      <trkpt lat="45.15419" lon="3.86444">
        <ele>772.56</ele>
        <time>2023-11-07T14:41:20Z</time>
      </trkpt>
      <trkpt lat="45.15436" lon="3.86464">
        <ele>774</ele>
        <time>2023-11-07T14:41:34Z</time>
      </trkpt>
      <trkpt lat="45.15447" lon="3.86486">
        <ele>777.36</ele>
        <time>2023-11-07T14:41:47Z</time>
      </trkpt>
      <trkpt lat="45.15448" lon="3.86493">
        <ele>777.84</ele>
        <time>2023-11-07T14:41:51Z</time>
      </trkpt>
      <trkpt lat="45.15445" lon="3.86498">
        <ele>777.36</ele>
        <time>2023-11-07T14:41:55Z</time>
      </trkpt>
      <trkpt lat="45.15434" lon="3.86516">
        <ele>775.92</ele>
        <time>2023-11-07T14:42:08Z</time>
      </trkpt>
      <trkpt lat="45.15438" lon="3.86535">
        <ele>772.56</ele>
        <time>2023-11-07T14:42:20Z</time>
      </trkpt>
      <trkpt lat="45.15441" lon="3.8654">
        <ele>770.63</ele>
        <time>2023-11-07T14:42:32Z</time>
      </trkpt>
      <trkpt lat="45.15445" lon="3.86541">
        <ele>769.67</ele>
        <time>2023-11-07T14:42:41Z</time>
      </trkpt>
      <trkpt lat="45.15456" lon="3.86545">
        <ele>767.75</ele>
        <time>2023-11-07T14:42:49Z</time>
      </trkpt>
      <trkpt lat="45.15484" lon="3.86566">
        <ele>767.75</ele>
        <time>2023-11-07T14:42:58Z</time>
      </trkpt>
      <trkpt lat="45.1549" lon="3.8657">
        <ele>766.31</ele>
        <time>2023-11-07T14:43:07Z</time>
      </trkpt>
      <trkpt lat="45.15497" lon="3.86574">
        <ele>765.83</ele>
        <time>2023-11-07T14:43:20Z</time>
      </trkpt>
      <trkpt lat="45.15507" lon="3.86584">
        <ele>765.83</ele>
        <time>2023-11-07T14:43:32Z</time>
      </trkpt>
      <trkpt lat="45.15524" lon="3.86605">
        <ele>763.9</ele>
        <time>2023-11-07T14:43:45Z</time>
      </trkpt>
      <trkpt lat="45.15525" lon="3.86606">
        <ele>763.9</ele>
        <time>2023-11-07T14:43:46Z</time>
      </trkpt>
      <trkpt lat="45.1554" lon="3.86632">
        <ele>757.66</ele>
        <time>2023-11-07T14:43:57Z</time>
      </trkpt>
      <trkpt lat="45.15543" lon="3.86645">
        <ele>755.25</ele>
        <time>2023-11-07T14:44:09Z</time>
      </trkpt>
      <trkpt lat="45.15554" lon="3.86659">
        <ele>755.73</ele>
        <time>2023-11-07T14:44:13Z</time>
      </trkpt>
      <trkpt lat="45.15564" lon="3.86672">
        <ele>755.25</ele>
        <time>2023-11-07T14:44:20Z</time>
      </trkpt>
      <trkpt lat="45.15579" lon="3.86696">
        <ele>754.77</ele>
        <time>2023-11-07T14:44:33Z</time>
      </trkpt>
      <trkpt lat="45.15591" lon="3.86717">
        <ele>754.77</ele>
        <time>2023-11-07T14:44:47Z</time>
      </trkpt>
      <trkpt lat="45.15597" lon="3.86731">
        <ele>754.29</ele>
        <time>2023-11-07T14:44:56Z</time>
      </trkpt>
      <trkpt lat="45.156" lon="3.86736">
        <ele>754.29</ele>
        <time>2023-11-07T14:44:59Z</time>
      </trkpt>
      <trkpt lat="45.15604" lon="3.86752">
        <ele>752.37</ele>
        <time>2023-11-07T14:45:10Z</time>
      </trkpt>
      <trkpt lat="45.15606" lon="3.86764">
        <ele>750.93</ele>
        <time>2023-11-07T14:45:17Z</time>
      </trkpt>
      <trkpt lat="45.15604" lon="3.86782">
        <ele>747.08</ele>
        <time>2023-11-07T14:45:28Z</time>
      </trkpt>
      <trkpt lat="45.15605" lon="3.86787">
        <ele>746.12</ele>
        <time>2023-11-07T14:45:31Z</time>
      </trkpt>
      <trkpt lat="45.15602" lon="3.86795">
        <ele>745.64</ele>
        <time>2023-11-07T14:45:38Z</time>
      </trkpt>
      <trkpt lat="45.156" lon="3.86802">
        <ele>745.64</ele>
        <time>2023-11-07T14:45:42Z</time>
      </trkpt>
      <trkpt lat="45.15603" lon="3.86819">
        <ele>744.68</ele>
        <time>2023-11-07T14:45:51Z</time>
      </trkpt>
      <trkpt lat="45.15609" lon="3.86836">
        <ele>744.2</ele>
        <time>2023-11-07T14:45:57Z</time>
      </trkpt>
      <trkpt lat="45.15609" lon="3.86851">
        <ele>742.28</ele>
        <time>2023-11-07T14:46:05Z</time>
      </trkpt>
      <trkpt lat="45.15609" lon="3.86858">
        <ele>740.83</ele>
        <time>2023-11-07T14:46:09Z</time>
      </trkpt>
      <trkpt lat="45.15606" lon="3.86861">
        <ele>738.91</ele>
        <time>2023-11-07T14:46:12Z</time>
      </trkpt>
      <trkpt lat="45.15604" lon="3.86869">
        <ele>738.43</ele>
        <time>2023-11-07T14:46:18Z</time>
      </trkpt>
      <trkpt lat="45.15591" lon="3.86873">
        <ele>736.99</ele>
        <time>2023-11-07T14:46:29Z</time>
      </trkpt>
      <trkpt lat="45.15596" lon="3.86887">
        <ele>736.99</ele>
        <time>2023-11-07T14:46:34Z</time>
      </trkpt>
      <trkpt lat="45.15596" lon="3.86893">
        <ele>736.99</ele>
        <time>2023-11-07T14:46:38Z</time>
      </trkpt>
      <trkpt lat="45.15589" lon="3.86897">
        <ele>736.03</ele>
        <time>2023-11-07T14:46:46Z</time>
      </trkpt>
      <trkpt lat="45.15626" lon="3.86944">
        <ele>736.03</ele>
        <time>2023-11-07T14:46:58Z</time>
      </trkpt>
      <trkpt lat="45.1563" lon="3.86951">
        <ele>736.03</ele>
        <time>2023-11-07T14:47:01Z</time>
      </trkpt>
      <trkpt lat="45.15635" lon="3.86968">
        <ele>735.55</ele>
        <time>2023-11-07T14:47:13Z</time>
      </trkpt>
      <trkpt lat="45.15633" lon="3.8698">
        <ele>734.58</ele>
        <time>2023-11-07T14:47:23Z</time>
      </trkpt>
      <trkpt lat="45.1563" lon="3.8699">
        <ele>733.62</ele>
        <time>2023-11-07T14:47:27Z</time>
      </trkpt>
      <trkpt lat="45.15627" lon="3.87">
        <ele>730.74</ele>
        <time>2023-11-07T14:47:31Z</time>
      </trkpt>
      <trkpt lat="45.15627" lon="3.8701">
        <ele>729.78</ele>
        <time>2023-11-07T14:47:37Z</time>
      </trkpt>
      <trkpt lat="45.15628" lon="3.87025">
        <ele>729.3</ele>
        <time>2023-11-07T14:47:49Z</time>
      </trkpt>
      <trkpt lat="45.15628" lon="3.87034">
        <ele>728.82</ele>
        <time>2023-11-07T14:47:55Z</time>
      </trkpt>
      <trkpt lat="45.15627" lon="3.87037">
        <ele>728.82</ele>
        <time>2023-11-07T14:47:58Z</time>
      </trkpt>
      <trkpt lat="45.15627" lon="3.87045">
        <ele>728.34</ele>
        <time>2023-11-07T14:48:02Z</time>
      </trkpt>
      <trkpt lat="45.15629" lon="3.87053">
        <ele>728.82</ele>
        <time>2023-11-07T14:48:06Z</time>
      </trkpt>
      <trkpt lat="45.15629" lon="3.87062">
        <ele>728.82</ele>
        <time>2023-11-07T14:48:11Z</time>
      </trkpt>
      <trkpt lat="45.15628" lon="3.87069">
        <ele>728.34</ele>
        <time>2023-11-07T14:48:16Z</time>
      </trkpt>
      <trkpt lat="45.15626" lon="3.87074">
        <ele>728.34</ele>
        <time>2023-11-07T14:48:19Z</time>
      </trkpt>
      <trkpt lat="45.15628" lon="3.87084">
        <ele>727.86</ele>
        <time>2023-11-07T14:48:25Z</time>
      </trkpt>
      <trkpt lat="45.1563" lon="3.87094">
        <ele>727.86</ele>
        <time>2023-11-07T14:48:29Z</time>
      </trkpt>
      <trkpt lat="45.15636" lon="3.87116">
        <ele>727.37</ele>
        <time>2023-11-07T14:48:39Z</time>
      </trkpt>
      <trkpt lat="45.15643" lon="3.87127">
        <ele>726.89</ele>
        <time>2023-11-07T14:48:49Z</time>
      </trkpt>
      <trkpt lat="45.15648" lon="3.87147">
        <ele>725.45</ele>
        <time>2023-11-07T14:49:02Z</time>
      </trkpt>
      <trkpt lat="45.15655" lon="3.87172">
        <ele>723.53</ele>
        <time>2023-11-07T14:49:13Z</time>
      </trkpt>
      <trkpt lat="45.15658" lon="3.8719">
        <ele>719.2</ele>
        <time>2023-11-07T14:49:21Z</time>
      </trkpt>
      <trkpt lat="45.15676" lon="3.87225">
        <ele>716.8</ele>
        <time>2023-11-07T14:49:32Z</time>
      </trkpt>
      <trkpt lat="45.15679" lon="3.87235">
        <ele>716.32</ele>
        <time>2023-11-07T14:49:37Z</time>
      </trkpt>
      <trkpt lat="45.15687" lon="3.87253">
        <ele>713.92</ele>
        <time>2023-11-07T14:49:47Z</time>
      </trkpt>
      <trkpt lat="45.15687" lon="3.8726">
        <ele>709.59</ele>
        <time>2023-11-07T14:49:53Z</time>
      </trkpt>
      <trkpt lat="45.15685" lon="3.87276">
        <ele>705.75</ele>
        <time>2023-11-07T14:50:03Z</time>
      </trkpt>
      <trkpt lat="45.15683" lon="3.8728">
        <ele>704.78</ele>
        <time>2023-11-07T14:50:06Z</time>
      </trkpt>
      <trkpt lat="45.15683" lon="3.87286">
        <ele>702.86</ele>
        <time>2023-11-07T14:50:09Z</time>
      </trkpt>
      <trkpt lat="45.15676" lon="3.87294">
        <ele>699.02</ele>
        <time>2023-11-07T14:50:18Z</time>
      </trkpt>
      <trkpt lat="45.15687" lon="3.87312">
        <ele>699.5</ele>
        <time>2023-11-07T14:50:25Z</time>
      </trkpt>
      <trkpt lat="45.15692" lon="3.8732">
        <ele>699.02</ele>
        <time>2023-11-07T14:50:36Z</time>
      </trkpt>
      <trkpt lat="45.1569" lon="3.87321">
        <ele>698.05</ele>
        <time>2023-11-07T14:50:42Z</time>
      </trkpt>
      <trkpt lat="45.15685" lon="3.87327">
        <ele>693.73</ele>
        <time>2023-11-07T14:50:53Z</time>
      </trkpt>
      <trkpt lat="45.15683" lon="3.87331">
        <ele>690.84</ele>
        <time>2023-11-07T14:50:59Z</time>
      </trkpt>
      <trkpt lat="45.15691" lon="3.87344">
        <ele>689.88</ele>
        <time>2023-11-07T14:51:11Z</time>
      </trkpt>
      <trkpt lat="45.1571" lon="3.87361">
        <ele>694.69</ele>
        <time>2023-11-07T14:51:24Z</time>
      </trkpt>
      <trkpt lat="45.15728" lon="3.87376">
        <ele>699.02</ele>
        <time>2023-11-07T14:51:37Z</time>
      </trkpt>
      <trkpt lat="45.15733" lon="3.87381">
        <ele>699.02</ele>
        <time>2023-11-07T14:51:40Z</time>
      </trkpt>
      <trkpt lat="45.15756" lon="3.87402">
        <ele>700.94</ele>
        <time>2023-11-07T14:51:50Z</time>
      </trkpt>
      <trkpt lat="45.15776" lon="3.87427">
        <ele>699.98</ele>
        <time>2023-11-07T14:52:04Z</time>
      </trkpt>
      <trkpt lat="45.15784" lon="3.87438">
        <ele>699.02</ele>
        <time>2023-11-07T14:52:16Z</time>
      </trkpt>
      <trkpt lat="45.158" lon="3.8746">
        <ele>694.21</ele>
        <time>2023-11-07T14:52:29Z</time>
      </trkpt>
      <trkpt lat="45.15818" lon="3.87477">
        <ele>694.69</ele>
        <time>2023-11-07T14:52:44Z</time>
      </trkpt>
      <trkpt lat="45.15828" lon="3.87484">
        <ele>696.61</ele>
        <time>2023-11-07T14:52:57Z</time>
      </trkpt>
      <trkpt lat="45.15832" lon="3.87486">
        <ele>696.61</ele>
        <time>2023-11-07T14:53:00Z</time>
      </trkpt>
      <trkpt lat="45.15836" lon="3.87487">
        <ele>697.57</ele>
        <time>2023-11-07T14:53:02Z</time>
      </trkpt>
      <trkpt lat="45.15849" lon="3.87498">
        <ele>698.53</ele>
        <time>2023-11-07T14:53:09Z</time>
      </trkpt>
      <trkpt lat="45.1587" lon="3.87517">
        <ele>699.98</ele>
        <time>2023-11-07T14:53:24Z</time>
      </trkpt>
      <trkpt lat="45.15887" lon="3.87534">
        <ele>699.02</ele>
        <time>2023-11-07T14:53:38Z</time>
      </trkpt>
      <trkpt lat="45.159" lon="3.8755">
        <ele>696.13</ele>
        <time>2023-11-07T14:53:48Z</time>
      </trkpt>
      <trkpt lat="45.15918" lon="3.87575">
        <ele>690.36</ele>
        <time>2023-11-07T14:54:03Z</time>
      </trkpt>
      <trkpt lat="45.15932" lon="3.87601">
        <ele>686.04</ele>
        <time>2023-11-07T14:54:17Z</time>
      </trkpt>
      <trkpt lat="45.15941" lon="3.87624">
        <ele>679.79</ele>
        <time>2023-11-07T14:54:27Z</time>
      </trkpt>
      <trkpt lat="45.15953" lon="3.8765">
        <ele>673.06</ele>
        <time>2023-11-07T14:54:37Z</time>
      </trkpt>
      <trkpt lat="45.15954" lon="3.87656">
        <ele>673.06</ele>
        <time>2023-11-07T14:54:40Z</time>
      </trkpt>
      <trkpt lat="45.15959" lon="3.87676">
        <ele>672.58</ele>
        <time>2023-11-07T14:54:52Z</time>
      </trkpt>
      <trkpt lat="45.15962" lon="3.87691">
        <ele>668.25</ele>
        <time>2023-11-07T14:55:04Z</time>
      </trkpt>
      <trkpt lat="45.15965" lon="3.8771">
        <ele>662.49</ele>
        <time>2023-11-07T14:55:16Z</time>
      </trkpt>
      <trkpt lat="45.15972" lon="3.87734">
        <ele>662.49</ele>
        <time>2023-11-07T14:55:29Z</time>
      </trkpt>
      <trkpt lat="45.15975" lon="3.87756">
        <ele>661.52</ele>
        <time>2023-11-07T14:55:40Z</time>
      </trkpt>
      <trkpt lat="45.15976" lon="3.87766">
        <ele>660.08</ele>
        <time>2023-11-07T14:55:45Z</time>
      </trkpt>
      <trkpt lat="45.15973" lon="3.87778">
        <ele>658.16</ele>
        <time>2023-11-07T14:55:53Z</time>
      </trkpt>
      <trkpt lat="45.15972" lon="3.87792">
        <ele>658.16</ele>
        <time>2023-11-07T14:56:01Z</time>
      </trkpt>
      <trkpt lat="45.15977" lon="3.87815">
        <ele>660.56</ele>
        <time>2023-11-07T14:56:11Z</time>
      </trkpt>
      <trkpt lat="45.15981" lon="3.87829">
        <ele>661.04</ele>
        <time>2023-11-07T14:56:16Z</time>
      </trkpt>
      <trkpt lat="45.15981" lon="3.87844">
        <ele>662.01</ele>
        <time>2023-11-07T14:56:22Z</time>
      </trkpt>
      <trkpt lat="45.15983" lon="3.87884">
        <ele>661.52</ele>
        <time>2023-11-07T14:56:38Z</time>
      </trkpt>
      <trkpt lat="45.1598" lon="3.87916">
        <ele>658.16</ele>
        <time>2023-11-07T14:56:54Z</time>
      </trkpt>
      <trkpt lat="45.1598" lon="3.87921">
        <ele>658.16</ele>
        <time>2023-11-07T14:56:58Z</time>
      </trkpt>
      <trkpt lat="45.15978" lon="3.87938">
        <ele>658.64</ele>
        <time>2023-11-07T14:57:08Z</time>
      </trkpt>
      <trkpt lat="45.15979" lon="3.8796">
        <ele>662.97</ele>
        <time>2023-11-07T14:57:21Z</time>
      </trkpt>
      <trkpt lat="45.15976" lon="3.87968">
        <ele>664.41</ele>
        <time>2023-11-07T14:57:27Z</time>
      </trkpt>
      <trkpt lat="45.15975" lon="3.87994">
        <ele>664.89</ele>
        <time>2023-11-07T14:57:40Z</time>
      </trkpt>
      <trkpt lat="45.15979" lon="3.88016">
        <ele>665.37</ele>
        <time>2023-11-07T14:57:51Z</time>
      </trkpt>
      <trkpt lat="45.15978" lon="3.88031">
        <ele>665.85</ele>
        <time>2023-11-07T14:57:59Z</time>
      </trkpt>
      <trkpt lat="45.15977" lon="3.88051">
        <ele>666.33</ele>
        <time>2023-11-07T14:58:10Z</time>
      </trkpt>
      <trkpt lat="45.15975" lon="3.88061">
        <ele>666.33</ele>
        <time>2023-11-07T14:58:18Z</time>
      </trkpt>
      <trkpt lat="45.15973" lon="3.88079">
        <ele>666.33</ele>
        <time>2023-11-07T14:58:28Z</time>
      </trkpt>
      <trkpt lat="45.15971" lon="3.88093">
        <ele>665.37</ele>
        <time>2023-11-07T14:58:35Z</time>
      </trkpt>
      <trkpt lat="45.15972" lon="3.88111">
        <ele>664.89</ele>
        <time>2023-11-07T14:58:42Z</time>
      </trkpt>
      <trkpt lat="45.15969" lon="3.88114">
        <ele>664.89</ele>
        <time>2023-11-07T14:58:45Z</time>
      </trkpt>
      <trkpt lat="45.15975" lon="3.88126">
        <ele>664.41</ele>
        <time>2023-11-07T14:58:47Z</time>
      </trkpt>
      <trkpt lat="45.15977" lon="3.88159">
        <ele>663.93</ele>
        <time>2023-11-07T14:59:01Z</time>
      </trkpt>
      <trkpt lat="45.15976" lon="3.88175">
        <ele>662.01</ele>
        <time>2023-11-07T14:59:13Z</time>
      </trkpt>
      <trkpt lat="45.15974" lon="3.88182">
        <ele>662.49</ele>
        <time>2023-11-07T14:59:18Z</time>
      </trkpt>
      <trkpt lat="45.15969" lon="3.88188">
        <ele>662.01</ele>
        <time>2023-11-07T14:59:23Z</time>
      </trkpt>
      <trkpt lat="45.15966" lon="3.88213">
        <ele>659.12</ele>
        <time>2023-11-07T14:59:36Z</time>
      </trkpt>
      <trkpt lat="45.15964" lon="3.88242">
        <ele>657.2</ele>
        <time>2023-11-07T14:59:51Z</time>
      </trkpt>
      <trkpt lat="45.15963" lon="3.8826">
        <ele>657.2</ele>
        <time>2023-11-07T15:00:04Z</time>
      </trkpt>
      <trkpt lat="45.15965" lon="3.88274">
        <ele>656.24</ele>
        <time>2023-11-07T15:00:14Z</time>
      </trkpt>
      <trkpt lat="45.15963" lon="3.8828">
        <ele>655.76</ele>
        <time>2023-11-07T15:00:17Z</time>
      </trkpt>
      <trkpt lat="45.15963" lon="3.8829">
        <ele>654.31</ele>
        <time>2023-11-07T15:00:21Z</time>
      </trkpt>
      <trkpt lat="45.15962" lon="3.88296">
        <ele>653.83</ele>
        <time>2023-11-07T15:00:24Z</time>
      </trkpt>
      <trkpt lat="45.15963" lon="3.88302">
        <ele>654.31</ele>
        <time>2023-11-07T15:00:27Z</time>
      </trkpt>
      <trkpt lat="45.15959" lon="3.88309">
        <ele>653.83</ele>
        <time>2023-11-07T15:00:34Z</time>
      </trkpt>
      <trkpt lat="45.15961" lon="3.8832">
        <ele>653.35</ele>
        <time>2023-11-07T15:00:37Z</time>
      </trkpt>
      <trkpt lat="45.1596" lon="3.88326">
        <ele>653.35</ele>
        <time>2023-11-07T15:00:40Z</time>
      </trkpt>
      <trkpt lat="45.15962" lon="3.88343">
        <ele>653.35</ele>
        <time>2023-11-07T15:00:49Z</time>
      </trkpt>
      <trkpt lat="45.15961" lon="3.88364">
        <ele>649.99</ele>
        <time>2023-11-07T15:01:00Z</time>
      </trkpt>
      <trkpt lat="45.15965" lon="3.8838">
        <ele>650.95</ele>
        <time>2023-11-07T15:01:10Z</time>
      </trkpt>
      <trkpt lat="45.1597" lon="3.88398">
        <ele>651.43</ele>
        <time>2023-11-07T15:01:18Z</time>
      </trkpt>
      <trkpt lat="45.15975" lon="3.88426">
        <ele>651.43</ele>
        <time>2023-11-07T15:01:31Z</time>
      </trkpt>
      <trkpt lat="45.15976" lon="3.88433">
        <ele>651.91</ele>
        <time>2023-11-07T15:01:34Z</time>
      </trkpt>
      <trkpt lat="45.15982" lon="3.88461">
        <ele>651.43</ele>
        <time>2023-11-07T15:01:47Z</time>
      </trkpt>
      <trkpt lat="45.15982" lon="3.88475">
        <ele>650.95</ele>
        <time>2023-11-07T15:01:57Z</time>
      </trkpt>
      <trkpt lat="45.15985" lon="3.88487">
        <ele>651.91</ele>
        <time>2023-11-07T15:02:03Z</time>
      </trkpt>
      <trkpt lat="45.15986" lon="3.88509">
        <ele>652.87</ele>
        <time>2023-11-07T15:02:16Z</time>
      </trkpt>
      <trkpt lat="45.15991" lon="3.88528">
        <ele>652.87</ele>
        <time>2023-11-07T15:02:30Z</time>
      </trkpt>
      <trkpt lat="45.15994" lon="3.88544">
        <ele>653.83</ele>
        <time>2023-11-07T15:02:39Z</time>
      </trkpt>
      <trkpt lat="45.16005" lon="3.88572">
        <ele>652.87</ele>
        <time>2023-11-07T15:02:50Z</time>
      </trkpt>
      <trkpt lat="45.16016" lon="3.88598">
        <ele>651.91</ele>
        <time>2023-11-07T15:03:03Z</time>
      </trkpt>
      <trkpt lat="45.16024" lon="3.88622">
        <ele>651.91</ele>
        <time>2023-11-07T15:03:17Z</time>
      </trkpt>
      <trkpt lat="45.16031" lon="3.88646">
        <ele>651.91</ele>
        <time>2023-11-07T15:03:31Z</time>
      </trkpt>
      <trkpt lat="45.16038" lon="3.88668">
        <ele>653.35</ele>
        <time>2023-11-07T15:03:43Z</time>
      </trkpt>
      <trkpt lat="45.16046" lon="3.88692">
        <ele>654.8</ele>
        <time>2023-11-07T15:03:56Z</time>
      </trkpt>
      <trkpt lat="45.16064" lon="3.88725">
        <ele>654.8</ele>
        <time>2023-11-07T15:04:07Z</time>
      </trkpt>
      <trkpt lat="45.16073" lon="3.88748">
        <ele>651.91</ele>
        <time>2023-11-07T15:04:17Z</time>
      </trkpt>
      <trkpt lat="45.16077" lon="3.88765">
        <ele>649.99</ele>
        <time>2023-11-07T15:04:25Z</time>
      </trkpt>
      <trkpt lat="45.16083" lon="3.88776">
        <ele>647.1</ele>
        <time>2023-11-07T15:04:39Z</time>
      </trkpt>
      <trkpt lat="45.16084" lon="3.88782">
        <ele>643.26</ele>
        <time>2023-11-07T15:04:57Z</time>
      </trkpt>
      <trkpt lat="45.16084" lon="3.88782">
        <ele>641.82</ele>
        <time>2023-11-07T15:05:08Z</time>
      </trkpt>
      <trkpt lat="45.16085" lon="3.88785">
        <ele>639.41</ele>
        <time>2023-11-07T15:05:32Z</time>
      </trkpt>
      <trkpt lat="45.16086" lon="3.88787">
        <ele>637.01</ele>
        <time>2023-11-07T15:05:45Z</time>
      </trkpt>
      <trkpt lat="45.16085" lon="3.88786">
        <ele>633.65</ele>
        <time>2023-11-07T15:06:05Z</time>
      </trkpt>
      <trkpt lat="45.16085" lon="3.88786">
        <ele>632.68</ele>
        <time>2023-11-07T15:06:20Z</time>
      </trkpt>
      <trkpt lat="45.16086" lon="3.88787">
        <ele>632.2</ele>
        <time>2023-11-07T15:06:43Z</time>
      </trkpt>
      <trkpt lat="45.16086" lon="3.88786">
        <ele>632.2</ele>
        <time>2023-11-07T15:06:57Z</time>
      </trkpt>
      <trkpt lat="45.16084" lon="3.88786">
        <ele>630.76</ele>
        <time>2023-11-07T15:07:13Z</time>
      </trkpt>
      <trkpt lat="45.16088" lon="3.88794">
        <ele>632.68</ele>
        <time>2023-11-07T15:07:25Z</time>
      </trkpt>
      <trkpt lat="45.1609" lon="3.88798">
        <ele>633.17</ele>
        <time>2023-11-07T15:07:29Z</time>
      </trkpt>
      <trkpt lat="45.16093" lon="3.88812">
        <ele>634.61</ele>
        <time>2023-11-07T15:07:41Z</time>
      </trkpt>
      <trkpt lat="45.16096" lon="3.88831">
        <ele>632.2</ele>
        <time>2023-11-07T15:07:54Z</time>
      </trkpt>
      <trkpt lat="45.16101" lon="3.88852">
        <ele>630.76</ele>
        <time>2023-11-07T15:08:07Z</time>
      </trkpt>
      <trkpt lat="45.16114" lon="3.88879">
        <ele>635.57</ele>
        <time>2023-11-07T15:08:21Z</time>
      </trkpt>
      <trkpt lat="45.16125" lon="3.88905">
        <ele>640.86</ele>
        <time>2023-11-07T15:08:37Z</time>
      </trkpt>
      <trkpt lat="45.16135" lon="3.88929">
        <ele>640.86</ele>
        <time>2023-11-07T15:08:52Z</time>
      </trkpt>
      <trkpt lat="45.16136" lon="3.88932">
        <ele>639.89</ele>
        <time>2023-11-07T15:08:54Z</time>
      </trkpt>
      <trkpt lat="45.16148" lon="3.88963">
        <ele>636.53</ele>
        <time>2023-11-07T15:09:11Z</time>
      </trkpt>
      <trkpt lat="45.16153" lon="3.88976">
        <ele>636.53</ele>
        <time>2023-11-07T15:09:19Z</time>
      </trkpt>
      <trkpt lat="45.16157" lon="3.88983">
        <ele>636.05</ele>
        <time>2023-11-07T15:09:23Z</time>
      </trkpt>
      <trkpt lat="45.16169" lon="3.89011">
        <ele>633.65</ele>
        <time>2023-11-07T15:09:40Z</time>
      </trkpt>
      <trkpt lat="45.16186" lon="3.89049">
        <ele>630.76</ele>
        <time>2023-11-07T15:10:01Z</time>
      </trkpt>
      <trkpt lat="45.16199" lon="3.89076">
        <ele>628.36</ele>
        <time>2023-11-07T15:10:17Z</time>
      </trkpt>
      <trkpt lat="45.16214" lon="3.89109">
        <ele>624.99</ele>
        <time>2023-11-07T15:10:36Z</time>
      </trkpt>
      <trkpt lat="45.16226" lon="3.89135">
        <ele>624.99</ele>
        <time>2023-11-07T15:10:53Z</time>
      </trkpt>
      <trkpt lat="45.16234" lon="3.89158">
        <ele>624.99</ele>
        <time>2023-11-07T15:11:08Z</time>
      </trkpt>
      <trkpt lat="45.16243" lon="3.89182">
        <ele>625.96</ele>
        <time>2023-11-07T15:11:23Z</time>
      </trkpt>
      <trkpt lat="45.16257" lon="3.89212">
        <ele>624.51</ele>
        <time>2023-11-07T15:11:41Z</time>
      </trkpt>
      <trkpt lat="45.16268" lon="3.89239">
        <ele>624.99</ele>
        <time>2023-11-07T15:11:59Z</time>
      </trkpt>
      <trkpt lat="45.16276" lon="3.89271">
        <ele>622.59</ele>
        <time>2023-11-07T15:12:17Z</time>
      </trkpt>
      <trkpt lat="45.16281" lon="3.89288">
        <ele>622.59</ele>
        <time>2023-11-07T15:12:26Z</time>
      </trkpt>
      <trkpt lat="45.16293" lon="3.89313">
        <ele>620.67</ele>
        <time>2023-11-07T15:12:42Z</time>
      </trkpt>
      <trkpt lat="45.16309" lon="3.89345">
        <ele>620.19</ele>
        <time>2023-11-07T15:13:01Z</time>
      </trkpt>
      <trkpt lat="45.16323" lon="3.89374">
        <ele>618.75</ele>
        <time>2023-11-07T15:13:19Z</time>
      </trkpt>
      <trkpt lat="45.16332" lon="3.89393">
        <ele>616.82</ele>
        <time>2023-11-07T15:13:33Z</time>
      </trkpt>
      <trkpt lat="45.16347" lon="3.89417">
        <ele>616.34</ele>
        <time>2023-11-07T15:13:49Z</time>
      </trkpt>
      <trkpt lat="45.16367" lon="3.89451">
        <ele>615.38</ele>
        <time>2023-11-07T15:14:11Z</time>
      </trkpt>
      <trkpt lat="45.16387" lon="3.89486">
        <ele>613.46</ele>
        <time>2023-11-07T15:14:33Z</time>
      </trkpt>
      <trkpt lat="45.16404" lon="3.89517">
        <ele>612.02</ele>
        <time>2023-11-07T15:14:53Z</time>
      </trkpt>
      <trkpt lat="45.16418" lon="3.89553">
        <ele>612.98</ele>
        <time>2023-11-07T15:15:14Z</time>
      </trkpt>
      <trkpt lat="45.16427" lon="3.89576">
        <ele>612.98</ele>
        <time>2023-11-07T15:15:31Z</time>
      </trkpt>
      <trkpt lat="45.16429" lon="3.89576">
        <ele>612.02</ele>
        <time>2023-11-07T15:15:43Z</time>
      </trkpt>
      <trkpt lat="45.16435" lon="3.89588">
        <ele>611.54</ele>
        <time>2023-11-07T15:15:54Z</time>
      </trkpt>
      <trkpt lat="45.16452" lon="3.8962">
        <ele>610.57</ele>
        <time>2023-11-07T15:16:14Z</time>
      </trkpt>
      <trkpt lat="45.16471" lon="3.89657">
        <ele>609.13</ele>
        <time>2023-11-07T15:16:36Z</time>
      </trkpt>
      <trkpt lat="45.16492" lon="3.89691">
        <ele>607.21</ele>
        <time>2023-11-07T15:16:57Z</time>
      </trkpt>
      <trkpt lat="45.16513" lon="3.89732">
        <ele>605.77</ele>
        <time>2023-11-07T15:17:20Z</time>
      </trkpt>
      <trkpt lat="45.16528" lon="3.89778">
        <ele>604.81</ele>
        <time>2023-11-07T15:17:45Z</time>
      </trkpt>
      <trkpt lat="45.16538" lon="3.89812">
        <ele>602.88</ele>
        <time>2023-11-07T15:18:03Z</time>
      </trkpt>
      <trkpt lat="45.16548" lon="3.89845">
        <ele>601.92</ele>
        <time>2023-11-07T15:18:21Z</time>
      </trkpt>
      <trkpt lat="45.16558" lon="3.89887">
        <ele>601.44</ele>
        <time>2023-11-07T15:18:43Z</time>
      </trkpt>
      <trkpt lat="45.16558" lon="3.8989">
        <ele>600.96</ele>
        <time>2023-11-07T15:18:45Z</time>
      </trkpt>
      <trkpt lat="45.16561" lon="3.89906">
        <ele>601.44</ele>
        <time>2023-11-07T15:19:00Z</time>
      </trkpt>
      <trkpt lat="45.16566" lon="3.89924">
        <ele>601.44</ele>
        <time>2023-11-07T15:19:16Z</time>
      </trkpt>
      <trkpt lat="45.16569" lon="3.89937">
        <ele>601.92</ele>
        <time>2023-11-07T15:19:28Z</time>
      </trkpt>
      <trkpt lat="45.16578" lon="3.89971">
        <ele>601.44</ele>
        <time>2023-11-07T15:19:46Z</time>
      </trkpt>
      <trkpt lat="45.1658" lon="3.90009">
        <ele>600</ele>
        <time>2023-11-07T15:20:06Z</time>
      </trkpt>
      <trkpt lat="45.16591" lon="3.90036">
        <ele>599.04</ele>
        <time>2023-11-07T15:20:22Z</time>
      </trkpt>
      <trkpt lat="45.16607" lon="3.90052">
        <ele>599.52</ele>
        <time>2023-11-07T15:20:41Z</time>
      </trkpt>
      <trkpt lat="45.16608" lon="3.90052">
        <ele>600</ele>
        <time>2023-11-07T15:20:53Z</time>
      </trkpt>
      <trkpt lat="45.16609" lon="3.90056">
        <ele>600</ele>
        <time>2023-11-07T15:21:05Z</time>
      </trkpt>
      <trkpt lat="45.16621" lon="3.90085">
        <ele>600.48</ele>
        <time>2023-11-07T15:21:23Z</time>
      </trkpt>
      <trkpt lat="45.16629" lon="3.90118">
        <ele>600</ele>
        <time>2023-11-07T15:21:41Z</time>
      </trkpt>
      <trkpt lat="45.16638" lon="3.90154">
        <ele>599.52</ele>
        <time>2023-11-07T15:22:00Z</time>
      </trkpt>
      <trkpt lat="45.16646" lon="3.90186">
        <ele>599.04</ele>
        <time>2023-11-07T15:22:18Z</time>
      </trkpt>
      <trkpt lat="45.16655" lon="3.90224">
        <ele>597.6</ele>
        <time>2023-11-07T15:22:40Z</time>
      </trkpt>
      <trkpt lat="45.16665" lon="3.9026">
        <ele>596.15</ele>
        <time>2023-11-07T15:22:59Z</time>
      </trkpt>
      <trkpt lat="45.16677" lon="3.90296">
        <ele>596.15</ele>
        <time>2023-11-07T15:23:18Z</time>
      </trkpt>
      <trkpt lat="45.16688" lon="3.90329">
        <ele>595.19</ele>
        <time>2023-11-07T15:23:36Z</time>
      </trkpt>
      <trkpt lat="45.167" lon="3.90361">
        <ele>594.71</ele>
        <time>2023-11-07T15:23:54Z</time>
      </trkpt>
      <trkpt lat="45.1671" lon="3.9039">
        <ele>594.71</ele>
        <time>2023-11-07T15:24:11Z</time>
      </trkpt>
      <trkpt lat="45.16725" lon="3.90403">
        <ele>595.19</ele>
        <time>2023-11-07T15:24:25Z</time>
      </trkpt>
      <trkpt lat="45.16751" lon="3.90406">
        <ele>593.27</ele>
        <time>2023-11-07T15:24:43Z</time>
      </trkpt>
      <trkpt lat="45.16782" lon="3.90407">
        <ele>591.83</ele>
        <time>2023-11-07T15:25:04Z</time>
      </trkpt>
      <trkpt lat="45.16809" lon="3.90406">
        <ele>590.39</ele>
        <time>2023-11-07T15:25:24Z</time>
      </trkpt>
      <trkpt lat="45.16839" lon="3.90401">
        <ele>587.98</ele>
        <time>2023-11-07T15:25:44Z</time>
      </trkpt>
      <trkpt lat="45.16872" lon="3.90393">
        <ele>587.98</ele>
        <time>2023-11-07T15:26:07Z</time>
      </trkpt>
      <trkpt lat="45.16901" lon="3.90395">
        <ele>586.06</ele>
        <time>2023-11-07T15:26:27Z</time>
      </trkpt>
      <trkpt lat="45.16929" lon="3.90398">
        <ele>587.02</ele>
        <time>2023-11-07T15:26:47Z</time>
      </trkpt>
      <trkpt lat="45.16948" lon="3.90417">
        <ele>587.5</ele>
        <time>2023-11-07T15:27:05Z</time>
      </trkpt>
      <trkpt lat="45.16966" lon="3.90445">
        <ele>588.46</ele>
        <time>2023-11-07T15:27:22Z</time>
      </trkpt>
      <trkpt lat="45.1699" lon="3.90476">
        <ele>588.46</ele>
        <time>2023-11-07T15:27:43Z</time>
      </trkpt>
      <trkpt lat="45.17009" lon="3.90498">
        <ele>589.91</ele>
        <time>2023-11-07T15:28:01Z</time>
      </trkpt>
      <trkpt lat="45.17018" lon="3.90516">
        <ele>589.43</ele>
        <time>2023-11-07T15:28:13Z</time>
      </trkpt>
      <trkpt lat="45.1703" lon="3.90539">
        <ele>588.95</ele>
        <time>2023-11-07T15:28:27Z</time>
      </trkpt>
      <trkpt lat="45.17041" lon="3.90555">
        <ele>589.43</ele>
        <time>2023-11-07T15:28:39Z</time>
      </trkpt>
      <trkpt lat="45.17056" lon="3.90572">
        <ele>587.98</ele>
        <time>2023-11-07T15:28:51Z</time>
      </trkpt>
      <trkpt lat="45.17077" lon="3.9058">
        <ele>589.43</ele>
        <time>2023-11-07T15:29:06Z</time>
      </trkpt>
      <trkpt lat="45.17089" lon="3.90585">
        <ele>588.95</ele>
        <time>2023-11-07T15:29:14Z</time>
      </trkpt>
      <trkpt lat="45.17092" lon="3.90592">
        <ele>589.43</ele>
        <time>2023-11-07T15:29:19Z</time>
      </trkpt>
      <trkpt lat="45.17097" lon="3.90603">
        <ele>589.91</ele>
        <time>2023-11-07T15:29:26Z</time>
      </trkpt>
      <trkpt lat="45.17118" lon="3.90626">
        <ele>590.87</ele>
        <time>2023-11-07T15:29:44Z</time>
      </trkpt>
      <trkpt lat="45.17135" lon="3.90642">
        <ele>591.83</ele>
        <time>2023-11-07T15:29:58Z</time>
      </trkpt>
      <trkpt lat="45.17153" lon="3.90667">
        <ele>590.87</ele>
        <time>2023-11-07T15:30:15Z</time>
      </trkpt>
      <trkpt lat="45.17166" lon="3.90685">
        <ele>590.39</ele>
        <time>2023-11-07T15:30:28Z</time>
      </trkpt>
      <trkpt lat="45.17182" lon="3.90703">
        <ele>590.87</ele>
        <time>2023-11-07T15:30:43Z</time>
      </trkpt>
      <trkpt lat="45.172" lon="3.90731">
        <ele>590.39</ele>
        <time>2023-11-07T15:31:01Z</time>
      </trkpt>
      <trkpt lat="45.17209" lon="3.90756">
        <ele>590.87</ele>
        <time>2023-11-07T15:31:17Z</time>
      </trkpt>
      <trkpt lat="45.17211" lon="3.90758">
        <ele>590.87</ele>
        <time>2023-11-07T15:31:19Z</time>
      </trkpt>
      <trkpt lat="45.17224" lon="3.90788">
        <ele>588.46</ele>
        <time>2023-11-07T15:31:36Z</time>
      </trkpt>
      <trkpt lat="45.17237" lon="3.90811">
        <ele>584.14</ele>
        <time>2023-11-07T15:31:52Z</time>
      </trkpt>
      <trkpt lat="45.1725" lon="3.90829">
        <ele>580.77</ele>
        <time>2023-11-07T15:32:07Z</time>
      </trkpt>
      <trkpt lat="45.17262" lon="3.9086">
        <ele>578.37</ele>
        <time>2023-11-07T15:32:26Z</time>
      </trkpt>
      <trkpt lat="45.17271" lon="3.90886">
        <ele>580.77</ele>
        <time>2023-11-07T15:32:41Z</time>
      </trkpt>
      <trkpt lat="45.17277" lon="3.90915">
        <ele>586.54</ele>
        <time>2023-11-07T15:32:58Z</time>
      </trkpt>
      <trkpt lat="45.17282" lon="3.90937">
        <ele>590.87</ele>
        <time>2023-11-07T15:33:13Z</time>
      </trkpt>
      <trkpt lat="45.17282" lon="3.9094">
        <ele>590.87</ele>
        <time>2023-11-07T15:33:15Z</time>
      </trkpt>
      <trkpt lat="45.17291" lon="3.90964">
        <ele>595.19</ele>
        <time>2023-11-07T15:33:31Z</time>
      </trkpt>
      <trkpt lat="45.17297" lon="3.90982">
        <ele>598.56</ele>
        <time>2023-11-07T15:33:42Z</time>
      </trkpt>
      <trkpt lat="45.17298" lon="3.90983">
        <ele>599.04</ele>
        <time>2023-11-07T15:33:43Z</time>
      </trkpt>
      <trkpt lat="45.17299" lon="3.90987">
        <ele>599.04</ele>
        <time>2023-11-07T15:33:45Z</time>
      </trkpt>
      <trkpt lat="45.17303" lon="3.90998">
        <ele>599.04</ele>
        <time>2023-11-07T15:33:50Z</time>
      </trkpt>
      <trkpt lat="45.17312" lon="3.91023">
        <ele>600.48</ele>
        <time>2023-11-07T15:34:04Z</time>
      </trkpt>
      <trkpt lat="45.17314" lon="3.91027">
        <ele>599.52</ele>
        <time>2023-11-07T15:34:07Z</time>
      </trkpt>
      <trkpt lat="45.17317" lon="3.91034">
        <ele>600</ele>
        <time>2023-11-07T15:34:12Z</time>
      </trkpt>
      <trkpt lat="45.17333" lon="3.91057">
        <ele>600.48</ele>
        <time>2023-11-07T15:34:27Z</time>
      </trkpt>
      <trkpt lat="45.17349" lon="3.91085">
        <ele>597.12</ele>
        <time>2023-11-07T15:34:42Z</time>
      </trkpt>
      <trkpt lat="45.17355" lon="3.911">
        <ele>596.15</ele>
        <time>2023-11-07T15:34:51Z</time>
      </trkpt>
      <trkpt lat="45.17361" lon="3.91111">
        <ele>595.19</ele>
        <time>2023-11-07T15:34:57Z</time>
      </trkpt>
      <trkpt lat="45.17371" lon="3.91133">
        <ele>596.64</ele>
        <time>2023-11-07T15:35:11Z</time>
      </trkpt>
      <trkpt lat="45.17379" lon="3.91151">
        <ele>597.12</ele>
        <time>2023-11-07T15:35:24Z</time>
      </trkpt>
      <trkpt lat="45.1738" lon="3.91153">
        <ele>597.12</ele>
        <time>2023-11-07T15:35:25Z</time>
      </trkpt>
      <trkpt lat="45.1739" lon="3.91183">
        <ele>592.79</ele>
        <time>2023-11-07T15:35:39Z</time>
      </trkpt>
      <trkpt lat="45.17399" lon="3.91207">
        <ele>591.83</ele>
        <time>2023-11-07T15:35:53Z</time>
      </trkpt>
      <trkpt lat="45.17403" lon="3.91214">
        <ele>592.79</ele>
        <time>2023-11-07T15:35:57Z</time>
      </trkpt>
      <trkpt lat="45.17419" lon="3.91236">
        <ele>595.19</ele>
        <time>2023-11-07T15:36:13Z</time>
      </trkpt>
      <trkpt lat="45.17435" lon="3.91267">
        <ele>593.75</ele>
        <time>2023-11-07T15:36:30Z</time>
      </trkpt>
      <trkpt lat="45.17444" lon="3.91285">
        <ele>590.87</ele>
        <time>2023-11-07T15:36:39Z</time>
      </trkpt>
      <trkpt lat="45.17455" lon="3.91311">
        <ele>586.06</ele>
        <time>2023-11-07T15:36:53Z</time>
      </trkpt>
      <trkpt lat="45.17463" lon="3.91329">
        <ele>586.06</ele>
        <time>2023-11-07T15:37:05Z</time>
      </trkpt>
      <trkpt lat="45.17468" lon="3.91339">
        <ele>586.06</ele>
        <time>2023-11-07T15:37:12Z</time>
      </trkpt>
      <trkpt lat="45.17474" lon="3.91351">
        <ele>587.98</ele>
        <time>2023-11-07T15:37:20Z</time>
      </trkpt>
      <trkpt lat="45.17487" lon="3.91379">
        <ele>588.46</ele>
        <time>2023-11-07T15:37:36Z</time>
      </trkpt>
      <trkpt lat="45.17498" lon="3.91384">
        <ele>591.35</ele>
        <time>2023-11-07T15:37:45Z</time>
      </trkpt>
      <trkpt lat="45.17516" lon="3.91392">
        <ele>593.75</ele>
        <time>2023-11-07T15:37:58Z</time>
      </trkpt>
      <trkpt lat="45.17517" lon="3.91394">
        <ele>593.75</ele>
        <time>2023-11-07T15:37:59Z</time>
      </trkpt>
      <trkpt lat="45.17537" lon="3.91417">
        <ele>592.31</ele>
        <time>2023-11-07T15:38:16Z</time>
      </trkpt>
      <trkpt lat="45.1755" lon="3.91429">
        <ele>595.19</ele>
        <time>2023-11-07T15:38:29Z</time>
      </trkpt>
      <trkpt lat="45.1757" lon="3.91454">
        <ele>591.35</ele>
        <time>2023-11-07T15:38:45Z</time>
      </trkpt>
      <trkpt lat="45.17588" lon="3.91471">
        <ele>589.43</ele>
        <time>2023-11-07T15:39:00Z</time>
      </trkpt>
      <trkpt lat="45.17607" lon="3.91499">
        <ele>581.73</ele>
        <time>2023-11-07T15:39:15Z</time>
      </trkpt>
      <trkpt lat="45.17615" lon="3.91514">
        <ele>579.81</ele>
        <time>2023-11-07T15:39:24Z</time>
      </trkpt>
      <trkpt lat="45.17618" lon="3.91522">
        <ele>577.89</ele>
        <time>2023-11-07T15:39:28Z</time>
      </trkpt>
      <trkpt lat="45.17632" lon="3.91559">
        <ele>569.72</ele>
        <time>2023-11-07T15:39:46Z</time>
      </trkpt>
      <trkpt lat="45.17652" lon="3.91577">
        <ele>571.64</ele>
        <time>2023-11-07T15:40:03Z</time>
      </trkpt>
      <trkpt lat="45.17668" lon="3.91598">
        <ele>572.6</ele>
        <time>2023-11-07T15:40:19Z</time>
      </trkpt>
      <trkpt lat="45.1768" lon="3.91616">
        <ele>573.08</ele>
        <time>2023-11-07T15:40:33Z</time>
      </trkpt>
      <trkpt lat="45.17692" lon="3.91634">
        <ele>574.53</ele>
        <time>2023-11-07T15:40:46Z</time>
      </trkpt>
      <trkpt lat="45.17707" lon="3.91678">
        <ele>563.47</ele>
        <time>2023-11-07T15:41:03Z</time>
      </trkpt>
      <trkpt lat="45.17727" lon="3.9171">
        <ele>560.59</ele>
        <time>2023-11-07T15:41:23Z</time>
      </trkpt>
      <trkpt lat="45.17743" lon="3.91734">
        <ele>560.11</ele>
        <time>2023-11-07T15:41:40Z</time>
      </trkpt>
      <trkpt lat="45.17753" lon="3.91759">
        <ele>558.66</ele>
        <time>2023-11-07T15:41:55Z</time>
      </trkpt>
      <trkpt lat="45.17766" lon="3.91782">
        <ele>559.14</ele>
        <time>2023-11-07T15:42:09Z</time>
      </trkpt>
      <trkpt lat="45.17782" lon="3.91809">
        <ele>559.62</ele>
        <time>2023-11-07T15:42:27Z</time>
      </trkpt>
      <trkpt lat="45.17792" lon="3.91818">
        <ele>559.14</ele>
        <time>2023-11-07T15:42:38Z</time>
      </trkpt>
      <trkpt lat="45.17814" lon="3.91836">
        <ele>557.7</ele>
        <time>2023-11-07T15:42:56Z</time>
      </trkpt>
      <trkpt lat="45.1783" lon="3.91847">
        <ele>556.26</ele>
        <time>2023-11-07T15:43:09Z</time>
      </trkpt>
      <trkpt lat="45.17854" lon="3.91843">
        <ele>553.38</ele>
        <time>2023-11-07T15:43:26Z</time>
      </trkpt>
      <trkpt lat="45.17872" lon="3.91836">
        <ele>550.01</ele>
        <time>2023-11-07T15:43:41Z</time>
      </trkpt>
      <trkpt lat="45.17876" lon="3.91835">
        <ele>548.57</ele>
        <time>2023-11-07T15:43:52Z</time>
      </trkpt>
      <trkpt lat="45.17879" lon="3.91833">
        <ele>548.09</ele>
        <time>2023-11-07T15:44:03Z</time>
      </trkpt>
      <trkpt lat="45.17878" lon="3.9183">
        <ele>547.13</ele>
        <time>2023-11-07T15:44:13Z</time>
      </trkpt>
      <trkpt lat="45.17876" lon="3.91805">
        <ele>549.53</ele>
        <time>2023-11-07T15:44:28Z</time>
      </trkpt>
      <trkpt lat="45.17876" lon="3.91796">
        <ele>550.49</ele>
        <time>2023-11-07T15:44:35Z</time>
      </trkpt>
      <trkpt lat="45.17879" lon="3.9179">
        <ele>551.45</ele>
        <time>2023-11-07T15:44:40Z</time>
      </trkpt>
      <trkpt lat="45.17891" lon="3.91787">
        <ele>555.78</ele>
        <time>2023-11-07T15:44:54Z</time>
      </trkpt>
      <trkpt lat="45.17904" lon="3.9178">
        <ele>559.62</ele>
        <time>2023-11-07T15:45:07Z</time>
      </trkpt>
      <trkpt lat="45.17919" lon="3.91768">
        <ele>561.07</ele>
        <time>2023-11-07T15:45:22Z</time>
      </trkpt>
      <trkpt lat="45.17931" lon="3.91759">
        <ele>560.11</ele>
        <time>2023-11-07T15:45:31Z</time>
      </trkpt>
      <trkpt lat="45.17935" lon="3.91755">
        <ele>560.11</ele>
        <time>2023-11-07T15:45:35Z</time>
      </trkpt>
      <trkpt lat="45.1795" lon="3.91739">
        <ele>560.59</ele>
        <time>2023-11-07T15:45:49Z</time>
      </trkpt>
      <trkpt lat="45.17963" lon="3.91723">
        <ele>560.11</ele>
        <time>2023-11-07T15:46:02Z</time>
      </trkpt>
      <trkpt lat="45.17981" lon="3.91687">
        <ele>557.22</ele>
        <time>2023-11-07T15:46:23Z</time>
      </trkpt>
      <trkpt lat="45.17995" lon="3.91653">
        <ele>557.22</ele>
        <time>2023-11-07T15:46:43Z</time>
      </trkpt>
      <trkpt lat="45.18006" lon="3.91627">
        <ele>558.66</ele>
        <time>2023-11-07T15:46:59Z</time>
      </trkpt>
      <trkpt lat="45.18016" lon="3.91598">
        <ele>561.07</ele>
        <time>2023-11-07T15:47:16Z</time>
      </trkpt>
      <trkpt lat="45.18027" lon="3.91562">
        <ele>562.03</ele>
        <time>2023-11-07T15:47:34Z</time>
      </trkpt>
      <trkpt lat="45.18035" lon="3.91528">
        <ele>562.03</ele>
        <time>2023-11-07T15:47:51Z</time>
      </trkpt>
      <trkpt lat="45.18036" lon="3.9152">
        <ele>561.55</ele>
        <time>2023-11-07T15:47:55Z</time>
      </trkpt>
      <trkpt lat="45.1804" lon="3.9149">
        <ele>560.59</ele>
        <time>2023-11-07T15:48:12Z</time>
      </trkpt>
      <trkpt lat="45.18044" lon="3.91462">
        <ele>561.07</ele>
        <time>2023-11-07T15:48:27Z</time>
      </trkpt>
      <trkpt lat="45.1805" lon="3.91426">
        <ele>561.55</ele>
        <time>2023-11-07T15:48:46Z</time>
      </trkpt>
      <trkpt lat="45.18057" lon="3.91395">
        <ele>561.55</ele>
        <time>2023-11-07T15:49:03Z</time>
      </trkpt>
      <trkpt lat="45.18065" lon="3.91371">
        <ele>562.99</ele>
        <time>2023-11-07T15:49:19Z</time>
      </trkpt>
      <trkpt lat="45.18074" lon="3.91344">
        <ele>561.55</ele>
        <time>2023-11-07T15:49:35Z</time>
      </trkpt>
      <trkpt lat="45.18083" lon="3.91319">
        <ele>562.03</ele>
        <time>2023-11-07T15:49:50Z</time>
      </trkpt>
      <trkpt lat="45.18091" lon="3.91291">
        <ele>563.47</ele>
        <time>2023-11-07T15:50:08Z</time>
      </trkpt>
      <trkpt lat="45.18102" lon="3.91256">
        <ele>562.51</ele>
        <time>2023-11-07T15:50:28Z</time>
      </trkpt>
      <trkpt lat="45.18112" lon="3.91217">
        <ele>561.07</ele>
        <time>2023-11-07T15:50:49Z</time>
      </trkpt>
      <trkpt lat="45.18121" lon="3.91179">
        <ele>560.59</ele>
        <time>2023-11-07T15:51:10Z</time>
      </trkpt>
      <trkpt lat="45.18125" lon="3.91146">
        <ele>559.62</ele>
        <time>2023-11-07T15:51:28Z</time>
      </trkpt>
      <trkpt lat="45.1813" lon="3.91125">
        <ele>558.18</ele>
        <time>2023-11-07T15:51:40Z</time>
      </trkpt>
      <trkpt lat="45.18149" lon="3.91114">
        <ele>558.66</ele>
        <time>2023-11-07T15:51:58Z</time>
      </trkpt>
      <trkpt lat="45.1817" lon="3.91108">
        <ele>558.66</ele>
        <time>2023-11-07T15:52:15Z</time>
      </trkpt>
      <trkpt lat="45.18194" lon="3.91097">
        <ele>558.18</ele>
        <time>2023-11-07T15:52:34Z</time>
      </trkpt>
      <trkpt lat="45.18221" lon="3.91088">
        <ele>554.82</ele>
        <time>2023-11-07T15:52:54Z</time>
      </trkpt>
      <trkpt lat="45.18245" lon="3.91082">
        <ele>553.38</ele>
        <time>2023-11-07T15:53:13Z</time>
      </trkpt>
      <trkpt lat="45.18263" lon="3.91077">
        <ele>553.38</ele>
        <time>2023-11-07T15:53:27Z</time>
      </trkpt>
      <trkpt lat="45.1829" lon="3.91072">
        <ele>551.45</ele>
        <time>2023-11-07T15:53:47Z</time>
      </trkpt>
      <trkpt lat="45.18317" lon="3.91065">
        <ele>550.01</ele>
        <time>2023-11-07T15:54:08Z</time>
      </trkpt>
      <trkpt lat="45.18322" lon="3.91063">
        <ele>548.09</ele>
        <time>2023-11-07T15:54:16Z</time>
      </trkpt>
      <trkpt lat="45.18322" lon="3.91067">
        <ele>547.61</ele>
        <time>2023-11-07T15:54:32Z</time>
      </trkpt>
      <trkpt lat="45.18329" lon="3.91061">
        <ele>547.13</ele>
        <time>2023-11-07T15:54:42Z</time>
      </trkpt>
      <trkpt lat="45.18332" lon="3.9106">
        <ele>547.61</ele>
        <time>2023-11-07T15:54:46Z</time>
      </trkpt>
      <trkpt lat="45.18348" lon="3.9106">
        <ele>546.65</ele>
        <time>2023-11-07T15:55:01Z</time>
      </trkpt>
      <trkpt lat="45.18349" lon="3.91062">
        <ele>546.17</ele>
        <time>2023-11-07T15:55:03Z</time>
      </trkpt>
      <trkpt lat="45.18348" lon="3.91071">
        <ele>544.24</ele>
        <time>2023-11-07T15:55:09Z</time>
      </trkpt>
    </trkseg>
  </trk>
</gpx>